Wetterdaten: Mittwoch, 10.01.2018
Datum Zeit Temp. A. Pool Temp. Feuchte A. Luftdruck Regen Wind Richtung Richtung Sonnenschein ET UV Solar Taupunkt Windchill Windben Empfang
10.01.2018 00:00 5,2 C 4,4 C 92 % 1013,1 hPa 0,0 l/m 0,0 km/h (0 Bft) O-SO 120 0 min 0,000 mm 0,0 UV-I 0 W/m 4,0 C 5,2 C 0,0 km/h (0 Bft) 94,29 %
10.01.2018 00:02 5,1 C 4,4 C 93 % 1013,0 hPa 0,0 l/m 0,0 km/h (0 Bft) O-SO 120 0 min 0,000 mm 0,0 UV-I 0 W/m 4,1 C 5,1 C 1,6 km/h (1 Bft) 100,00 %
10.01.2018 00:04 5,1 C 4,4 C 93 % 1012,9 hPa 0,0 l/m 0,4 km/h (0 Bft) O-SO 120 0 min 0,000 mm 0,0 UV-I 0 W/m 4,1 C 5,1 C 1,6 km/h (1 Bft) 100,00 %
10.01.2018 00:06 5,0 C 4,4 C 93 % 1012,8 hPa 0,0 l/m 0,0 km/h (0 Bft) O-SO 120 0 min 0,000 mm 0,0 UV-I 0 W/m 4,0 C 5,0 C 0,0 km/h (0 Bft) 98,39 %
10.01.2018 00:08 4,9 C 4,4 C 93 % 1012,9 hPa 0,0 l/m 0,0 km/h (0 Bft) O-SO 120 0 min 0,000 mm 0,0 UV-I 0 W/m 3,9 C 4,9 C 1,6 km/h (1 Bft) 97,87 %
10.01.2018 00:10 4,9 C 4,4 C 94 % 1013,1 hPa 0,0 l/m 2,7 km/h (1 Bft) O-SO 120 0 min 0,000 mm 0,0 UV-I 0 W/m 4,0 C 4,9 C 6,4 km/h (2 Bft) 100,00 %
10.01.2018 00:13 4,8 C 4,4 C 94 % 1013,1 hPa 0,0 l/m 5,3 km/h (1 Bft) O-SO 119 0 min 0,000 mm 0,0 UV-I 0 W/m 3,9 C 4,8 C 6,4 km/h (2 Bft) 100,00 %
10.01.2018 00:14 4,8 C 4,4 C 94 % 1013,1 hPa 0,0 l/m 4,3 km/h (1 Bft) O-SO 119 0 min 0,000 mm 0,0 UV-I 0 W/m 3,9 C 4,8 C 4,8 km/h (1 Bft) 100,00 %
10.01.2018 00:16 4,8 C 4,4 C 94 % 1013,1 hPa 0,0 l/m 4,0 km/h (1 Bft) O-NO 76 0 min 0,000 mm 0,0 UV-I 0 W/m 3,9 C 4,8 C 6,4 km/h (2 Bft) 100,00 %
10.01.2018 00:18 4,8 C 4,4 C 94 % 1013,1 hPa 0,0 l/m 3,2 km/h (1 Bft) O-NO 76 0 min 0,000 mm 0,0 UV-I 0 W/m 3,9 C 4,8 C 4,8 km/h (1 Bft) 98,00 %
10.01.2018 00:20 4,9 C 4,4 C 94 % 1013,1 hPa 0,0 l/m 1,1 km/h (1 Bft) O-NO 76 0 min 0,000 mm 0,0 UV-I 0 W/m 4,0 C 4,9 C 3,2 km/h (1 Bft) 97,56 %
10.01.2018 00:22 4,9 C 4,4 C 94 % 1013,0 hPa 0,0 l/m 2,3 km/h (1 Bft) O-NO 76 0 min 0,000 mm 0,0 UV-I 0 W/m 4,0 C 4,9 C 4,8 km/h (1 Bft) 100,00 %
10.01.2018 00:24 5,1 C 4,4 C 94 % 1013,0 hPa 0,0 l/m 0,1 km/h (0 Bft) O-NO 76 0 min 0,000 mm 0,0 UV-I 0 W/m 4,2 C 5,1 C 1,6 km/h (1 Bft) 100,00 %
10.01.2018 00:26 5,2 C 4,4 C 94 % 1013,0 hPa 0,0 l/m 1,6 km/h (1 Bft) O-NO 76 0 min 0,000 mm 0,0 UV-I 0 W/m 4,3 C 5,2 C 3,2 km/h (1 Bft) 100,00 %
10.01.2018 00:28 5,2 C 4,4 C 93 % 1012,8 hPa 0,0 l/m 3,0 km/h (1 Bft) O-NO 76 0 min 0,000 mm 0,0 UV-I 0 W/m 4,2 C 5,2 C 4,8 km/h (1 Bft) 97,50 %
10.01.2018 00:30 5,1 C 4,4 C 93 % 1012,7 hPa 0,0 l/m 3,8 km/h (1 Bft) O-NO 76 0 min 0,000 mm 0,0 UV-I 0 W/m 4,1 C 5,1 C 4,8 km/h (1 Bft) 100,00 %
10.01.2018 00:32 5,1 C 4,4 C 94 % 1012,8 hPa 0,0 l/m 3,5 km/h (1 Bft) O-NO 76 0 min 0,000 mm 0,0 UV-I 0 W/m 4,2 C 5,1 C 4,8 km/h (1 Bft) 100,00 %
10.01.2018 00:34 5,3 C 4,4 C 94 % 1012,8 hPa 0,0 l/m 5,1 km/h (1 Bft) O-NO 68 0 min 0,000 mm 0,0 UV-I 0 W/m 4,4 C 5,3 C 6,4 km/h (2 Bft) 97,62 %
10.01.2018 00:36 5,2 C 4,4 C 93 % 1012,8 hPa 0,0 l/m 4,5 km/h (1 Bft) NO 53 0 min 0,000 mm 0,0 UV-I 0 W/m 4,2 C 5,2 C 6,4 km/h (2 Bft) 100,00 %
10.01.2018 00:38 5,1 C 4,4 C 93 % 1012,8 hPa 0,0 l/m 4,8 km/h (1 Bft) NO 56 0 min 0,000 mm 0,0 UV-I 0 W/m 4,1 C 5,1 C 6,4 km/h (2 Bft) 100,00 %
10.01.2018 00:40 5,1 C 4,4 C 93 % 1012,7 hPa 0,0 l/m 5,3 km/h (1 Bft) NO 55 0 min 0,000 mm 0,0 UV-I 0 W/m 4,1 C 5,1 C 6,4 km/h (2 Bft) 100,00 %
10.01.2018 00:43 4,9 C 4,4 C 93 % 1012,6 hPa 0,0 l/m 4,8 km/h (1 Bft) NO 49 0 min 0,000 mm 0,0 UV-I 0 W/m 3,9 C 4,9 C 6,4 km/h (2 Bft) 98,68 %
10.01.2018 00:44 4,8 C 4,4 C 93 % 1012,6 hPa 0,0 l/m 3,7 km/h (1 Bft) NO 49 0 min 0,000 mm 0,0 UV-I 0 W/m 3,8 C 4,8 C 4,8 km/h (1 Bft) 91,67 %
10.01.2018 00:46 4,8 C 4,4 C 93 % 1012,6 hPa 0,0 l/m 3,3 km/h (1 Bft) NO 49 0 min 0,000 mm 0,0 UV-I 0 W/m 3,8 C 4,8 C 4,8 km/h (1 Bft) 100,00 %
10.01.2018 00:48 4,9 C 4,4 C 94 % 1012,6 hPa 0,0 l/m 3,5 km/h (1 Bft) NO 49 0 min 0,000 mm 0,0 UV-I 0 W/m 4,0 C 4,9 C 6,4 km/h (2 Bft) 100,00 %
10.01.2018 00:50 5,1 C 4,4 C 94 % 1012,6 hPa 0,0 l/m 2,9 km/h (1 Bft) NO 49 0 min 0,000 mm 0,0 UV-I 0 W/m 4,2 C 5,1 C 4,8 km/h (1 Bft) 100,00 %
10.01.2018 00:53 5,2 C 4,4 C 93 % 1012,6 hPa 0,0 l/m 0,4 km/h (0 Bft) NO 49 0 min 0,000 mm 0,0 UV-I 0 W/m 4,2 C 5,2 C 1,6 km/h (1 Bft) 97,18 %
10.01.2018 00:54 5,1 C 4,4 C 93 % 1012,6 hPa 0,0 l/m 2,8 km/h (1 Bft) NO 49 0 min 0,000 mm 0,0 UV-I 0 W/m 4,1 C 5,1 C 3,2 km/h (1 Bft) 100,00 %
10.01.2018 00:56 4,9 C 4,4 C 93 % 1012,7 hPa 0,0 l/m 1,3 km/h (1 Bft) NO 49 0 min 0,000 mm 0,0 UV-I 0 W/m 3,9 C 4,9 C 3,2 km/h (1 Bft) 95,74 %
10.01.2018 00:58 4,7 C 4,4 C 93 % 1012,9 hPa 0,0 l/m 0,0 km/h (0 Bft) NO 49 0 min 0,000 mm 0,0 UV-I 0 W/m 3,7 C 4,7 C 0,0 km/h (0 Bft) 97,56 %
10.01.2018 01:00 4,6 C 4,4 C 94 % 1013,0 hPa 0,0 l/m 0,2 km/h (0 Bft) NO 49 0 min 0,000 mm 0,0 UV-I 0 W/m 3,7 C 4,6 C 3,2 km/h (1 Bft) 98,11 %
10.01.2018 01:03 4,6 C 4,4 C 94 % 1013,2 hPa 0,0 l/m 3,6 km/h (1 Bft) NO 49 0 min 0,000 mm 0,0 UV-I 0 W/m 3,7 C 4,6 C 4,8 km/h (1 Bft) 97,18 %
10.01.2018 01:04 4,6 C 4,4 C 94 % 1013,2 hPa 0,0 l/m 3,8 km/h (1 Bft) NO 49 0 min 0,000 mm 0,0 UV-I 0 W/m 3,7 C 4,6 C 4,8 km/h (1 Bft) 86,67 %
10.01.2018 01:06 4,6 C 4,4 C 95 % 1013,2 hPa 0,0 l/m 3,8 km/h (1 Bft) NO 49 0 min 0,000 mm 0,0 UV-I 0 W/m 3,9 C 4,6 C 4,8 km/h (1 Bft) 97,87 %
10.01.2018 01:08 4,7 C 4,4 C 95 % 1013,2 hPa 0,0 l/m 2,9 km/h (1 Bft) NO 49 0 min 0,000 mm 0,0 UV-I 0 W/m 4,0 C 4,7 C 3,2 km/h (1 Bft) 97,14 %
10.01.2018 01:10 4,8 C 4,4 C 95 % 1013,0 hPa 0,0 l/m 1,3 km/h (1 Bft) NO 49 0 min 0,000 mm 0,0 UV-I 0 W/m 4,1 C 4,8 C 3,2 km/h (1 Bft) 98,46 %
10.01.2018 01:12 4,8 C 4,4 C 94 % 1013,0 hPa 0,0 l/m 0,1 km/h (0 Bft) NO 49 0 min 0,000 mm 0,0 UV-I 0 W/m 3,9 C 4,8 C 1,6 km/h (1 Bft) 97,37 %
10.01.2018 01:14 4,9 C 4,4 C 94 % 1013,0 hPa 0,0 l/m 1,6 km/h (1 Bft) NO 49 0 min 0,000 mm 0,0 UV-I 0 W/m 4,0 C 4,9 C 3,2 km/h (1 Bft) 95,74 %
10.01.2018 01:16 5,0 C 4,4 C 94 % 1013,1 hPa 0,0 l/m 2,8 km/h (1 Bft) NO 49 0 min 0,000 mm 0,0 UV-I 0 W/m 4,1 C 5,0 C 4,8 km/h (1 Bft) 96,00 %
10.01.2018 01:18 5,0 C 4,4 C 94 % 1013,0 hPa 0,0 l/m 2,9 km/h (1 Bft) NO 49 0 min 0,000 mm 0,0 UV-I 0 W/m 4,1 C 5,0 C 3,2 km/h (1 Bft) 97,87 %
10.01.2018 01:20 4,9 C 4,4 C 94 % 1013,1 hPa 0,0 l/m 1,9 km/h (1 Bft) NO 49 0 min 0,000 mm 0,0 UV-I 0 W/m 4,0 C 4,9 C 3,2 km/h (1 Bft) 96,00 %
10.01.2018 01:22 4,9 C 4,4 C 94 % 1013,1 hPa 0,0 l/m 1,8 km/h (1 Bft) NO 49 0 min 0,000 mm 0,0 UV-I 0 W/m 4,0 C 4,9 C 3,2 km/h (1 Bft) 98,00 %
10.01.2018 01:24 4,9 C 4,4 C 94 % 1013,0 hPa 0,0 l/m 0,1 km/h (0 Bft) NO 49 0 min 0,000 mm 0,0 UV-I 0 W/m 4,0 C 4,9 C 1,6 km/h (1 Bft) 97,37 %
10.01.2018 01:26 5,1 C 4,4 C 94 % 1013,0 hPa 0,0 l/m 0,7 km/h (0 Bft) NO 49 0 min 0,000 mm 0,0 UV-I 0 W/m 4,2 C 5,1 C 3,2 km/h (1 Bft) 98,00 %
10.01.2018 01:28 5,2 C 4,4 C 93 % 1013,0 hPa 0,0 l/m 0,0 km/h (0 Bft) NO 49 0 min 0,000 mm 0,0 UV-I 0 W/m 4,2 C 5,2 C 0,0 km/h (0 Bft) 100,00 %
10.01.2018 01:30 5,1 C 4,4 C 93 % 1013,0 hPa 0,0 l/m 1,0 km/h (0 Bft) NO 49 0 min 0,000 mm 0,0 UV-I 0 W/m 4,1 C 5,1 C 3,2 km/h (1 Bft) 98,00 %
10.01.2018 01:32 5,1 C 4,4 C 93 % 1013,1 hPa 0,0 l/m 2,0 km/h (1 Bft) NO 49 0 min 0,000 mm 0,0 UV-I 0 W/m 4,1 C 5,1 C 3,2 km/h (1 Bft) 100,00 %
10.01.2018 01:34 5,0 C 4,4 C 93 % 1013,0 hPa 0,0 l/m 1,4 km/h (1 Bft) NO 49 0 min 0,000 mm 0,0 UV-I 0 W/m 4,0 C 5,0 C 3,2 km/h (1 Bft) 100,00 %
10.01.2018 01:36 4,8 C 4,4 C 93 % 1013,1 hPa 0,0 l/m 0,0 km/h (0 Bft) NO 49 0 min 0,000 mm 0,0 UV-I 0 W/m 3,8 C 4,8 C 0,0 km/h (0 Bft) 100,00 %
10.01.2018 01:38 4,7 C 4,4 C 93 % 1013,0 hPa 0,0 l/m 1,6 km/h (1 Bft) NO 49 0 min 0,000 mm 0,0 UV-I 0 W/m 3,7 C 4,7 C 3,2 km/h (1 Bft) 100,00 %
10.01.2018 01:40 4,7 C 4,4 C 94 % 1012,8 hPa 0,0 l/m 2,3 km/h (1 Bft) NO 49 0 min 0,000 mm 0,0 UV-I 0 W/m 3,8 C 4,7 C 3,2 km/h (1 Bft) 100,00 %
10.01.2018 01:42 4,7 C 4,4 C 94 % 1012,9 hPa 0,0 l/m 1,1 km/h (1 Bft) NO 49 0 min 0,000 mm 0,0 UV-I 0 W/m 3,8 C 4,7 C 1,6 km/h (1 Bft) 100,00 %
10.01.2018 01:44 4,7 C 4,4 C 94 % 1013,0 hPa 0,0 l/m 1,8 km/h (1 Bft) NO 49 0 min 0,000 mm 0,0 UV-I 0 W/m 3,8 C 4,7 C 4,8 km/h (1 Bft) 96,00 %
10.01.2018 01:46 4,6 C 4,4 C 94 % 1013,0 hPa 0,0 l/m 2,3 km/h (1 Bft) NO 49 0 min 0,000 mm 0,0 UV-I 0 W/m 3,7 C 4,6 C 3,2 km/h (1 Bft) 100,00 %
10.01.2018 01:48 4,5 C 4,4 C 94 % 1012,9 hPa 0,0 l/m 1,9 km/h (1 Bft) NO 49 0 min 0,000 mm 0,0 UV-I 0 W/m 3,6 C 4,5 C 3,2 km/h (1 Bft) 100,00 %
10.01.2018 01:50 4,5 C 4,4 C 95 % 1012,8 hPa 0,0 l/m 0,2 km/h (0 Bft) NO 49 0 min 0,000 mm 0,0 UV-I 0 W/m 3,8 C 4,5 C 1,6 km/h (1 Bft) 97,87 %
10.01.2018 01:52 4,6 C 4,4 C 95 % 1012,8 hPa 0,0 l/m 1,2 km/h (1 Bft) NO 49 0 min 0,000 mm 0,0 UV-I 0 W/m 3,9 C 4,6 C 3,2 km/h (1 Bft) 100,00 %
10.01.2018 01:54 4,5 C 4,4 C 95 % 1012,7 hPa 0,0 l/m 0,4 km/h (0 Bft) NO 49 0 min 0,000 mm 0,0 UV-I 0 W/m 3,8 C 4,5 C 1,6 km/h (1 Bft) 100,00 %
10.01.2018 01:56 4,5 C 4,4 C 95 % 1012,7 hPa 0,0 l/m 0,1 km/h (0 Bft) NO 49 0 min 0,000 mm 0,0 UV-I 0 W/m 3,8 C 4,5 C 1,6 km/h (1 Bft) 100,00 %
10.01.2018 01:58 4,5 C 4,4 C 95 % 1012,7 hPa 0,0 l/m 0,2 km/h (0 Bft) NO 49 0 min 0,000 mm 0,0 UV-I 0 W/m 3,8 C 4,5 C 1,6 km/h (1 Bft) 100,00 %
10.01.2018 02:00 4,5 C 4,4 C 95 % 1012,6 hPa 0,0 l/m 3,3 km/h (1 Bft) NO 49 0 min 0,000 mm 0,0 UV-I 0 W/m 3,8 C 4,5 C 4,8 km/h (1 Bft) 100,00 %
10.01.2018 02:02 4,5 C 4,4 C 95 % 1012,6 hPa 0,0 l/m 3,6 km/h (1 Bft) NO 49 0 min 0,000 mm 0,0 UV-I 0 W/m 3,8 C 4,5 C 6,4 km/h (2 Bft) 100,00 %
10.01.2018 02:04 4,5 C 4,4 C 95 % 1012,7 hPa 0,0 l/m 5,5 km/h (1 Bft) NO 49 0 min 0,000 mm 0,0 UV-I 0 W/m 3,8 C 4,5 C 6,4 km/h (2 Bft) 100,00 %
10.01.2018 02:06 4,6 C 4,4 C 95 % 1012,7 hPa 0,0 l/m 4,8 km/h (1 Bft) NO 49 0 min 0,000 mm 0,0 UV-I 0 W/m 3,9 C 4,6 C 6,4 km/h (2 Bft) 100,00 %
10.01.2018 02:08 4,6 C 4,4 C 95 % 1012,6 hPa 0,0 l/m 4,3 km/h (1 Bft) NO 49 0 min 0,000 mm 0,0 UV-I 0 W/m 3,9 C 4,6 C 6,4 km/h (2 Bft) 98,11 %
10.01.2018 02:10 4,6 C 4,4 C 95 % 1012,6 hPa 0,0 l/m 5,2 km/h (1 Bft) NO 49 0 min 0,000 mm 0,0 UV-I 0 W/m 3,9 C 4,6 C 6,4 km/h (2 Bft) 100,00 %
10.01.2018 02:12 4,5 C 4,4 C 95 % 1012,5 hPa 0,0 l/m 5,1 km/h (1 Bft) NO 49 0 min 0,000 mm 0,0 UV-I 0 W/m 3,8 C 4,5 C 8,0 km/h (2 Bft) 100,00 %
10.01.2018 02:14 4,5 C 4,4 C 95 % 1012,6 hPa 0,0 l/m 4,3 km/h (1 Bft) NO 49 0 min 0,000 mm 0,0 UV-I 0 W/m 3,8 C 4,5 C 6,4 km/h (2 Bft) 97,92 %
10.01.2018 02:16 4,4 C 4,4 C 95 % 1012,7 hPa 0,0 l/m 2,8 km/h (1 Bft) NO 49 0 min 0,000 mm 0,0 UV-I 0 W/m 3,7 C 4,4 C 4,8 km/h (1 Bft) 100,00 %
10.01.2018 02:18 4,5 C 4,4 C 95 % 1012,7 hPa 0,0 l/m 2,5 km/h (1 Bft) NO 49 0 min 0,000 mm 0,0 UV-I 0 W/m 3,8 C 4,5 C 3,2 km/h (1 Bft) 100,00 %
10.01.2018 02:20 4,6 C 4,4 C 95 % 1012,7 hPa 0,0 l/m 3,0 km/h (1 Bft) NO 49 0 min 0,000 mm 0,0 UV-I 0 W/m 3,9 C 4,6 C 4,8 km/h (1 Bft) 97,37 %
10.01.2018 02:22 4,7 C 4,4 C 95 % 1012,8 hPa 0,0 l/m 1,4 km/h (1 Bft) NO 49 0 min 0,000 mm 0,0 UV-I 0 W/m 4,0 C 4,7 C 3,2 km/h (1 Bft) 96,00 %
10.01.2018 02:24 4,7 C 4,4 C 94 % 1012,8 hPa 0,0 l/m 0,7 km/h (0 Bft) NO 49 0 min 0,000 mm 0,0 UV-I 0 W/m 3,8 C 4,7 C 3,2 km/h (1 Bft) 98,00 %
10.01.2018 02:26 4,4 C 4,4 C 94 % 1012,8 hPa 0,0 l/m 2,7 km/h (1 Bft) NO 49 0 min 0,000 mm 0,0 UV-I 0 W/m 3,5 C 4,4 C 3,2 km/h (1 Bft) 100,00 %
10.01.2018 02:28 4,3 C 4,4 C 94 % 1012,8 hPa 0,0 l/m 2,7 km/h (1 Bft) NO 49 0 min 0,000 mm 0,0 UV-I 0 W/m 3,4 C 4,3 C 3,2 km/h (1 Bft) 100,00 %
10.01.2018 02:30 4,2 C 4,4 C 95 % 1012,9 hPa 0,0 l/m 3,6 km/h (1 Bft) NO 49 0 min 0,000 mm 0,0 UV-I 0 W/m 3,5 C 4,2 C 4,8 km/h (1 Bft) 100,00 %
10.01.2018 02:32 4,2 C 4,4 C 95 % 1012,9 hPa 0,0 l/m 4,1 km/h (1 Bft) NO 49 0 min 0,000 mm 0,0 UV-I 0 W/m 3,5 C 4,2 C 4,8 km/h (1 Bft) 100,00 %
10.01.2018 02:34 4,2 C 4,4 C 95 % 1012,9 hPa 0,0 l/m 3,6 km/h (1 Bft) NO 49 0 min 0,000 mm 0,0 UV-I 0 W/m 3,5 C 4,2 C 4,8 km/h (1 Bft) 100,00 %
10.01.2018 02:36 4,1 C 4,4 C 95 % 1012,9 hPa 0,0 l/m 2,8 km/h (1 Bft) NO 49 0 min 0,000 mm 0,0 UV-I 0 W/m 3,4 C 4,1 C 3,2 km/h (1 Bft) 100,00 %
10.01.2018 02:38 4,1 C 4,4 C 95 % 1013,0 hPa 0,0 l/m 0,3 km/h (0 Bft) NO 49 0 min 0,000 mm 0,0 UV-I 0 W/m 3,4 C 4,1 C 1,6 km/h (1 Bft) 100,00 %
10.01.2018 02:40 3,8 C 4,4 C 95 % 1013,1 hPa 0,0 l/m 0,2 km/h (0 Bft) NO 49 0 min 0,000 mm 0,0 UV-I 0 W/m 3,1 C 3,8 C 1,6 km/h (1 Bft) 96,72 %
10.01.2018 02:42 3,7 C 4,4 C 95 % 1013,3 hPa 0,0 l/m 0,4 km/h (0 Bft) NO 49 0 min 0,000 mm 0,0 UV-I 0 W/m 3,0 C 3,7 C 1,6 km/h (1 Bft) 100,00 %
10.01.2018 02:44 3,7 C 4,4 C 95 % 1013,3 hPa 0,0 l/m 1,4 km/h (1 Bft) NO 50 0 min 0,000 mm 0,0 UV-I 0 W/m 3,0 C 3,7 C 3,2 km/h (1 Bft) 100,00 %
10.01.2018 02:46 3,7 C 4,4 C 95 % 1013,4 hPa 0,0 l/m 1,4 km/h (1 Bft) NO 50 0 min 0,000 mm 0,0 UV-I 0 W/m 3,0 C 3,7 C 3,2 km/h (1 Bft) 98,11 %
10.01.2018 02:48 3,7 C 4,4 C 96 % 1013,3 hPa 0,0 l/m 0,1 km/h (0 Bft) NO 50 0 min 0,000 mm 0,0 UV-I 0 W/m 3,1 C 3,7 C 1,6 km/h (1 Bft) 97,87 %
10.01.2018 02:50 3,8 C 4,4 C 96 % 1013,4 hPa 0,0 l/m 0,7 km/h (0 Bft) NO 50 0 min 0,000 mm 0,0 UV-I 0 W/m 3,2 C 3,8 C 3,2 km/h (1 Bft) 95,74 %
10.01.2018 02:52 3,9 C 4,4 C 96 % 1013,4 hPa 0,0 l/m 0,4 km/h (0 Bft) NO 50 0 min 0,000 mm 0,0 UV-I 0 W/m 3,3 C 3,9 C 1,6 km/h (1 Bft) 97,87 %
10.01.2018 02:54 3,8 C 4,4 C 95 % 1013,5 hPa 0,0 l/m 2,6 km/h (1 Bft) NO 50 0 min 0,000 mm 0,0 UV-I 0 W/m 3,1 C 3,8 C 4,8 km/h (1 Bft) 94,00 %
10.01.2018 02:56 3,7 C 4,4 C 95 % 1013,5 hPa 0,0 l/m 3,8 km/h (1 Bft) NO 50 0 min 0,000 mm 0,0 UV-I 0 W/m 3,0 C 3,7 C 4,8 km/h (1 Bft) 97,37 %
10.01.2018 02:58 3,9 C 4,4 C 96 % 1013,5 hPa 0,0 l/m 3,4 km/h (1 Bft) NO 50 0 min 0,000 mm 0,0 UV-I 0 W/m 3,3 C 3,9 C 4,8 km/h (1 Bft) 98,21 %
10.01.2018 03:00 4,1 C 4,4 C 96 % 1013,5 hPa 0,0 l/m 0,9 km/h (0 Bft) NO 50 0 min 0,000 mm 0,0 UV-I 0 W/m 3,5 C 4,1 C 3,2 km/h (1 Bft) 97,87 %
10.01.2018 03:02 4,2 C 4,4 C 96 % 1013,5 hPa 0,0 l/m 0,1 km/h (0 Bft) NO 50 0 min 0,000 mm 0,0 UV-I 0 W/m 3,6 C 4,2 C 1,6 km/h (1 Bft) 97,37 %
10.01.2018 03:04 4,1 C 4,4 C 96 % 1013,5 hPa 0,0 l/m 0,2 km/h (0 Bft) NO 50 0 min 0,000 mm 0,0 UV-I 0 W/m 3,5 C 4,1 C 1,6 km/h (1 Bft) 96,23 %
10.01.2018 03:06 4,1 C 4,4 C 95 % 1013,5 hPa 0,0 l/m 2,5 km/h (1 Bft) NO 50 0 min 0,000 mm 0,0 UV-I 0 W/m 3,4 C 4,1 C 3,2 km/h (1 Bft) 95,74 %
10.01.2018 03:08 4,1 C 4,4 C 95 % 1013,6 hPa 0,0 l/m 3,6 km/h (1 Bft) NO 50 0 min 0,000 mm 0,0 UV-I 0 W/m 3,4 C 4,1 C 4,8 km/h (1 Bft) 94,74 %
10.01.2018 03:10 3,9 C 4,4 C 95 % 1013,5 hPa 0,0 l/m 3,0 km/h (1 Bft) NO 50 0 min 0,000 mm 0,0 UV-I 0 W/m 3,2 C 3,9 C 4,8 km/h (1 Bft) 94,34 %
10.01.2018 03:12 3,9 C 4,4 C 95 % 1013,5 hPa 0,0 l/m 3,5 km/h (1 Bft) NO 50 0 min 0,000 mm 0,0 UV-I 0 W/m 3,2 C 3,9 C 4,8 km/h (1 Bft) 94,00 %
10.01.2018 03:14 3,9 C 4,4 C 96 % 1013,6 hPa 0,0 l/m 2,9 km/h (1 Bft) NO 50 0 min 0,000 mm 0,0 UV-I 0 W/m 3,3 C 3,9 C 4,8 km/h (1 Bft) 95,12 %
10.01.2018 03:16 3,8 C 4,4 C 95 % 1013,5 hPa 0,0 l/m 1,6 km/h (1 Bft) NO 50 0 min 0,000 mm 0,0 UV-I 0 W/m 3,1 C 3,8 C 3,2 km/h (1 Bft) 92,00 %
10.01.2018 03:18 3,7 C 4,4 C 95 % 1013,4 hPa 0,0 l/m 0,4 km/h (0 Bft) NO 50 0 min 0,000 mm 0,0 UV-I 0 W/m 3,0 C 3,7 C 1,6 km/h (1 Bft) 95,74 %
10.01.2018 03:20 3,6 C 4,4 C 95 % 1013,5 hPa 0,0 l/m 0,8 km/h (0 Bft) NO 50 0 min 0,000 mm 0,0 UV-I 0 W/m 2,9 C 3,6 C 1,6 km/h (1 Bft) 91,49 %
10.01.2018 03:22 3,6 C 4,4 C 96 % 1013,5 hPa 0,0 l/m 1,3 km/h (1 Bft) NO 50 0 min 0,000 mm 0,0 UV-I 0 W/m 3,0 C 3,6 C 3,2 km/h (1 Bft) 96,00 %
10.01.2018 03:24 3,7 C 4,4 C 96 % 1013,4 hPa 0,0 l/m 2,8 km/h (1 Bft) NO 50 0 min 0,000 mm 0,0 UV-I 0 W/m 3,1 C 3,7 C 4,8 km/h (1 Bft) 95,74 %
10.01.2018 03:26 3,8 C 4,4 C 96 % 1013,4 hPa 0,0 l/m 2,8 km/h (1 Bft) NO 50 0 min 0,000 mm 0,0 UV-I 0 W/m 3,2 C 3,8 C 4,8 km/h (1 Bft) 93,75 %
10.01.2018 03:28 3,8 C 4,4 C 96 % 1013,4 hPa 0,0 l/m 0,7 km/h (0 Bft) NO 50 0 min 0,000 mm 0,0 UV-I 0 W/m 3,2 C 3,8 C 3,2 km/h (1 Bft) 94,74 %
10.01.2018 03:30 3,9 C 4,4 C 96 % 1013,3 hPa 0,0 l/m 0,1 km/h (0 Bft) NO 50 0 min 0,000 mm 0,0 UV-I 0 W/m 3,3 C 3,9 C 1,6 km/h (1 Bft) 96,23 %
10.01.2018 03:32 3,9 C 4,4 C 96 % 1013,2 hPa 0,0 l/m 0,0 km/h (0 Bft) NO 50 0 min 0,000 mm 0,0 UV-I 0 W/m 3,3 C 3,9 C 0,0 km/h (0 Bft) 95,74 %
10.01.2018 03:34 3,8 C 4,4 C 96 % 1013,1 hPa 0,0 l/m 1,9 km/h (1 Bft) NO 50 0 min 0,000 mm 0,0 UV-I 0 W/m 3,2 C 3,8 C 3,2 km/h (1 Bft) 97,37 %
10.01.2018 03:36 3,8 C 4,4 C 96 % 1013,1 hPa 0,0 l/m 2,7 km/h (1 Bft) NO 50 0 min 0,000 mm 0,0 UV-I 0 W/m 3,2 C 3,8 C 3,2 km/h (1 Bft) 90,57 %
10.01.2018 03:38 3,7 C 4,4 C 96 % 1013,0 hPa 0,0 l/m 1,7 km/h (1 Bft) NO 50 0 min 0,000 mm 0,0 UV-I 0 W/m 3,1 C 3,7 C 3,2 km/h (1 Bft) 96,00 %
10.01.2018 03:40 3,6 C 4,4 C 96 % 1013,0 hPa 0,0 l/m 0,7 km/h (0 Bft) NO 50 0 min 0,000 mm 0,0 UV-I 0 W/m 3,0 C 3,6 C 1,6 km/h (1 Bft) 97,37 %
10.01.2018 03:42 3,6 C 4,4 C 96 % 1012,9 hPa 0,0 l/m 0,8 km/h (0 Bft) NO 50 0 min 0,000 mm 0,0 UV-I 0 W/m 3,0 C 3,6 C 1,6 km/h (1 Bft) 97,87 %
10.01.2018 03:44 3,6 C 4,4 C 96 % 1012,9 hPa 0,0 l/m 3,3 km/h (1 Bft) O 88 0 min 0,000 mm 0,0 UV-I 0 W/m 3,0 C 3,6 C 4,8 km/h (1 Bft) 96,30 %
10.01.2018 03:46 3,7 C 4,4 C 96 % 1012,8 hPa 0,0 l/m 3,6 km/h (1 Bft) S 182 0 min 0,000 mm 0,0 UV-I 0 W/m 3,1 C 3,7 C 4,8 km/h (1 Bft) 97,87 %
10.01.2018 03:48 3,8 C 4,4 C 96 % 1012,8 hPa 0,0 l/m 3,4 km/h (1 Bft) S 182 0 min 0,000 mm 0,0 UV-I 0 W/m 3,2 C 3,8 C 4,8 km/h (1 Bft) 97,87 %
10.01.2018 03:50 3,8 C 4,4 C 96 % 1012,8 hPa 0,0 l/m 3,8 km/h (1 Bft) S 183 0 min 0,000 mm 0,0 UV-I 0 W/m 3,2 C 3,8 C 4,8 km/h (1 Bft) 97,87 %
10.01.2018 03:52 3,9 C 4,4 C 96 % 1012,8 hPa 0,0 l/m 4,0 km/h (1 Bft) S 183 0 min 0,000 mm 0,0 UV-I 0 W/m 3,3 C 3,9 C 4,8 km/h (1 Bft) 97,37 %
10.01.2018 03:54 3,8 C 4,4 C 96 % 1012,8 hPa 0,0 l/m 3,8 km/h (1 Bft) S 183 0 min 0,000 mm 0,0 UV-I 0 W/m 3,2 C 3,8 C 4,8 km/h (1 Bft) 98,00 %
10.01.2018 03:56 3,8 C 4,4 C 96 % 1012,7 hPa 0,0 l/m 4,1 km/h (1 Bft) S 183 0 min 0,000 mm 0,0 UV-I 0 W/m 3,2 C 3,8 C 4,8 km/h (1 Bft) 100,00 %
10.01.2018 03:58 3,8 C 4,4 C 96 % 1012,7 hPa 0,0 l/m 4,3 km/h (1 Bft) S 190 0 min 0,000 mm 0,0 UV-I 0 W/m 3,2 C 3,8 C 4,8 km/h (1 Bft) 100,00 %
10.01.2018 04:00 3,8 C 4,4 C 96 % 1012,8 hPa 0,0 l/m 4,9 km/h (1 Bft) S-SW 197 0 min 0,000 mm 0,0 UV-I 0 W/m 3,2 C 3,8 C 6,4 km/h (2 Bft) 98,11 %
10.01.2018 04:02 3,7 C 4,4 C 96 % 1012,9 hPa 0,0 l/m 3,6 km/h (1 Bft) S-SW 197 0 min 0,000 mm 0,0 UV-I 0 W/m 3,1 C 3,7 C 4,8 km/h (1 Bft) 100,00 %
10.01.2018 04:04 3,7 C 4,4 C 96 % 1012,8 hPa 0,0 l/m 4,3 km/h (1 Bft) S-SW 197 0 min 0,000 mm 0,0 UV-I 0 W/m 3,1 C 3,7 C 6,4 km/h (2 Bft) 97,37 %
10.01.2018 04:06 3,7 C 4,4 C 96 % 1012,8 hPa 0,0 l/m 3,7 km/h (1 Bft) S-SW 197 0 min 0,000 mm 0,0 UV-I 0 W/m 3,1 C 3,7 C 4,8 km/h (1 Bft) 98,00 %
10.01.2018 04:08 3,7 C 4,4 C 96 % 1012,7 hPa 0,0 l/m 4,0 km/h (1 Bft) S-SW 197 0 min 0,000 mm 0,0 UV-I 0 W/m 3,1 C 3,7 C 4,8 km/h (1 Bft) 98,11 %
10.01.2018 04:10 3,7 C 4,4 C 96 % 1012,7 hPa 0,0 l/m 3,2 km/h (1 Bft) S-SW 197 0 min 0,000 mm 0,0 UV-I 0 W/m 3,1 C 3,7 C 4,8 km/h (1 Bft) 97,87 %
10.01.2018 04:12 3,7 C 4,4 C 96 % 1012,6 hPa 0,0 l/m 1,9 km/h (1 Bft) S-SW 197 0 min 0,000 mm 0,0 UV-I 0 W/m 3,1 C 3,7 C 3,2 km/h (1 Bft) 100,00 %
10.01.2018 04:14 3,7 C 4,4 C 96 % 1012,5 hPa 0,0 l/m 2,9 km/h (1 Bft) S-SW 197 0 min 0,000 mm 0,0 UV-I 0 W/m 3,1 C 3,7 C 4,8 km/h (1 Bft) 97,14 %
10.01.2018 04:16 3,6 C 4,4 C 96 % 1012,5 hPa 0,0 l/m 0,9 km/h (0 Bft) S-SW 197 0 min 0,000 mm 0,0 UV-I 0 W/m 3,0 C 3,6 C 3,2 km/h (1 Bft) 100,00 %
10.01.2018 04:18 3,6 C 4,4 C 96 % 1012,6 hPa 0,0 l/m 0,9 km/h (0 Bft) S-SW 197 0 min 0,000 mm 0,0 UV-I 0 W/m 3,0 C 3,6 C 1,6 km/h (1 Bft) 98,21 %
10.01.2018 04:20 3,4 C 4,4 C 96 % 1012,6 hPa 0,0 l/m 0,9 km/h (0 Bft) S-SW 197 0 min 0,000 mm 0,0 UV-I 0 W/m 2,8 C 3,4 C 3,2 km/h (1 Bft) 97,87 %
10.01.2018 04:22 3,4 C 4,4 C 96 % 1012,6 hPa 0,0 l/m 0,6 km/h (0 Bft) S-SW 197 0 min 0,000 mm 0,0 UV-I 0 W/m 2,8 C 3,4 C 1,6 km/h (1 Bft) 100,00 %
10.01.2018 04:24 3,3 C 4,4 C 96 % 1012,5 hPa 0,0 l/m 0,7 km/h (0 Bft) S-SW 197 0 min 0,000 mm 0,0 UV-I 0 W/m 2,7 C 3,3 C 3,2 km/h (1 Bft) 97,37 %
10.01.2018 04:26 3,2 C 4,4 C 96 % 1012,6 hPa 0,0 l/m 1,8 km/h (1 Bft) S-SW 197 0 min 0,000 mm 0,0 UV-I 0 W/m 2,6 C 3,2 C 3,2 km/h (1 Bft) 100,00 %
10.01.2018 04:28 3,4 C 4,4 C 96 % 1012,7 hPa 0,0 l/m 2,7 km/h (1 Bft) S-SW 197 0 min 0,000 mm 0,0 UV-I 0 W/m 2,8 C 3,4 C 3,2 km/h (1 Bft) 100,00 %
10.01.2018 04:30 3,4 C 4,4 C 96 % 1012,7 hPa 0,0 l/m 1,9 km/h (1 Bft) S-SW 197 0 min 0,000 mm 0,0 UV-I 0 W/m 2,8 C 3,4 C 3,2 km/h (1 Bft) 100,00 %
10.01.2018 04:32 3,3 C 4,4 C 96 % 1012,7 hPa 0,0 l/m 2,4 km/h (1 Bft) S-SW 197 0 min 0,000 mm 0,0 UV-I 0 W/m 2,7 C 3,3 C 4,8 km/h (1 Bft) 100,00 %
10.01.2018 04:34 3,3 C 4,4 C 96 % 1012,6 hPa 0,0 l/m 4,2 km/h (1 Bft) S-SW 197 0 min 0,000 mm 0,0 UV-I 0 W/m 2,7 C 3,3 C 4,8 km/h (1 Bft) 100,00 %
10.01.2018 04:36 3,5 C 4,4 C 97 % 1012,7 hPa 0,0 l/m 3,4 km/h (1 Bft) S-SW 196 0 min 0,000 mm 0,0 UV-I 0 W/m 3,1 C 3,5 C 4,8 km/h (1 Bft) 100,00 %
10.01.2018 04:38 3,5 C 4,4 C 97 % 1012,7 hPa 0,0 l/m 2,4 km/h (1 Bft) S-SW 196 0 min 0,000 mm 0,0 UV-I 0 W/m 3,1 C 3,5 C 4,8 km/h (1 Bft) 97,56 %
10.01.2018 04:40 3,6 C 4,4 C 97 % 1012,7 hPa 0,0 l/m 1,8 km/h (1 Bft) S-SW 196 0 min 0,000 mm 0,0 UV-I 0 W/m 3,2 C 3,6 C 3,2 km/h (1 Bft) 100,00 %
10.01.2018 04:42 3,6 C 4,4 C 97 % 1012,6 hPa 0,0 l/m 0,4 km/h (0 Bft) S-SW 196 0 min 0,000 mm 0,0 UV-I 0 W/m 3,2 C 3,6 C 1,6 km/h (1 Bft) 100,00 %
10.01.2018 04:44 3,6 C 4,4 C 97 % 1012,7 hPa 0,0 l/m 2,4 km/h (1 Bft) S-SW 197 0 min 0,000 mm 0,0 UV-I 0 W/m 3,2 C 3,6 C 3,2 km/h (1 Bft) 100,00 %
10.01.2018 04:46 3,6 C 4,4 C 97 % 1012,7 hPa 0,0 l/m 3,1 km/h (1 Bft) S-SW 197 0 min 0,000 mm 0,0 UV-I 0 W/m 3,2 C 3,6 C 4,8 km/h (1 Bft) 98,00 %
10.01.2018 04:48 3,4 C 4,4 C 96 % 1012,7 hPa 0,0 l/m 3,6 km/h (1 Bft) S-SW 197 0 min 0,000 mm 0,0 UV-I 0 W/m 2,8 C 3,4 C 4,8 km/h (1 Bft) 100,00 %
10.01.2018 04:50 3,2 C 4,4 C 96 % 1012,8 hPa 0,0 l/m 4,3 km/h (1 Bft) S-SW 197 0 min 0,000 mm 0,0 UV-I 0 W/m 2,6 C 3,2 C 6,4 km/h (2 Bft) 100,00 %
10.01.2018 04:52 3,1 C 4,4 C 96 % 1012,7 hPa 0,0 l/m 2,5 km/h (1 Bft) S-SW 197 0 min 0,000 mm 0,0 UV-I 0 W/m 2,5 C 3,1 C 4,8 km/h (1 Bft) 100,00 %
10.01.2018 04:54 3,1 C 4,4 C 96 % 1012,6 hPa 0,0 l/m 1,4 km/h (1 Bft) S-SW 196 0 min 0,000 mm 0,0 UV-I 0 W/m 2,5 C 3,1 C 3,2 km/h (1 Bft) 100,00 %
10.01.2018 04:56 3,1 C 4,4 C 97 % 1012,6 hPa 0,0 l/m 1,8 km/h (1 Bft) S-SW 196 0 min 0,000 mm 0,0 UV-I 0 W/m 2,7 C 3,1 C 3,2 km/h (1 Bft) 98,00 %
10.01.2018 04:58 3,1 C 4,4 C 96 % 1012,6 hPa 0,0 l/m 1,4 km/h (1 Bft) S-SW 196 0 min 0,000 mm 0,0 UV-I 0 W/m 2,5 C 3,1 C 3,2 km/h (1 Bft) 97,87 %
10.01.2018 05:00 3,1 C 4,4 C 96 % 1012,6 hPa 0,0 l/m 2,5 km/h (1 Bft) S-SW 196 0 min 0,000 mm 0,0 UV-I 0 W/m 2,5 C 3,1 C 3,2 km/h (1 Bft) 100,00 %
10.01.2018 05:02 3,2 C 4,4 C 97 % 1012,7 hPa 0,0 l/m 2,2 km/h (1 Bft) S-SW 196 0 min 0,000 mm 0,0 UV-I 0 W/m 2,8 C 3,2 C 3,2 km/h (1 Bft) 100,00 %
10.01.2018 05:04 3,2 C 4,4 C 97 % 1012,8 hPa 0,0 l/m 1,4 km/h (1 Bft) S-SW 196 0 min 0,000 mm 0,0 UV-I 0 W/m 2,8 C 3,2 C 3,2 km/h (1 Bft) 100,00 %
10.01.2018 05:06 3,3 C 4,4 C 97 % 1012,8 hPa 0,0 l/m 0,9 km/h (0 Bft) S-SW 196 0 min 0,000 mm 0,0 UV-I 0 W/m 2,9 C 3,3 C 3,2 km/h (1 Bft) 100,00 %
10.01.2018 05:08 3,4 C 4,4 C 97 % 1012,8 hPa 0,0 l/m 2,7 km/h (1 Bft) S-SW 196 0 min 0,000 mm 0,0 UV-I 0 W/m 3,0 C 3,4 C 6,4 km/h (2 Bft) 98,53 %
10.01.2018 05:10 3,4 C 4,4 C 97 % 1012,8 hPa 0,0 l/m 3,7 km/h (1 Bft) S-SW 197 0 min 0,000 mm 0,0 UV-I 0 W/m 3,0 C 3,4 C 6,4 km/h (2 Bft) 100,00 %
10.01.2018 05:12 3,4 C 4,4 C 97 % 1012,8 hPa 0,0 l/m 5,3 km/h (1 Bft) S-SW 197 0 min 0,000 mm 0,0 UV-I 0 W/m 3,0 C 3,4 C 6,4 km/h (2 Bft) 97,87 %
10.01.2018 05:14 3,4 C 4,4 C 97 % 1012,8 hPa 0,0 l/m 4,5 km/h (1 Bft) S-SW 196 0 min 0,000 mm 0,0 UV-I 0 W/m 3,0 C 3,4 C 6,4 km/h (2 Bft) 95,74 %
10.01.2018 05:16 3,4 C 4,4 C 97 % 1012,8 hPa 0,0 l/m 4,2 km/h (1 Bft) S-SW 197 0 min 0,000 mm 0,0 UV-I 0 W/m 3,0 C 3,4 C 6,4 km/h (2 Bft) 95,74 %
10.01.2018 05:18 3,3 C 4,4 C 97 % 1012,9 hPa 0,0 l/m 2,9 km/h (1 Bft) S-SW 197 0 min 0,000 mm 0,0 UV-I 0 W/m 2,9 C 3,3 C 4,8 km/h (1 Bft) 100,00 %
10.01.2018 05:20 3,3 C 4,4 C 97 % 1012,8 hPa 0,0 l/m 1,4 km/h (1 Bft) S-SW 196 0 min 0,000 mm 0,0 UV-I 0 W/m 2,9 C 3,3 C 3,2 km/h (1 Bft) 94,00 %
10.01.2018 05:22 3,4 C 4,4 C 97 % 1012,8 hPa 0,0 l/m 3,6 km/h (1 Bft) S-SO 163 0 min 0,000 mm 0,0 UV-I 0 W/m 3,0 C 3,4 C 6,4 km/h (2 Bft) 97,56 %
10.01.2018 05:24 3,5 C 4,4 C 97 % 1012,8 hPa 0,0 l/m 2,7 km/h (1 Bft) S 179 0 min 0,000 mm 0,0 UV-I 0 W/m 3,1 C 3,5 C 6,4 km/h (2 Bft) 98,11 %
10.01.2018 05:26 3,6 C 4,4 C 97 % 1012,7 hPa 0,0 l/m 4,2 km/h (1 Bft) S-SW 205 0 min 0,000 mm 0,0 UV-I 0 W/m 3,2 C 3,6 C 6,4 km/h (2 Bft) 96,00 %
10.01.2018 05:28 3,6 C 4,4 C 97 % 1012,6 hPa 0,0 l/m 3,6 km/h (1 Bft) S-SW 209 0 min 0,000 mm 0,0 UV-I 0 W/m 3,2 C 3,6 C 6,4 km/h (2 Bft) 97,87 %
10.01.2018 05:30 3,6 C 4,4 C 97 % 1012,6 hPa 0,0 l/m 4,6 km/h (1 Bft) SW 214 0 min 0,000 mm 0,0 UV-I 0 W/m 3,2 C 3,6 C 8,0 km/h (2 Bft) 96,00 %
10.01.2018 05:32 3,6 C 4,4 C 97 % 1012,6 hPa 0,0 l/m 5,6 km/h (1 Bft) S-SW 209 0 min 0,000 mm 0,0 UV-I 0 W/m 3,2 C 3,6 C 9,7 km/h (2 Bft) 97,62 %
10.01.2018 05:34 3,5 C 4,4 C 97 % 1012,6 hPa 0,0 l/m 2,5 km/h (1 Bft) S-SW 209 0 min 0,000 mm 0,0 UV-I 0 W/m 3,1 C 3,5 C 4,8 km/h (1 Bft) 96,00 %
10.01.2018 05:36 3,5 C 4,4 C 97 % 1012,5 hPa 0,0 l/m 2,3 km/h (1 Bft) S 190 0 min 0,000 mm 0,0 UV-I 0 W/m 3,1 C 3,5 C 6,4 km/h (2 Bft) 97,56 %
10.01.2018 05:38 3,6 C 4,4 C 97 % 1012,5 hPa 0,0 l/m 4,1 km/h (1 Bft) S 171 0 min 0,000 mm 0,0 UV-I 0 W/m 3,2 C 3,6 C 6,4 km/h (2 Bft) 96,43 %
10.01.2018 05:40 3,7 C 4,4 C 97 % 1012,5 hPa 0,0 l/m 2,3 km/h (1 Bft) S 177 0 min 0,000 mm 0,0 UV-I 0 W/m 3,3 C 3,7 C 4,8 km/h (1 Bft) 97,87 %
10.01.2018 05:42 3,7 C 4,4 C 97 % 1012,5 hPa 0,0 l/m 3,8 km/h (1 Bft) S 175 0 min 0,000 mm 0,0 UV-I 0 W/m 3,3 C 3,7 C 9,7 km/h (2 Bft) 97,37 %
10.01.2018 05:44 3,8 C 4,4 C 97 % 1012,5 hPa 0,0 l/m 4,0 km/h (1 Bft) SW 219 0 min 0,000 mm 0,0 UV-I 0 W/m 3,4 C 3,8 C 6,4 km/h (2 Bft) 95,74 %
10.01.2018 05:46 3,7 C 4,4 C 97 % 1012,6 hPa 0,0 l/m 6,4 km/h (2 Bft) SW 231 0 min 0,000 mm 0,0 UV-I 0 W/m 3,3 C 3,7 C 8,0 km/h (2 Bft) 98,00 %
10.01.2018 05:48 3,7 C 4,4 C 96 % 1012,5 hPa 0,0 l/m 4,5 km/h (1 Bft) W-SW 241 0 min 0,000 mm 0,0 UV-I 0 W/m 3,1 C 3,7 C 8,0 km/h (2 Bft) 100,00 %
10.01.2018 05:50 3,6 C 4,4 C 97 % 1012,5 hPa 0,0 l/m 4,3 km/h (1 Bft) W-SW 240 0 min 0,000 mm 0,0 UV-I 0 W/m 3,2 C 3,6 C 4,8 km/h (1 Bft) 100,00 %
10.01.2018 05:52 3,5 C 4,4 C 97 % 1012,6 hPa 0,0 l/m 2,2 km/h (1 Bft) W-SW 240 0 min 0,000 mm 0,0 UV-I 0 W/m 3,1 C 3,5 C 3,2 km/h (1 Bft) 98,11 %
10.01.2018 05:54 3,4 C 4,4 C 97 % 1012,6 hPa 0,0 l/m 2,7 km/h (1 Bft) W-SW 240 0 min 0,000 mm 0,0 UV-I 0 W/m 3,0 C 3,4 C 4,8 km/h (1 Bft) 97,87 %
10.01.2018 05:56 3,3 C 4,4 C 96 % 1012,5 hPa 0,0 l/m 2,2 km/h (1 Bft) W-SW 240 0 min 0,000 mm 0,0 UV-I 0 W/m 2,7 C 3,3 C 3,2 km/h (1 Bft) 100,00 %
10.01.2018 05:58 3,3 C 4,4 C 96 % 1012,4 hPa 0,0 l/m 0,9 km/h (0 Bft) W-SW 240 0 min 0,000 mm 0,0 UV-I 0 W/m 2,7 C 3,3 C 3,2 km/h (1 Bft) 100,00 %
10.01.2018 06:00 3,3 C 4,4 C 97 % 1012,4 hPa 0,0 l/m 0,0 km/h (0 Bft) W-SW 240 0 min 0,000 mm 0,0 UV-I 0 W/m 2,9 C 3,3 C 0,0 km/h (0 Bft) 100,00 %
10.01.2018 06:02 3,3 C 4,4 C 97 % 1012,3 hPa 0,0 l/m 0,9 km/h (0 Bft) W-SW 240 0 min 0,000 mm 0,0 UV-I 0 W/m 2,9 C 3,3 C 3,2 km/h (1 Bft) 100,00 %
10.01.2018 06:04 3,4 C 4,4 C 97 % 1012,3 hPa 0,0 l/m 2,5 km/h (1 Bft) W-SW 240 0 min 0,000 mm 0,0 UV-I 0 W/m 3,0 C 3,4 C 3,2 km/h (1 Bft) 100,00 %
10.01.2018 06:06 3,3 C 4,4 C 97 % 1012,3 hPa 0,0 l/m 2,0 km/h (1 Bft) W-SW 240 0 min 0,000 mm 0,0 UV-I 0 W/m 2,9 C 3,3 C 3,2 km/h (1 Bft) 100,00 %
10.01.2018 06:08 3,3 C 4,4 C 97 % 1012,4 hPa 0,0 l/m 1,8 km/h (1 Bft) W-SW 240 0 min 0,000 mm 0,0 UV-I 0 W/m 2,9 C 3,3 C 3,2 km/h (1 Bft) 100,00 %
10.01.2018 06:10 3,5 C 4,4 C 97 % 1012,4 hPa 0,0 l/m 2,1 km/h (1 Bft) W-SW 240 0 min 0,000 mm 0,0 UV-I 0 W/m 3,1 C 3,5 C 3,2 km/h (1 Bft) 97,14 %
10.01.2018 06:13 3,4 C 4,4 C 97 % 1012,5 hPa 0,0 l/m 1,8 km/h (1 Bft) W-SW 240 0 min 0,000 mm 0,0 UV-I 0 W/m 3,0 C 3,4 C 4,8 km/h (1 Bft) 98,78 %
10.01.2018 06:14 3,3 C 4,4 C 97 % 1012,5 hPa 0,0 l/m 3,3 km/h (1 Bft) W-SW 240 0 min 0,000 mm 0,0 UV-I 0 W/m 2,9 C 3,3 C 4,8 km/h (1 Bft) 100,00 %
10.01.2018 06:16 3,4 C 4,4 C 97 % 1012,6 hPa 0,0 l/m 4,4 km/h (1 Bft) W-SW 240 0 min 0,000 mm 0,0 UV-I 0 W/m 3,0 C 3,4 C 4,8 km/h (1 Bft) 98,11 %
10.01.2018 06:18 3,4 C 4,4 C 97 % 1012,6 hPa 0,0 l/m 3,8 km/h (1 Bft) W-SW 240 0 min 0,000 mm 0,0 UV-I 0 W/m 3,0 C 3,4 C 4,8 km/h (1 Bft) 100,00 %
10.01.2018 06:20 3,4 C 4,4 C 97 % 1012,6 hPa 0,0 l/m 3,8 km/h (1 Bft) W-SW 240 0 min 0,000 mm 0,0 UV-I 0 W/m 3,0 C 3,4 C 4,8 km/h (1 Bft) 100,00 %
10.01.2018 06:23 3,4 C 4,4 C 97 % 1012,5 hPa 0,0 l/m 3,6 km/h (1 Bft) W-SW 240 0 min 0,000 mm 0,0 UV-I 0 W/m 3,0 C 3,4 C 4,8 km/h (1 Bft) 100,00 %
10.01.2018 06:24 3,4 C 4,4 C 97 % 1012,5 hPa 0,0 l/m 3,3 km/h (1 Bft) W-SW 240 0 min 0,000 mm 0,0 UV-I 0 W/m 3,0 C 3,4 C 4,8 km/h (1 Bft) 100,00 %
10.01.2018 06:26 3,4 C 4,4 C 97 % 1012,5 hPa 0,0 l/m 4,2 km/h (1 Bft) W-SW 257 0 min 0,000 mm 0,0 UV-I 0 W/m 3,0 C 3,4 C 6,4 km/h (2 Bft) 100,00 %
10.01.2018 06:28 3,6 C 4,4 C 97 % 1012,4 hPa 0,0 l/m 3,6 km/h (1 Bft) W-SW 257 0 min 0,000 mm 0,0 UV-I 0 W/m 3,2 C 3,6 C 4,8 km/h (1 Bft) 97,87 %
10.01.2018 06:30 3,6 C 4,4 C 97 % 1012,4 hPa 0,0 l/m 3,3 km/h (1 Bft) W-SW 257 0 min 0,000 mm 0,0 UV-I 0 W/m 3,2 C 3,6 C 4,8 km/h (1 Bft) 100,00 %
10.01.2018 06:33 3,6 C 4,4 C 97 % 1012,4 hPa 0,0 l/m 1,1 km/h (1 Bft) W-SW 257 0 min 0,000 mm 0,0 UV-I 0 W/m 3,2 C 3,6 C 3,2 km/h (1 Bft) 100,00 %
10.01.2018 06:34 3,6 C 4,4 C 97 % 1012,4 hPa 0,0 l/m 1,5 km/h (1 Bft) W-SW 257 0 min 0,000 mm 0,0 UV-I 0 W/m 3,2 C 3,6 C 3,2 km/h (1 Bft) 100,00 %
10.01.2018 06:36 3,6 C 4,4 C 97 % 1012,4 hPa 0,0 l/m 2,0 km/h (1 Bft) W-SW 257 0 min 0,000 mm 0,0 UV-I 0 W/m 3,2 C 3,6 C 4,8 km/h (1 Bft) 100,00 %
10.01.2018 06:38 3,6 C 4,4 C 97 % 1012,5 hPa 0,0 l/m 0,5 km/h (0 Bft) W-SW 257 0 min 0,000 mm 0,0 UV-I 0 W/m 3,2 C 3,6 C 3,2 km/h (1 Bft) 100,00 %
10.01.2018 06:40 3,6 C 4,4 C 97 % 1012,4 hPa 0,0 l/m 0,8 km/h (0 Bft) W-SW 256 0 min 0,000 mm 0,0 UV-I 0 W/m 3,2 C 3,6 C 1,6 km/h (1 Bft) 100,00 %
10.01.2018 06:42 3,6 C 4,4 C 97 % 1012,5 hPa 0,0 l/m 1,1 km/h (1 Bft) S 186 0 min 0,000 mm 0,0 UV-I 0 W/m 3,2 C 3,6 C 1,6 km/h (1 Bft) 98,00 %
10.01.2018 06:44 3,5 C 4,4 C 97 % 1012,5 hPa 0,0 l/m 1,8 km/h (1 Bft) S 186 0 min 0,000 mm 0,0 UV-I 0 W/m 3,1 C 3,5 C 3,2 km/h (1 Bft) 97,14 %
10.01.2018 06:46 3,4 C 4,4 C 97 % 1012,5 hPa 0,0 l/m 0,0 km/h (0 Bft) S 186 0 min 0,000 mm 0,0 UV-I 0 W/m 3,0 C 3,4 C 1,6 km/h (1 Bft) 94,64 %
10.01.2018 06:48 3,4 C 4,4 C 97 % 1012,5 hPa 0,0 l/m 1,0 km/h (0 Bft) S 186 0 min 0,000 mm 0,0 UV-I 0 W/m 3,0 C 3,4 C 3,2 km/h (1 Bft) 100,00 %
10.01.2018 06:50 3,5 C 4,4 C 97 % 1012,5 hPa 0,0 l/m 2,5 km/h (1 Bft) S 186 0 min 0,000 mm 0,0 UV-I 0 W/m 3,1 C 3,5 C 3,2 km/h (1 Bft) 96,00 %
10.01.2018 06:53 3,6 C 4,4 C 97 % 1012,4 hPa 0,0 l/m 1,6 km/h (1 Bft) S 186 0 min 0,000 mm 0,0 UV-I 0 W/m 3,2 C 3,6 C 3,2 km/h (1 Bft) 98,65 %
10.01.2018 06:54 3,6 C 4,4 C 97 % 1012,5 hPa 0,0 l/m 2,8 km/h (1 Bft) S 186 0 min 0,000 mm 0,0 UV-I 0 W/m 3,2 C 3,6 C 3,2 km/h (1 Bft) 95,65 %
10.01.2018 06:56 3,6 C 4,4 C 97 % 1012,6 hPa 0,0 l/m 3,8 km/h (1 Bft) S 186 0 min 0,000 mm 0,0 UV-I 0 W/m 3,2 C 3,6 C 4,8 km/h (1 Bft) 97,87 %
10.01.2018 06:58 3,6 C 4,4 C 97 % 1012,6 hPa 0,0 l/m 3,5 km/h (1 Bft) S 186 0 min 0,000 mm 0,0 UV-I 0 W/m 3,2 C 3,6 C 4,8 km/h (1 Bft) 97,87 %
10.01.2018 07:00 3,6 C 4,4 C 97 % 1012,5 hPa 0,0 l/m 3,1 km/h (1 Bft) S 186 0 min 0,000 mm 0,0 UV-I 0 W/m 3,2 C 3,6 C 4,8 km/h (1 Bft) 97,62 %
10.01.2018 07:03 3,6 C 4,4 C 97 % 1012,4 hPa 0,0 l/m 1,5 km/h (1 Bft) S 186 0 min 0,000 mm 0,0 UV-I 0 W/m 3,2 C 3,6 C 3,2 km/h (1 Bft) 96,20 %
10.01.2018 07:04 3,6 C 4,4 C 97 % 1012,4 hPa 0,0 l/m 0,0 km/h (0 Bft) S 186 0 min 0,000 mm 0,0 UV-I 0 W/m 3,2 C 3,6 C 0,0 km/h (0 Bft) 100,00 %
10.01.2018 07:05 3,6 C 4,4 C 97 % 1012,4 hPa 0,0 l/m 1,6 km/h (1 Bft) S 180 0 min 0,000 mm 0,0 UV-I 0 W/m 3,2 C 3,6 C 3,2 km/h (1 Bft) 100,00 %
10.01.2018 07:08 3,5 C 4,4 C 97 % 1012,5 hPa 0,0 l/m 2,0 km/h (1 Bft) S 186 0 min 0,000 mm 0,0 UV-I 0 W/m 3,1 C 3,5 C 3,2 km/h (1 Bft) 97,73 %
10.01.2018 07:10 3,4 C 4,4 C 97 % 1012,4 hPa 0,0 l/m 1,4 km/h (1 Bft) S 186 0 min 0,000 mm 0,0 UV-I 0 W/m 3,0 C 3,4 C 3,2 km/h (1 Bft) 97,56 %
10.01.2018 07:13 3,3 C 4,4 C 97 % 1012,5 hPa 0,0 l/m 3,6 km/h (1 Bft) S 186 0 min 0,000 mm 0,0 UV-I 0 W/m 2,9 C 3,3 C 6,4 km/h (2 Bft) 98,65 %
10.01.2018 07:14 3,3 C 4,4 C 97 % 1012,6 hPa 0,0 l/m 4,2 km/h (1 Bft) S 186 0 min 0,000 mm 0,0 UV-I 0 W/m 2,9 C 3,3 C 6,4 km/h (2 Bft) 95,65 %
10.01.2018 07:16 3,3 C 4,4 C 97 % 1012,6 hPa 0,0 l/m 3,6 km/h (1 Bft) S 186 0 min 0,000 mm 0,0 UV-I 0 W/m 2,9 C 3,3 C 4,8 km/h (1 Bft) 97,44 %
10.01.2018 07:18 3,3 C 4,4 C 97 % 1012,7 hPa 0,0 l/m 1,6 km/h (1 Bft) S 186 0 min 0,000 mm 0,0 UV-I 0 W/m 2,9 C 3,3 C 3,2 km/h (1 Bft) 98,11 %
10.01.2018 07:20 3,3 C 4,4 C 97 % 1012,7 hPa 0,0 l/m 1,5 km/h (1 Bft) S 186 0 min 0,000 mm 0,0 UV-I 0 W/m 2,9 C 3,3 C 3,2 km/h (1 Bft) 94,00 %
10.01.2018 07:23 3,4 C 4,4 C 97 % 1012,8 hPa 0,0 l/m 2,8 km/h (1 Bft) S 186 0 min 0,000 mm 0,0 UV-I 0 W/m 3,0 C 3,4 C 4,8 km/h (1 Bft) 94,52 %
10.01.2018 07:24 3,4 C 4,4 C 97 % 1012,7 hPa 0,0 l/m 3,5 km/h (1 Bft) S 186 0 min 0,000 mm 0,0 UV-I 0 W/m 3,0 C 3,4 C 4,8 km/h (1 Bft) 95,83 %
10.01.2018 07:26 3,5 C 4,4 C 97 % 1012,6 hPa 0,0 l/m 3,6 km/h (1 Bft) S 186 0 min 0,000 mm 0,0 UV-I 0 W/m 3,1 C 3,5 C 4,8 km/h (1 Bft) 95,74 %
10.01.2018 07:28 3,5 C 4,4 C 97 % 1012,6 hPa 0,0 l/m 3,3 km/h (1 Bft) S 186 0 min 0,000 mm 0,0 UV-I 0 W/m 3,1 C 3,5 C 6,4 km/h (2 Bft) 93,62 %
10.01.2018 07:30 3,6 C 4,4 C 97 % 1012,6 hPa 0,0 l/m 3,3 km/h (1 Bft) S 185 0 min 0,000 mm 0,0 UV-I 0 W/m 3,2 C 3,6 C 6,4 km/h (2 Bft) 97,37 %
10.01.2018 07:33 3,6 C 4,4 C 97 % 1012,6 hPa 0,0 l/m 2,6 km/h (1 Bft) S 185 0 min 0,000 mm 0,0 UV-I 0 W/m 3,2 C 3,6 C 4,8 km/h (1 Bft) 94,74 %
10.01.2018 07:34 3,7 C 4,4 C 97 % 1012,6 hPa 0,0 l/m 1,6 km/h (1 Bft) S 185 0 min 0,000 mm 0,0 UV-I 0 W/m 3,3 C 3,7 C 3,2 km/h (1 Bft) 91,67 %
10.01.2018 07:36 3,8 C 4,4 C 97 % 1012,7 hPa 0,0 l/m 3,9 km/h (1 Bft) S 185 0 min 0,000 mm 0,0 UV-I 0 W/m 3,4 C 3,8 C 6,4 km/h (2 Bft) 95,12 %
10.01.2018 07:38 3,8 C 4,4 C 97 % 1012,6 hPa 0,0 l/m 3,7 km/h (1 Bft) S 185 0 min 0,000 mm 0,0 UV-I 0 W/m 3,4 C 3,8 C 6,4 km/h (2 Bft) 94,00 %
10.01.2018 07:40 3,8 C 4,4 C 97 % 1012,7 hPa 0,0 l/m 1,8 km/h (1 Bft) S 185 0 min 0,000 mm 0,0 UV-I 0 W/m 3,4 C 3,8 C 4,8 km/h (1 Bft) 95,74 %
10.01.2018 07:43 3,8 C 4,4 C 97 % 1012,8 hPa 0,0 l/m 1,5 km/h (1 Bft) S 185 0 min 0,000 mm 0,0 UV-I 0 W/m 3,4 C 3,8 C 4,8 km/h (1 Bft) 94,59 %
10.01.2018 07:44 3,9 C 4,4 C 97 % 1012,8 hPa 0,0 l/m 1,5 km/h (1 Bft) S 185 0 min 0,000 mm 0,0 UV-I 0 W/m 3,5 C 3,9 C 3,2 km/h (1 Bft) 100,00 %
10.01.2018 07:46 3,9 C 4,4 C 97 % 1012,7 hPa 0,0 l/m 1,9 km/h (1 Bft) S 185 0 min 0,000 mm 0,0 UV-I 0 W/m 3,5 C 3,9 C 3,2 km/h (1 Bft) 95,74 %
10.01.2018 07:48 3,9 C 4,4 C 97 % 1012,6 hPa 0,0 l/m 1,4 km/h (1 Bft) S 185 0 min 0,000 mm 0,0 UV-I 0 W/m 3,5 C 3,9 C 3,2 km/h (1 Bft) 94,00 %
10.01.2018 07:50 3,9 C 4,4 C 97 % 1012,7 hPa 0,0 l/m 1,2 km/h (1 Bft) S 185 0 min 0,000 mm 0,0 UV-I 0 W/m 3,5 C 3,9 C 3,2 km/h (1 Bft) 93,18 %
10.01.2018 07:53 3,9 C 4,4 C 97 % 1012,7 hPa 0,0 l/m 2,2 km/h (1 Bft) S 185 0 min 0,000 mm 0,0 UV-I 3 W/m 3,5 C 3,9 C 4,8 km/h (1 Bft) 94,59 %
10.01.2018 07:54 3,9 C 4,4 C 97 % 1012,7 hPa 0,0 l/m 2,8 km/h (1 Bft) S 185 0 min 0,000 mm 0,0 UV-I 5 W/m 3,5 C 3,9 C 3,2 km/h (1 Bft) 91,30 %
10.01.2018 07:56 3,8 C 4,4 C 97 % 1012,7 hPa 0,0 l/m 3,4 km/h (1 Bft) S-SW 207 0 min 0,000 mm 0,0 UV-I 5 W/m 3,4 C 3,8 C 6,4 km/h (2 Bft) 98,00 %
10.01.2018 07:58 3,9 C 4,4 C 97 % 1012,7 hPa 0,0 l/m 3,5 km/h (1 Bft) S-SW 207 0 min 0,000 mm 0,0 UV-I 5 W/m 3,5 C 3,9 C 4,8 km/h (1 Bft) 100,00 %
10.01.2018 08:00 3,8 C 4,4 C 97 % 1012,7 hPa 0,0 l/m 3,0 km/h (1 Bft) S-SW 197 0 min 0,000 mm 0,0 UV-I 5 W/m 3,4 C 3,8 C 4,8 km/h (1 Bft) 100,00 %
10.01.2018 08:02 3,8 C 4,4 C 97 % 1012,7 hPa 0,0 l/m 1,9 km/h (1 Bft) S-SW 197 0 min 0,000 mm 0,0 UV-I 6 W/m 3,4 C 3,8 C 3,2 km/h (1 Bft) 100,00 %
10.01.2018 08:04 3,7 C 4,4 C 97 % 1012,6 hPa 0,0 l/m 3,1 km/h (1 Bft) S-SW 197 0 min 0,000 mm 0,0 UV-I 7 W/m 3,3 C 3,7 C 4,8 km/h (1 Bft) 97,56 %
10.01.2018 08:06 3,7 C 4,4 C 97 % 1012,6 hPa 0,0 l/m 2,1 km/h (1 Bft) S-SW 197 0 min 0,000 mm 0,0 UV-I 7 W/m 3,3 C 3,7 C 3,2 km/h (1 Bft) 98,11 %
10.01.2018 08:08 3,7 C 4,4 C 96 % 1012,6 hPa 0,0 l/m 1,7 km/h (1 Bft) S-SW 197 0 min 0,000 mm 0,0 UV-I 8 W/m 3,1 C 3,7 C 3,2 km/h (1 Bft) 97,87 %
10.01.2018 08:10 3,7 C 4,4 C 96 % 1012,5 hPa 0,0 l/m 1,2 km/h (1 Bft) S-SW 197 0 min 0,000 mm 0,0 UV-I 9 W/m 3,1 C 3,7 C 1,6 km/h (1 Bft) 100,00 %
10.01.2018 08:12 3,6 C 4,4 C 96 % 1012,5 hPa 0,0 l/m 1,7 km/h (1 Bft) S-SW 197 0 min 0,000 mm 0,0 UV-I 10 W/m 3,0 C 3,6 C 3,2 km/h (1 Bft) 100,00 %
10.01.2018 08:14 3,5 C 4,4 C 96 % 1012,4 hPa 0,0 l/m 2,8 km/h (1 Bft) S-SW 197 0 min 0,000 mm 0,0 UV-I 12 W/m 2,9 C 3,5 C 3,2 km/h (1 Bft) 100,00 %
10.01.2018 08:16 3,4 C 4,4 C 97 % 1012,4 hPa 0,0 l/m 2,4 km/h (1 Bft) S-SW 197 0 min 0,000 mm 0,0 UV-I 13 W/m 3,0 C 3,4 C 4,8 km/h (1 Bft) 96,00 %
10.01.2018 08:18 3,4 C 4,4 C 97 % 1012,4 hPa 0,0 l/m 3,0 km/h (1 Bft) S-SW 197 0 min 0,000 mm 0,0 UV-I 15 W/m 3,0 C 3,4 C 4,8 km/h (1 Bft) 100,00 %
10.01.2018 08:20 3,4 C 4,4 C 97 % 1012,4 hPa 0,0 l/m 3,0 km/h (1 Bft) SW 222 0 min 0,000 mm 0,0 UV-I 16 W/m 3,0 C 3,4 C 4,8 km/h (1 Bft) 100,00 %
10.01.2018 08:22 3,4 C 4,4 C 97 % 1012,3 hPa 0,0 l/m 2,9 km/h (1 Bft) SW 222 0 min 0,000 mm 0,0 UV-I 18 W/m 3,0 C 3,4 C 4,8 km/h (1 Bft) 100,00 %
10.01.2018 08:24 3,5 C 4,4 C 97 % 1012,3 hPa 0,0 l/m 3,4 km/h (1 Bft) SW 225 0 min 0,000 mm 0,0 UV-I 19 W/m 3,1 C 3,5 C 4,8 km/h (1 Bft) 100,00 %
10.01.2018 08:26 3,5 C 4,4 C 97 % 1012,4 hPa 0,0 l/m 2,5 km/h (1 Bft) SW 225 0 min 0,000 mm 0,0 UV-I 21 W/m 3,1 C 3,5 C 4,8 km/h (1 Bft) 100,00 %
10.01.2018 08:28 3,6 C 4,4 C 97 % 1012,4 hPa 0,0 l/m 0,8 km/h (0 Bft) SW 225 0 min 0,000 mm 0,0 UV-I 22 W/m 3,2 C 3,6 C 1,6 km/h (1 Bft) 100,00 %
10.01.2018 08:30 3,5 C 4,4 C 97 % 1012,4 hPa 0,0 l/m 0,6 km/h (0 Bft) SW 225 0 min 0,000 mm 0,0 UV-I 24 W/m 3,1 C 3,5 C 1,6 km/h (1 Bft) 100,00 %
10.01.2018 08:32 3,5 C 4,4 C 97 % 1012,3 hPa 0,0 l/m 0,0 km/h (0 Bft) SW 225 0 min 0,000 mm 0,0 UV-I 25 W/m 3,1 C 3,5 C 1,6 km/h (1 Bft) 100,00 %
10.01.2018 08:34 3,5 C 4,4 C 97 % 1012,3 hPa 0,0 l/m 0,0 km/h (0 Bft) SW 225 0 min 0,000 mm 0,0 UV-I 26 W/m 3,1 C 3,5 C 1,6 km/h (1 Bft) 100,00 %
10.01.2018 08:36 3,6 C 4,4 C 97 % 1012,3 hPa 0,0 l/m 0,0 km/h (0 Bft) SW 225 0 min 0,000 mm 0,0 UV-I 28 W/m 3,2 C 3,6 C 0,0 km/h (0 Bft) 100,00 %
10.01.2018 08:38 3,6 C 4,4 C 97 % 1012,3 hPa 0,0 l/m 0,2 km/h (0 Bft) SW 225 0 min 0,000 mm 0,0 UV-I 29 W/m 3,2 C 3,6 C 1,6 km/h (1 Bft) 100,00 %
10.01.2018 08:40 3,7 C 4,4 C 97 % 1012,3 hPa 0,0 l/m 0,0 km/h (0 Bft) SW 225 0 min 0,000 mm 0,0 UV-I 31 W/m 3,3 C 3,7 C 0,0 km/h (0 Bft) 100,00 %
10.01.2018 08:42 3,7 C 4,4 C 97 % 1012,2 hPa 0,0 l/m 0,7 km/h (0 Bft) SW 225 0 min 0,000 mm 0,0 UV-I 35 W/m 3,3 C 3,7 C 1,6 km/h (1 Bft) 97,87 %
10.01.2018 08:44 3,7 C 4,4 C 97 % 1012,3 hPa 0,0 l/m 0,0 km/h (0 Bft) SW 225 0 min 0,000 mm 0,0 UV-I 42 W/m 3,3 C 3,7 C 0,0 km/h (0 Bft) 97,87 %
10.01.2018 08:46 3,7 C 4,4 C 97 % 1012,3 hPa 0,0 l/m 0,2 km/h (0 Bft) SW 225 0 min 0,000 mm 0,0 UV-I 50 W/m 3,3 C 3,7 C 1,6 km/h (1 Bft) 100,00 %
10.01.2018 08:48 3,7 C 4,4 C 97 % 1012,4 hPa 0,0 l/m 0,1 km/h (0 Bft) SW 225 0 min 0,000 mm 0,0 UV-I 56 W/m 3,3 C 3,7 C 1,6 km/h (1 Bft) 100,00 %
10.01.2018 08:50 3,8 C 4,4 C 97 % 1012,4 hPa 0,0 l/m 0,5 km/h (0 Bft) SW 225 0 min 0,000 mm 0,0 UV-I 58 W/m 3,4 C 3,8 C 1,6 km/h (1 Bft) 98,00 %
10.01.2018 08:52 3,8 C 4,4 C 97 % 1012,5 hPa 0,0 l/m 2,0 km/h (1 Bft) SW 225 0 min 0,000 mm 0,0 UV-I 60 W/m 3,4 C 3,8 C 3,2 km/h (1 Bft) 100,00 %
10.01.2018 08:54 3,8 C 4,4 C 97 % 1012,6 hPa 0,0 l/m 2,6 km/h (1 Bft) SW 225 0 min 0,000 mm 0,0 UV-I 61 W/m 3,4 C 3,8 C 4,8 km/h (1 Bft) 97,87 %
10.01.2018 08:56 3,8 C 4,4 C 97 % 1012,6 hPa 0,0 l/m 3,4 km/h (1 Bft) SW 224 0 min 0,000 mm 0,0 UV-I 57 W/m 3,4 C 3,8 C 4,8 km/h (1 Bft) 100,00 %
10.01.2018 08:58 3,8 C 4,4 C 97 % 1012,6 hPa 0,0 l/m 3,5 km/h (1 Bft) NO 51 0 min 0,000 mm 0,0 UV-I 53 W/m 3,4 C 3,8 C 4,8 km/h (1 Bft) 100,00 %
10.01.2018 09:00 3,8 C 4,4 C 97 % 1012,6 hPa 0,0 l/m 2,9 km/h (1 Bft) NO 51 0 min 0,000 mm 0,0 UV-I 54 W/m 3,4 C 3,8 C 3,2 km/h (1 Bft) 97,37 %
10.01.2018 09:02 3,8 C 4,4 C 97 % 1012,5 hPa 0,0 l/m 1,5 km/h (1 Bft) NO 51 0 min 0,000 mm 0,0 UV-I 62 W/m 3,4 C 3,8 C 3,2 km/h (1 Bft) 100,00 %
10.01.2018 09:04 3,9 C 4,4 C 97 % 1012,5 hPa 0,0 l/m 0,8 km/h (0 Bft) NO 51 0 min 0,000 mm 0,0 UV-I 74 W/m 3,5 C 3,9 C 1,6 km/h (1 Bft) 98,00 %
10.01.2018 09:06 3,9 C 4,4 C 97 % 1012,4 hPa 0,0 l/m 0,0 km/h (0 Bft) NO 51 0 min 0,000 mm 0,0 UV-I 83 W/m 3,5 C 3,9 C 0,0 km/h (0 Bft) 100,00 %
10.01.2018 09:08 4,0 C 4,4 C 97 % 1012,5 hPa 0,0 l/m 0,0 km/h (0 Bft) NO 51 0 min 0,000 mm 0,0 UV-I 84 W/m 3,6 C 4,0 C 0,0 km/h (0 Bft) 100,00 %
10.01.2018 09:10 3,9 C 4,4 C 97 % 1012,6 hPa 0,0 l/m 0,0 km/h (0 Bft) NO 51 0 min 0,000 mm 0,0 UV-I 75 W/m 3,5 C 3,9 C 0,0 km/h (0 Bft) 100,00 %
10.01.2018 09:12 3,9 C 4,4 C 96 % 1012,8 hPa 0,0 l/m 0,2 km/h (0 Bft) NO 51 0 min 0,000 mm 0,0 UV-I 66 W/m 3,3 C 3,9 C 1,6 km/h (1 Bft) 98,00 %
10.01.2018 09:14 4,0 C 4,4 C 96 % 1012,9 hPa 0,0 l/m 0,2 km/h (0 Bft) NO 51 0 min 0,000 mm 0,0 UV-I 61 W/m 3,4 C 4,0 C 1,6 km/h (1 Bft) 100,00 %
10.01.2018 09:16 4,1 C 4,4 C 96 % 1012,9 hPa 0,0 l/m 0,8 km/h (0 Bft) SO 125 0 min 0,000 mm 0,0 UV-I 59 W/m 3,5 C 4,1 C 3,2 km/h (1 Bft) 97,56 %
10.01.2018 09:18 4,1 C 4,4 C 97 % 1012,7 hPa 0,0 l/m 0,2 km/h (0 Bft) SO 125 0 min 0,000 mm 0,0 UV-I 60 W/m 3,7 C 4,1 C 1,6 km/h (1 Bft) 100,00 %
10.01.2018 09:20 4,1 C 4,4 C 97 % 1012,7 hPa 0,0 l/m 0,0 km/h (0 Bft) SO 125 0 min 0,000 mm 0,0 UV-I 62 W/m 3,7 C 4,1 C 0,0 km/h (0 Bft) 100,00 %
10.01.2018 09:22 4,1 C 4,4 C 96 % 1012,7 hPa 0,0 l/m 0,7 km/h (0 Bft) SO 125 0 min 0,000 mm 0,0 UV-I 59 W/m 3,5 C 4,1 C 3,2 km/h (1 Bft) 100,00 %
10.01.2018 09:24 4,1 C 4,4 C 96 % 1012,8 hPa 0,0 l/m 1,5 km/h (1 Bft) SO 125 0 min 0,000 mm 0,0 UV-I 55 W/m 3,5 C 4,1 C 3,2 km/h (1 Bft) 97,37 %
10.01.2018 09:26 4,1 C 4,4 C 96 % 1012,9 hPa 0,0 l/m 1,6 km/h (1 Bft) SO 125 0 min 0,000 mm 0,0 UV-I 53 W/m 3,5 C 4,1 C 3,2 km/h (1 Bft) 97,87 %
10.01.2018 09:28 4,2 C 4,4 C 96 % 1012,9 hPa 0,0 l/m 2,1 km/h (1 Bft) SO 125 0 min 0,000 mm 0,0 UV-I 51 W/m 3,6 C 4,2 C 3,2 km/h (1 Bft) 98,00 %
10.01.2018 09:30 4,2 C 4,4 C 96 % 1012,9 hPa 0,0 l/m 1,5 km/h (1 Bft) SO 125 0 min 0,000 mm 0,0 UV-I 47 W/m 3,6 C 4,2 C 3,2 km/h (1 Bft) 98,11 %
10.01.2018 09:32 4,2 C 4,4 C 96 % 1013,1 hPa 0,0 l/m 0,1 km/h (0 Bft) SO 125 0 min 0,000 mm 0,0 UV-I 45 W/m 3,6 C 4,2 C 1,6 km/h (1 Bft) 97,87 %
10.01.2018 09:34 4,2 C 4,4 C 96 % 1013,1 hPa 0,0 l/m 1,2 km/h (1 Bft) SO 125 0 min 0,000 mm 0,0 UV-I 44 W/m 3,6 C 4,2 C 3,2 km/h (1 Bft) 95,74 %
10.01.2018 09:36 4,2 C 4,4 C 96 % 1013,1 hPa 0,0 l/m 0,3 km/h (0 Bft) SO 125 0 min 0,000 mm 0,0 UV-I 44 W/m 3,6 C 4,2 C 3,2 km/h (1 Bft) 97,37 %
10.01.2018 09:38 4,2 C 4,4 C 96 % 1013,2 hPa 0,0 l/m 0,2 km/h (0 Bft) SO 125 0 min 0,000 mm 0,0 UV-I 41 W/m 3,6 C 4,2 C 1,6 km/h (1 Bft) 96,00 %
10.01.2018 09:40 4,2 C 4,4 C 97 % 1013,3 hPa 0,0 l/m 2,0 km/h (1 Bft) SO 134 0 min 0,000 mm 0,0 UV-I 40 W/m 3,8 C 4,2 C 3,2 km/h (1 Bft) 97,92 %
10.01.2018 09:42 4,2 C 4,4 C 96 % 1013,2 hPa 0,0 l/m 2,0 km/h (1 Bft) SO 134 0 min 0,000 mm 0,0 UV-I 43 W/m 3,6 C 4,2 C 3,2 km/h (1 Bft) 97,87 %
10.01.2018 09:44 4,3 C 4,4 C 96 % 1013,2 hPa 0,0 l/m 0,1 km/h (0 Bft) SO 134 0 min 0,000 mm 0,0 UV-I 48 W/m 3,7 C 4,3 C 1,6 km/h (1 Bft) 97,56 %
10.01.2018 09:46 4,2 C 4,4 C 96 % 1013,2 hPa 0,0 l/m 0,0 km/h (0 Bft) SO 134 0 min 0,000 mm 0,0 UV-I 49 W/m 3,6 C 4,2 C 1,6 km/h (1 Bft) 98,00 %
10.01.2018 09:48 4,3 C 4,4 C 96 % 1013,3 hPa 0,0 l/m 1,1 km/h (1 Bft) SO 134 0 min 0,000 mm 0,0 UV-I 47 W/m 3,7 C 4,3 C 1,6 km/h (1 Bft) 97,87 %
10.01.2018 09:50 4,2 C 4,4 C 96 % 1013,3 hPa 0,0 l/m 1,6 km/h (1 Bft) SO 134 0 min 0,000 mm 0,0 UV-I 46 W/m 3,6 C 4,2 C 3,2 km/h (1 Bft) 98,00 %
10.01.2018 09:52 4,2 C 4,4 C 96 % 1013,2 hPa 0,0 l/m 1,0 km/h (0 Bft) SO 134 0 min 0,000 mm 0,0 UV-I 46 W/m 3,6 C 4,2 C 3,2 km/h (1 Bft) 97,92 %
10.01.2018 09:54 4,3 C 4,4 C 96 % 1013,2 hPa 0,0 l/m 0,8 km/h (0 Bft) SO 134 0 min 0,000 mm 0,0 UV-I 48 W/m 3,7 C 4,3 C 3,2 km/h (1 Bft) 95,74 %
10.01.2018 09:56 4,3 C 4,4 C 96 % 1013,2 hPa 0,0 l/m 2,0 km/h (1 Bft) SO 134 0 min 0,000 mm 0,0 UV-I 52 W/m 3,7 C 4,3 C 3,2 km/h (1 Bft) 100,00 %
10.01.2018 09:58 4,3 C 4,4 C 96 % 1013,3 hPa 0,0 l/m 2,5 km/h (1 Bft) SO 134 0 min 0,000 mm 0,0 UV-I 54 W/m 3,7 C 4,3 C 3,2 km/h (1 Bft) 96,00 %
10.01.2018 10:00 4,3 C 4,4 C 96 % 1013,3 hPa 0,0 l/m 1,4 km/h (1 Bft) SO 134 0 min 0,025 mm 0,0 UV-I 50 W/m 3,7 C 4,3 C 3,2 km/h (1 Bft) 100,00 %
10.01.2018 10:02 4,3 C 4,4 C 96 % 1013,3 hPa 0,0 l/m 2,4 km/h (1 Bft) SO 134 0 min 0,000 mm 0,0 UV-I 47 W/m 3,7 C 4,3 C 3,2 km/h (1 Bft) 100,00 %
10.01.2018 10:04 4,3 C 4,4 C 96 % 1013,3 hPa 0,0 l/m 2,1 km/h (1 Bft) SO 134 0 min 0,000 mm 0,0 UV-I 46 W/m 3,7 C 4,3 C 3,2 km/h (1 Bft) 100,00 %
10.01.2018 10:06 4,3 C 4,4 C 96 % 1013,3 hPa 0,0 l/m 0,5 km/h (0 Bft) SO 134 0 min 0,000 mm 0,0 UV-I 44 W/m 3,7 C 4,3 C 3,2 km/h (1 Bft) 100,00 %
10.01.2018 10:08 4,3 C 4,4 C 96 % 1013,3 hPa 0,0 l/m 0,2 km/h (0 Bft) SO 134 0 min 0,000 mm 0,0 UV-I 44 W/m 3,7 C 4,3 C 1,6 km/h (1 Bft) 100,00 %
10.01.2018 10:10 4,3 C 4,4 C 96 % 1013,3 hPa 0,0 l/m 0,0 km/h (0 Bft) SO 134 0 min 0,000 mm 0,0 UV-I 44 W/m 3,7 C 4,3 C 0,0 km/h (0 Bft) 97,87 %
10.01.2018 10:12 4,3 C 4,4 C 96 % 1013,4 hPa 0,0 l/m 0,0 km/h (0 Bft) SO 134 0 min 0,000 mm 0,0 UV-I 43 W/m 3,7 C 4,3 C 1,6 km/h (1 Bft) 100,00 %
10.01.2018 10:14 4,3 C 4,4 C 96 % 1013,4 hPa 0,0 l/m 0,0 km/h (0 Bft) SO 134 0 min 0,000 mm 0,0 UV-I 41 W/m 3,7 C 4,3 C 0,0 km/h (0 Bft) 100,00 %
10.01.2018 10:16 4,3 C 4,4 C 96 % 1013,4 hPa 0,0 l/m 1,0 km/h (0 Bft) SO 134 0 min 0,000 mm 0,0 UV-I 40 W/m 3,7 C 4,3 C 3,2 km/h (1 Bft) 100,00 %
10.01.2018 10:18 4,4 C 4,4 C 96 % 1013,4 hPa 0,0 l/m 1,2 km/h (1 Bft) SO 134 0 min 0,000 mm 0,0 UV-I 39 W/m 3,8 C 4,4 C 3,2 km/h (1 Bft) 97,87 %
10.01.2018 10:20 4,4 C 4,4 C 96 % 1013,3 hPa 0,0 l/m 0,3 km/h (0 Bft) SO 134 0 min 0,000 mm 0,0 UV-I 40 W/m 3,8 C 4,4 C 1,6 km/h (1 Bft) 97,87 %
10.01.2018 10:22 4,4 C 4,4 C 96 % 1013,3 hPa 0,0 l/m 0,0 km/h (0 Bft) SO 134 0 min 0,000 mm 0,0 UV-I 40 W/m 3,8 C 4,4 C 0,0 km/h (0 Bft) 100,00 %
10.01.2018 10:24 4,4 C 5,0 C 96 % 1013,3 hPa 0,0 l/m 0,2 km/h (0 Bft) SO 134 0 min 0,000 mm 0,0 UV-I 40 W/m 3,8 C 4,4 C 1,6 km/h (1 Bft) 100,00 %
10.01.2018 10:26 4,4 C 4,4 C 96 % 1013,3 hPa 0,0 l/m 0,0 km/h (0 Bft) SO 134 0 min 0,000 mm 0,0 UV-I 41 W/m 3,8 C 4,4 C 0,0 km/h (0 Bft) 95,74 %
10.01.2018 10:28 4,4 C 5,0 C 96 % 1013,3 hPa 0,0 l/m 0,5 km/h (0 Bft) SO 134 0 min 0,000 mm 0,0 UV-I 44 W/m 3,8 C 4,4 C 1,6 km/h (1 Bft) 100,00 %
10.01.2018 10:30 4,4 C 4,4 C 96 % 1013,3 hPa 0,0 l/m 0,1 km/h (0 Bft) SO 134 0 min 0,000 mm 0,0 UV-I 46 W/m 3,8 C 4,4 C 1,6 km/h (1 Bft) 100,00 %
10.01.2018 10:32 4,4 C 4,4 C 96 % 1013,4 hPa 0,0 l/m 0,0 km/h (0 Bft) SO 134 0 min 0,000 mm 0,0 UV-I 46 W/m 3,8 C 4,4 C 0,0 km/h (0 Bft) 100,00 %
10.01.2018 10:34 4,5 C 4,4 C 96 % 1013,3 hPa 0,0 l/m 0,0 km/h (0 Bft) SO 134 0 min 0,000 mm 0,0 UV-I 48 W/m 3,9 C 4,5 C 1,6 km/h (1 Bft) 100,00 %
10.01.2018 10:36 4,5 C 5,0 C 96 % 1013,4 hPa 0,0 l/m 0,0 km/h (0 Bft) SO 134 0 min 0,000 mm 0,0 UV-I 51 W/m 3,9 C 4,5 C 0,0 km/h (0 Bft) 100,00 %
10.01.2018 10:38 4,5 C 4,4 C 96 % 1013,4 hPa 0,0 l/m 0,0 km/h (0 Bft) SO 134 0 min 0,000 mm 0,0 UV-I 54 W/m 3,9 C 4,5 C 0,0 km/h (0 Bft) 100,00 %
10.01.2018 10:40 4,5 C 4,4 C 96 % 1013,3 hPa 0,0 l/m 0,0 km/h (0 Bft) SO 134 0 min 0,000 mm 0,0 UV-I 56 W/m 3,9 C 4,5 C 0,0 km/h (0 Bft) 100,00 %
10.01.2018 10:42 4,5 C 5,0 C 96 % 1013,3 hPa 0,0 l/m 0,0 km/h (0 Bft) SO 134 0 min 0,000 mm 0,0 UV-I 58 W/m 3,9 C 4,5 C 0,0 km/h (0 Bft) 100,00 %
10.01.2018 10:44 4,6 C 5,0 C 96 % 1013,3 hPa 0,0 l/m 0,0 km/h (0 Bft) SO 134 0 min 0,000 mm 0,0 UV-I 60 W/m 4,0 C 4,6 C 1,6 km/h (1 Bft) 100,00 %
10.01.2018 10:46 4,6 C 4,4 C 96 % 1013,2 hPa 0,0 l/m 0,4 km/h (0 Bft) SO 134 0 min 0,000 mm 0,0 UV-I 62 W/m 4,0 C 4,6 C 1,6 km/h (1 Bft) 97,37 %
10.01.2018 10:48 4,6 C 4,4 C 96 % 1013,2 hPa 0,0 l/m 0,0 km/h (0 Bft) SO 134 0 min 0,000 mm 0,0 UV-I 63 W/m 4,0 C 4,6 C 0,0 km/h (0 Bft) 100,00 %
10.01.2018 10:50 4,6 C 4,4 C 96 % 1013,2 hPa 0,0 l/m 0,0 km/h (0 Bft) SO 134 0 min 0,000 mm 0,0 UV-I 64 W/m 4,0 C 4,6 C 1,6 km/h (1 Bft) 100,00 %
10.01.2018 10:52 4,7 C 5,0 C 96 % 1013,2 hPa 0,0 l/m 0,0 km/h (0 Bft) SO 134 0 min 0,000 mm 0,0 UV-I 65 W/m 4,1 C 4,7 C 0,0 km/h (0 Bft) 100,00 %
10.01.2018 10:54 4,7 C 4,4 C 96 % 1013,1 hPa 0,0 l/m 0,0 km/h (0 Bft) SO 134 0 min 0,000 mm 0,0 UV-I 65 W/m 4,1 C 4,7 C 0,0 km/h (0 Bft) 100,00 %
10.01.2018 10:56 4,7 C 5,0 C 96 % 1013,1 hPa 0,0 l/m 0,6 km/h (0 Bft) SO 134 0 min 0,000 mm 0,0 UV-I 65 W/m 4,1 C 4,7 C 1,6 km/h (1 Bft) 98,11 %
10.01.2018 10:58 4,8 C 5,0 C 96 % 1013,1 hPa 0,0 l/m 0,8 km/h (0 Bft) SO 134 0 min 0,000 mm 0,0 UV-I 66 W/m 4,2 C 4,8 C 1,6 km/h (1 Bft) 97,87 %
10.01.2018 11:00 4,8 C 5,0 C 96 % 1013,1 hPa 0,0 l/m 0,0 km/h (0 Bft) SO 134 0 min 0,026 mm 0,0 UV-I 67 W/m 4,2 C 4,8 C 0,0 km/h (0 Bft) 97,56 %
10.01.2018 11:02 4,8 C 4,4 C 96 % 1013,1 hPa 0,0 l/m 0,0 km/h (0 Bft) SO 134 0 min 0,000 mm 0,0 UV-I 68 W/m 4,2 C 4,8 C 0,0 km/h (0 Bft) 95,74 %
10.01.2018 11:04 4,8 C 4,4 C 96 % 1013,1 hPa 0,0 l/m 0,0 km/h (0 Bft) SO 134 0 min 0,000 mm 0,0 UV-I 69 W/m 4,2 C 4,8 C 0,0 km/h (0 Bft) 98,00 %
10.01.2018 11:06 4,8 C 5,0 C 96 % 1013,1 hPa 0,0 l/m 0,0 km/h (0 Bft) SO 134 0 min 0,000 mm 0,0 UV-I 70 W/m 4,2 C 4,8 C 0,0 km/h (0 Bft) 95,74 %
10.01.2018 11:08 4,9 C 4,4 C 96 % 1013,1 hPa 0,0 l/m 0,0 km/h (0 Bft) SO 134 0 min 0,000 mm 0,0 UV-I 71 W/m 4,3 C 4,9 C 0,0 km/h (0 Bft) 98,00 %
10.01.2018 11:10 4,9 C 4,4 C 96 % 1013,0 hPa 0,0 l/m 0,0 km/h (0 Bft) SO 134 0 min 0,000 mm 0,0 UV-I 74 W/m 4,3 C 4,9 C 0,0 km/h (0 Bft) 97,87 %
10.01.2018 11:12 4,9 C 4,4 C 96 % 1013,0 hPa 0,0 l/m 0,0 km/h (0 Bft) SO 134 0 min 0,000 mm 0,0 UV-I 77 W/m 4,3 C 4,9 C 0,0 km/h (0 Bft) 97,22 %
10.01.2018 11:14 5,0 C 4,4 C 95 % 1013,0 hPa 0,0 l/m 0,0 km/h (0 Bft) SO 134 0 min 0,000 mm 0,0 UV-I 79 W/m 4,3 C 5,0 C 0,0 km/h (0 Bft) 98,04 %
10.01.2018 11:16 5,1 C 5,0 C 95 % 1013,0 hPa 0,0 l/m 0,0 km/h (0 Bft) SO 134 0 min 0,000 mm 0,0 UV-I 83 W/m 4,4 C 5,1 C 0,0 km/h (0 Bft) 98,00 %
10.01.2018 11:18 5,1 C 5,0 C 95 % 1012,9 hPa 0,0 l/m 0,0 km/h (0 Bft) SO 134 0 min 0,000 mm 0,0 UV-I 86 W/m 4,4 C 5,1 C 0,0 km/h (0 Bft) 97,87 %
10.01.2018 11:20 5,1 C 4,4 C 95 % 1013,0 hPa 0,0 l/m 0,0 km/h (0 Bft) SO 134 0 min 0,000 mm 0,0 UV-I 89 W/m 4,4 C 5,1 C 0,0 km/h (0 Bft) 98,00 %
10.01.2018 11:22 5,2 C 4,4 C 96 % 1012,9 hPa 0,0 l/m 0,0 km/h (0 Bft) SO 134 0 min 0,000 mm 0,0 UV-I 91 W/m 4,6 C 5,2 C 0,0 km/h (0 Bft) 97,37 %
10.01.2018 11:24 5,3 C 4,4 C 95 % 1012,9 hPa 0,0 l/m 0,0 km/h (0 Bft) SO 134 0 min 0,000 mm 0,0 UV-I 94 W/m 4,6 C 5,3 C 0,0 km/h (0 Bft) 92,00 %
10.01.2018 11:26 5,3 C 5,0 C 95 % 1012,8 hPa 0,0 l/m 0,0 km/h (0 Bft) SO 134 0 min 0,000 mm 0,0 UV-I 97 W/m 4,6 C 5,3 C 0,0 km/h (0 Bft) 96,00 %
10.01.2018 11:28 5,3 C 5,0 C 95 % 1012,8 hPa 0,0 l/m 0,0 km/h (0 Bft) SO 134 0 min 0,000 mm 0,0 UV-I 101 W/m 4,6 C 5,3 C 0,0 km/h (0 Bft) 95,74 %
10.01.2018 11:30 5,3 C 5,0 C 95 % 1012,8 hPa 0,0 l/m 0,0 km/h (0 Bft) SO 134 0 min 0,000 mm 0,0 UV-I 107 W/m 4,6 C 5,3 C 0,0 km/h (0 Bft) 93,62 %
10.01.2018 11:32 5,3 C 4,4 C 95 % 1012,8 hPa 0,0 l/m 0,0 km/h (0 Bft) SO 134 0 min 0,000 mm 0,0 UV-I 116 W/m 4,6 C 5,3 C 0,0 km/h (0 Bft) 93,62 %
10.01.2018 11:34 5,4 C 5,0 C 95 % 1012,7 hPa 0,0 l/m 0,0 km/h (0 Bft) SO 134 0 min 0,000 mm 0,0 UV-I 127 W/m 4,7 C 5,4 C 0,0 km/h (0 Bft) 93,62 %
10.01.2018 11:36 5,4 C 5,0 C 95 % 1012,7 hPa 0,0 l/m 0,0 km/h (0 Bft) SO 134 0 min 0,000 mm 0,0 UV-I 138 W/m 4,7 C 5,4 C 0,0 km/h (0 Bft) 94,74 %
10.01.2018 11:38 5,4 C 5,0 C 94 % 1012,7 hPa 0,0 l/m 0,0 km/h (0 Bft) SO 134 0 min 0,000 mm 0,0 UV-I 152 W/m 4,5 C 5,4 C 0,0 km/h (0 Bft) 96,00 %
10.01.2018 11:40 5,4 C 5,0 C 95 % 1012,7 hPa 0,0 l/m 0,0 km/h (0 Bft) SO 134 0 min 0,000 mm 0,0 UV-I 164 W/m 4,7 C 5,4 C 1,6 km/h (1 Bft) 95,74 %
10.01.2018 11:42 5,4 C 5,0 C 94 % 1012,6 hPa 0,0 l/m 0,0 km/h (0 Bft) SO 134 0 min 0,000 mm 0,0 UV-I 175 W/m 4,5 C 5,4 C 1,6 km/h (1 Bft) 92,45 %
10.01.2018 11:44 5,4 C 5,0 C 94 % 1012,6 hPa 0,0 l/m 0,0 km/h (0 Bft) SO 134 0 min 0,000 mm 0,0 UV-I 184 W/m 4,5 C 5,4 C 0,0 km/h (0 Bft) 96,00 %
10.01.2018 11:46 5,4 C 5,0 C 94 % 1012,6 hPa 0,0 l/m 0,0 km/h (0 Bft) SO 134 2 min 0,000 mm 0,0 UV-I 198 W/m 4,5 C 5,4 C 0,0 km/h (0 Bft) 94,87 %
10.01.2018 11:48 5,6 C 5,0 C 95 % 1012,5 hPa 0,0 l/m 0,0 km/h (0 Bft) SO 134 2 min 0,000 mm 0,0 UV-I 211 W/m 4,9 C 5,6 C 0,0 km/h (0 Bft) 95,74 %
10.01.2018 11:50 5,6 C 5,0 C 94 % 1012,5 hPa 0,0 l/m 0,0 km/h (0 Bft) SO 134 2 min 0,000 mm 0,0 UV-I 219 W/m 4,7 C 5,6 C 0,0 km/h (0 Bft) 94,23 %
10.01.2018 11:52 5,7 C 5,0 C 94 % 1012,4 hPa 0,0 l/m 0,0 km/h (0 Bft) SO 134 2 min 0,000 mm 0,0 UV-I 209 W/m 4,8 C 5,7 C 0,0 km/h (0 Bft) 96,23 %
10.01.2018 11:54 5,8 C 5,0 C 94 % 1012,4 hPa 0,0 l/m 0,0 km/h (0 Bft) SO 134 2 min 0,000 mm 0,1 UV-I 222 W/m 4,9 C 5,8 C 0,0 km/h (0 Bft) 92,86 %
10.01.2018 11:56 5,8 C 5,0 C 94 % 1012,3 hPa 0,0 l/m 0,0 km/h (0 Bft) SO 134 2 min 0,000 mm 0,5 UV-I 265 W/m 4,9 C 5,8 C 0,0 km/h (0 Bft) 93,62 %
10.01.2018 11:58 5,9 C 5,0 C 93 % 1012,4 hPa 0,0 l/m 0,0 km/h (0 Bft) SO 134 2 min 0,000 mm 0,5 UV-I 359 W/m 4,9 C 5,9 C 0,0 km/h (0 Bft) 95,74 %
10.01.2018 12:00 6,1 C 5,0 C 93 % 1012,3 hPa 0,0 l/m 0,0 km/h (0 Bft) SO 134 2 min 0,051 mm 0,5 UV-I 380 W/m 5,1 C 6,1 C 0,0 km/h (0 Bft) 93,62 %
10.01.2018 12:02 6,3 C 5,0 C 93 % 1012,3 hPa 0,0 l/m 0,0 km/h (0 Bft) SO 134 2 min 0,000 mm 0,5 UV-I 371 W/m 5,3 C 6,3 C 0,0 km/h (0 Bft) 97,14 %
10.01.2018 12:04 6,3 C 5,0 C 92 % 1012,3 hPa 0,0 l/m 0,0 km/h (0 Bft) SO 134 2 min 0,000 mm 0,5 UV-I 352 W/m 5,1 C 6,3 C 0,0 km/h (0 Bft) 98,11 %
10.01.2018 12:06 6,6 C 5,0 C 93 % 1012,3 hPa 0,0 l/m 1,3 km/h (1 Bft) SO 134 2 min 0,000 mm 0,5 UV-I 325 W/m 5,6 C 6,6 C 3,2 km/h (1 Bft) 98,00 %
10.01.2018 12:08 6,6 C 5,0 C 91 % 1012,2 hPa 0,0 l/m 0,3 km/h (0 Bft) SO 134 2 min 0,000 mm 0,5 UV-I 332 W/m 5,2 C 6,6 C 1,6 km/h (1 Bft) 97,87 %
10.01.2018 12:10 6,6 C 5,0 C 91 % 1012,3 hPa 0,0 l/m 0,0 km/h (0 Bft) SO 134 2 min 0,000 mm 0,5 UV-I 342 W/m 5,2 C 6,6 C 1,6 km/h (1 Bft) 96,00 %
10.01.2018 12:12 6,6 C 5,0 C 91 % 1012,3 hPa 0,0 l/m 0,1 km/h (0 Bft) SO 134 2 min 0,000 mm 0,5 UV-I 375 W/m 5,2 C 6,6 C 1,6 km/h (1 Bft) 97,87 %
10.01.2018 12:14 6,6 C 5,0 C 90 % 1012,2 hPa 0,0 l/m 0,0 km/h (0 Bft) SO 134 2 min 0,000 mm 0,5 UV-I 379 W/m 5,1 C 6,6 C 0,0 km/h (0 Bft) 97,56 %
10.01.2018 12:15 6,6 C 5,0 C 90 % 1012,2 hPa 0,0 l/m 0,0 km/h (0 Bft) SO 135 1 min 0,000 mm 0,5 UV-I 377 W/m 5,1 C 6,6 C 1,6 km/h (1 Bft) 98,25 %
10.01.2018 12:16 6,5 C 5,0 C 89 % 1012,2 hPa 0,0 l/m 0,0 km/h (0 Bft) SO 134 1 min 0,000 mm 0,5 UV-I 374 W/m 4,8 C 6,5 C 0,0 km/h (0 Bft) 94,44 %
10.01.2018 12:18 6,6 C 5,0 C 88 % 1012,2 hPa 0,0 l/m 0,0 km/h (0 Bft) SO 134 2 min 0,000 mm 0,5 UV-I 377 W/m 4,8 C 6,6 C 0,0 km/h (0 Bft) 98,00 %
10.01.2018 12:20 6,7 C 5,0 C 87 % 1012,2 hPa 0,0 l/m 0,1 km/h (0 Bft) SO 134 2 min 0,000 mm 0,5 UV-I 375 W/m 4,7 C 6,7 C 1,6 km/h (1 Bft) 97,37 %
10.01.2018 12:23 6,6 C 5,0 C 87 % 1012,2 hPa 0,0 l/m 0,1 km/h (0 Bft) SO 134 3 min 0,000 mm 0,5 UV-I 374 W/m 4,6 C 6,6 C 1,6 km/h (1 Bft) 98,59 %
10.01.2018 12:24 6,7 C 5,0 C 88 % 1012,2 hPa 0,0 l/m 0,0 km/h (0 Bft) SO 134 1 min 0,000 mm 0,6 UV-I 375 W/m 4,9 C 6,7 C 0,0 km/h (0 Bft) 95,83 %
10.01.2018 12:26 6,8 C 5,0 C 86 % 1012,2 hPa 0,0 l/m 0,3 km/h (0 Bft) SO 134 2 min 0,000 mm 0,5 UV-I 372 W/m 4,6 C 6,8 C 1,6 km/h (1 Bft) 97,37 %
10.01.2018 12:28 6,9 C 5,0 C 84 % 1012,1 hPa 0,0 l/m 2,2 km/h (1 Bft) SW 233 2 min 0,000 mm 0,5 UV-I 364 W/m 4,4 C 6,9 C 4,8 km/h (1 Bft) 98,21 %
10.01.2018 12:30 7,1 C 5,0 C 84 % 1012,1 hPa 0,0 l/m 0,5 km/h (0 Bft) SW 233 2 min 0,000 mm 0,5 UV-I 356 W/m 4,6 C 7,1 C 3,2 km/h (1 Bft) 97,87 %
10.01.2018 12:32 7,2 C 5,0 C 84 % 1012,1 hPa 0,0 l/m 1,1 km/h (1 Bft) SW 233 2 min 0,000 mm 0,5 UV-I 335 W/m 4,7 C 7,2 C 3,2 km/h (1 Bft) 97,87 %
10.01.2018 12:34 7,2 C 5,0 C 84 % 1012,0 hPa 0,0 l/m 1,9 km/h (1 Bft) W 275 2 min 0,000 mm 0,5 UV-I 352 W/m 4,7 C 7,2 C 4,8 km/h (1 Bft) 96,23 %
10.01.2018 12:36 7,2 C 5,0 C 85 % 1012,0 hPa 0,0 l/m 2,6 km/h (1 Bft) W 276 2 min 0,000 mm 0,5 UV-I 359 W/m 4,9 C 7,2 C 4,8 km/h (1 Bft) 97,73 %
10.01.2018 12:38 7,3 C 5,0 C 85 % 1011,9 hPa 0,0 l/m 1,3 km/h (1 Bft) W 279 2 min 0,000 mm 0,5 UV-I 349 W/m 4,9 C 7,3 C 3,2 km/h (1 Bft) 97,37 %
10.01.2018 12:40 7,2 C 5,0 C 85 % 1011,9 hPa 0,0 l/m 2,6 km/h (1 Bft) W-NW 282 2 min 0,000 mm 0,5 UV-I 322 W/m 4,9 C 7,2 C 4,8 km/h (1 Bft) 96,61 %
10.01.2018 12:42 7,2 C 5,0 C 85 % 1011,9 hPa 0,0 l/m 1,4 km/h (1 Bft) W-NW 282 2 min 0,000 mm 0,5 UV-I 344 W/m 4,9 C 7,2 C 3,2 km/h (1 Bft) 97,37 %
10.01.2018 12:44 7,3 C 5,0 C 86 % 1011,9 hPa 0,0 l/m 1,1 km/h (1 Bft) W-NW 282 2 min 0,000 mm 0,5 UV-I 337 W/m 5,1 C 7,3 C 1,6 km/h (1 Bft) 98,00 %
10.01.2018 12:46 7,4 C 5,0 C 84 % 1011,9 hPa 0,0 l/m 0,9 km/h (0 Bft) W-NW 282 2 min 0,000 mm 0,5 UV-I 332 W/m 4,9 C 7,4 C 3,2 km/h (1 Bft) 95,74 %
10.01.2018 12:48 7,3 C 5,0 C 83 % 1011,8 hPa 0,0 l/m 3,3 km/h (1 Bft) NW 309 2 min 0,000 mm 0,5 UV-I 334 W/m 4,6 C 7,3 C 6,4 km/h (2 Bft) 92,68 %
10.01.2018 12:50 7,4 C 5,0 C 84 % 1011,8 hPa 0,0 l/m 1,6 km/h (1 Bft) NW 304 2 min 0,000 mm 0,5 UV-I 341 W/m 4,9 C 7,4 C 4,8 km/h (1 Bft) 98,00 %
10.01.2018 12:52 7,4 C 5,0 C 84 % 1011,8 hPa 0,0 l/m 1,5 km/h (1 Bft) NW 316 2 min 0,000 mm 0,5 UV-I 347 W/m 4,9 C 7,4 C 3,2 km/h (1 Bft) 98,00 %
10.01.2018 12:54 7,6 C 5,0 C 85 % 1011,8 hPa 0,0 l/m 1,8 km/h (1 Bft) NW 322 2 min 0,000 mm 0,5 UV-I 352 W/m 5,2 C 7,6 C 4,8 km/h (1 Bft) 97,56 %
10.01.2018 12:56 7,7 C 5,0 C 86 % 1011,7 hPa 0,0 l/m 1,9 km/h (1 Bft) NW 321 2 min 0,000 mm 0,5 UV-I 353 W/m 5,5 C 7,7 C 4,8 km/h (1 Bft) 98,00 %
10.01.2018 12:58 7,7 C 5,0 C 84 % 1011,7 hPa 0,0 l/m 1,2 km/h (1 Bft) N-NO 15 2 min 0,000 mm 0,5 UV-I 351 W/m 5,2 C 7,7 C 4,8 km/h (1 Bft) 95,74 %
10.01.2018 13:00 7,6 C 5,0 C 84 % 1011,7 hPa 0,0 l/m 1,1 km/h (1 Bft) N 9 2 min 0,152 mm 0,5 UV-I 348 W/m 5,1 C 7,6 C 4,8 km/h (1 Bft) 98,00 %
10.01.2018 13:03 7,7 C 5,0 C 85 % 1011,7 hPa 0,0 l/m 2,0 km/h (1 Bft) N 9 3 min 0,000 mm 0,5 UV-I 347 W/m 5,3 C 7,7 C 4,8 km/h (1 Bft) 98,59 %
10.01.2018 13:04 7,7 C 5,0 C 85 % 1011,7 hPa 0,0 l/m 1,3 km/h (1 Bft) N 9 1 min 0,000 mm 0,5 UV-I 348 W/m 5,3 C 7,7 C 1,6 km/h (1 Bft) 95,83 %
10.01.2018 13:06 7,7 C 5,0 C 84 % 1011,6 hPa 0,0 l/m 0,4 km/h (0 Bft) N 9 2 min 0,000 mm 0,5 UV-I 351 W/m 5,2 C 7,7 C 1,6 km/h (1 Bft) 96,00 %
10.01.2018 13:08 7,8 C 5,0 C 85 % 1011,7 hPa 0,0 l/m 2,9 km/h (1 Bft) NW 304 2 min 0,000 mm 0,5 UV-I 349 W/m 5,4 C 7,8 C 4,8 km/h (1 Bft) 95,74 %
10.01.2018 13:10 7,7 C 5,0 C 84 % 1011,7 hPa 0,0 l/m 2,0 km/h (1 Bft) N-NW 339 2 min 0,000 mm 0,5 UV-I 346 W/m 5,2 C 7,7 C 4,8 km/h (1 Bft) 97,14 %
10.01.2018 13:13 7,8 C 5,0 C 85 % 1011,6 hPa 0,0 l/m 3,1 km/h (1 Bft) N-NW 331 3 min 0,000 mm 0,5 UV-I 345 W/m 5,4 C 7,8 C 6,4 km/h (2 Bft) 97,40 %
10.01.2018 13:14 7,7 C 5,0 C 83 % 1011,6 hPa 0,0 l/m 2,1 km/h (1 Bft) N-NW 328 1 min 0,000 mm 0,5 UV-I 346 W/m 5,0 C 7,7 C 4,8 km/h (1 Bft) 91,30 %
10.01.2018 13:16 7,7 C 5,0 C 83 % 1011,6 hPa 0,0 l/m 1,1 km/h (1 Bft) NW 316 2 min 0,000 mm 0,5 UV-I 338 W/m 5,0 C 7,7 C 3,2 km/h (1 Bft) 95,74 %
10.01.2018 13:18 7,7 C 5,0 C 83 % 1011,6 hPa 0,0 l/m 0,6 km/h (0 Bft) N-NW 329 2 min 0,000 mm 0,5 UV-I 320 W/m 5,0 C 7,7 C 1,6 km/h (1 Bft) 95,12 %
10.01.2018 13:20 7,6 C 5,0 C 84 % 1011,6 hPa 0,0 l/m 2,2 km/h (1 Bft) N-NO 28 2 min 0,000 mm 0,5 UV-I 309 W/m 5,1 C 7,6 C 6,4 km/h (2 Bft) 94,64 %
10.01.2018 13:23 7,7 C 5,0 C 85 % 1011,6 hPa 0,0 l/m 3,1 km/h (1 Bft) N 349 3 min 0,000 mm 0,0 UV-I 309 W/m 5,3 C 7,7 C 9,7 km/h (2 Bft) 95,59 %
10.01.2018 13:24 7,7 C 5,0 C 86 % 1011,6 hPa 0,0 l/m 2,8 km/h (1 Bft) W-NW 283 1 min 0,000 mm 0,0 UV-I 306 W/m 5,5 C 7,7 C 4,8 km/h (1 Bft) 91,30 %
10.01.2018 13:26 7,4 C 5,0 C 82 % 1011,5 hPa 0,0 l/m 3,8 km/h (1 Bft) NW 309 2 min 0,000 mm 0,0 UV-I 302 W/m 4,5 C 7,4 C 6,4 km/h (2 Bft) 95,74 %
10.01.2018 13:28 7,3 C 5,0 C 82 % 1011,5 hPa 0,0 l/m 2,7 km/h (1 Bft) NW 305 2 min 0,000 mm 0,0 UV-I 298 W/m 4,4 C 7,3 C 6,4 km/h (2 Bft) 94,44 %
10.01.2018 13:30 7,3 C 5,0 C 83 % 1011,5 hPa 0,0 l/m 3,6 km/h (1 Bft) N-NW 327 2 min 0,000 mm 0,0 UV-I 292 W/m 4,6 C 7,3 C 6,4 km/h (2 Bft) 96,23 %
10.01.2018 13:32 7,3 C 5,0 C 83 % 1011,5 hPa 0,0 l/m 1,7 km/h (1 Bft) NW 318 2 min 0,000 mm 0,0 UV-I 285 W/m 4,6 C 7,3 C 4,8 km/h (1 Bft) 96,36 %
10.01.2018 13:34 7,4 C 5,0 C 85 % 1011,5 hPa 0,0 l/m 1,2 km/h (1 Bft) NW 319 2 min 0,000 mm 0,0 UV-I 279 W/m 5,0 C 7,4 C 3,2 km/h (1 Bft) 94,59 %
10.01.2018 13:36 7,4 C 5,0 C 84 % 1011,5 hPa 0,0 l/m 1,3 km/h (1 Bft) N-NW 340 2 min 0,000 mm 0,0 UV-I 277 W/m 4,9 C 7,4 C 3,2 km/h (1 Bft) 92,00 %
10.01.2018 13:38 7,4 C 5,0 C 85 % 1011,5 hPa 0,0 l/m 2,2 km/h (1 Bft) N-NW 346 2 min 0,000 mm 0,0 UV-I 272 W/m 5,0 C 7,4 C 4,8 km/h (1 Bft) 98,11 %
10.01.2018 13:40 7,5 C 5,0 C 85 % 1011,5 hPa 0,0 l/m 1,1 km/h (1 Bft) N-NW 346 2 min 0,000 mm 0,0 UV-I 266 W/m 5,1 C 7,5 C 3,2 km/h (1 Bft) 94,74 %
10.01.2018 13:43 7,4 C 5,0 C 84 % 1011,4 hPa 0,0 l/m 1,5 km/h (1 Bft) N-NW 344 3 min 0,000 mm 0,0 UV-I 261 W/m 4,9 C 7,4 C 4,8 km/h (1 Bft) 97,37 %
10.01.2018 13:44 7,4 C 5,0 C 84 % 1011,4 hPa 0,0 l/m 2,5 km/h (1 Bft) N-NW 344 1 min 0,000 mm 0,0 UV-I 258 W/m 4,9 C 7,4 C 3,2 km/h (1 Bft) 100,00 %
10.01.2018 13:46 7,3 C 5,0 C 85 % 1011,4 hPa 0,0 l/m 0,8 km/h (0 Bft) N-NW 344 2 min 0,000 mm 0,0 UV-I 258 W/m 4,9 C 7,3 C 3,2 km/h (1 Bft) 100,00 %
10.01.2018 13:48 7,4 C 5,0 C 85 % 1011,4 hPa 0,0 l/m 1,8 km/h (1 Bft) N-NW 336 2 min 0,000 mm 0,0 UV-I 258 W/m 5,0 C 7,4 C 4,8 km/h (1 Bft) 100,00 %
10.01.2018 13:50 7,4 C 5,0 C 83 % 1011,4 hPa 0,0 l/m 1,6 km/h (1 Bft) NW 323 2 min 0,000 mm 0,0 UV-I 257 W/m 4,7 C 7,4 C 4,8 km/h (1 Bft) 100,00 %
10.01.2018 13:53 7,4 C 5,0 C 83 % 1011,4 hPa 0,0 l/m 2,9 km/h (1 Bft) NW 305 3 min 0,000 mm 0,0 UV-I 253 W/m 4,7 C 7,4 C 6,4 km/h (2 Bft) 100,00 %
10.01.2018 13:54 7,3 C 5,0 C 83 % 1011,4 hPa 0,0 l/m 2,7 km/h (1 Bft) NW 323 1 min 0,000 mm 0,0 UV-I 250 W/m 4,6 C 7,3 C 6,4 km/h (2 Bft) 100,00 %
10.01.2018 13:56 7,4 C 5,0 C 84 % 1011,4 hPa 0,0 l/m 1,3 km/h (1 Bft) N-NW 330 2 min 0,000 mm 0,0 UV-I 247 W/m 4,9 C 7,4 C 4,8 km/h (1 Bft) 100,00 %
10.01.2018 13:58 7,5 C 5,0 C 85 % 1011,4 hPa 0,0 l/m 1,8 km/h (1 Bft) N-NW 333 2 min 0,000 mm 0,0 UV-I 245 W/m 5,1 C 7,5 C 4,8 km/h (1 Bft) 96,00 %
10.01.2018 14:00 7,5 C 5,0 C 84 % 1011,4 hPa 0,0 l/m 1,5 km/h (1 Bft) N 355 2 min 0,127 mm 0,0 UV-I 242 W/m 5,0 C 7,5 C 3,2 km/h (1 Bft) 100,00 %
10.01.2018 14:03 7,4 C 5,0 C 85 % 1011,4 hPa 0,0 l/m 1,6 km/h (1 Bft) N 355 3 min 0,000 mm 0,0 UV-I 237 W/m 5,0 C 7,4 C 3,2 km/h (1 Bft) 97,80 %
10.01.2018 14:04 7,4 C 5,0 C 85 % 1011,4 hPa 0,0 l/m 1,7 km/h (1 Bft) NW 305 1 min 0,000 mm 0,0 UV-I 234 W/m 5,0 C 7,4 C 3,2 km/h (1 Bft) 100,00 %
10.01.2018 14:06 7,4 C 5,0 C 84 % 1011,4 hPa 0,0 l/m 2,6 km/h (1 Bft) NW 312 2 min 0,000 mm 0,0 UV-I 232 W/m 4,9 C 7,4 C 4,8 km/h (1 Bft) 100,00 %
10.01.2018 14:08 7,4 C 5,0 C 84 % 1011,4 hPa 0,0 l/m 2,2 km/h (1 Bft) NW 315 2 min 0,000 mm 0,0 UV-I 227 W/m 4,9 C 7,4 C 3,2 km/h (1 Bft) 100,00 %
10.01.2018 14:10 7,4 C 5,0 C 83 % 1011,3 hPa 0,0 l/m 2,1 km/h (1 Bft) N-NW 337 2 min 0,000 mm 0,0 UV-I 221 W/m 4,7 C 7,4 C 6,4 km/h (2 Bft) 100,00 %
10.01.2018 14:13 7,4 C 5,0 C 83 % 1011,3 hPa 0,0 l/m 1,9 km/h (1 Bft) NW 314 3 min 0,000 mm 0,0 UV-I 217 W/m 4,7 C 7,4 C 4,8 km/h (1 Bft) 100,00 %
10.01.2018 14:14 7,4 C 5,0 C 83 % 1011,4 hPa 0,0 l/m 2,2 km/h (1 Bft) NW 309 1 min 0,000 mm 0,0 UV-I 215 W/m 4,7 C 7,4 C 6,4 km/h (2 Bft) 96,30 %
10.01.2018 14:16 7,4 C 5,0 C 83 % 1011,3 hPa 0,0 l/m 1,5 km/h (1 Bft) NW 318 2 min 0,000 mm 0,0 UV-I 215 W/m 4,7 C 7,4 C 4,8 km/h (1 Bft) 100,00 %
10.01.2018 14:18 7,3 C 5,0 C 83 % 1011,4 hPa 0,0 l/m 1,0 km/h (0 Bft) NW 318 2 min 0,000 mm 0,0 UV-I 214 W/m 4,6 C 7,3 C 3,2 km/h (1 Bft) 100,00 %
10.01.2018 14:20 7,4 C 5,0 C 84 % 1011,3 hPa 0,0 l/m 1,4 km/h (1 Bft) NW 320 2 min 0,000 mm 0,0 UV-I 214 W/m 4,9 C 7,4 C 3,2 km/h (1 Bft) 96,23 %
10.01.2018 14:23 7,6 C 5,0 C 85 % 1011,3 hPa 0,0 l/m 0,7 km/h (0 Bft) N-NW 344 3 min 0,000 mm 0,0 UV-I 213 W/m 5,2 C 7,6 C 4,8 km/h (1 Bft) 98,68 %
10.01.2018 14:24 7,6 C 5,0 C 85 % 1011,3 hPa 0,0 l/m 4,4 km/h (1 Bft) N-NO 24 1 min 0,000 mm 0,0 UV-I 213 W/m 5,2 C 7,6 C 6,4 km/h (2 Bft) 100,00 %
10.01.2018 14:26 7,6 C 5,0 C 85 % 1011,3 hPa 0,0 l/m 7,1 km/h (2 Bft) NO 43 2 min 0,000 mm 0,0 UV-I 210 W/m 5,2 C 7,0 C 9,7 km/h (2 Bft) 100,00 %
10.01.2018 14:28 7,5 C 5,0 C 86 % 1011,3 hPa 0,0 l/m 6,0 km/h (2 Bft) NO 44 2 min 0,000 mm 0,0 UV-I 207 W/m 5,3 C 7,5 C 9,7 km/h (2 Bft) 100,00 %
10.01.2018 14:30 7,5 C 5,0 C 85 % 1011,3 hPa 0,0 l/m 5,6 km/h (1 Bft) N-NO 30 2 min 0,000 mm 0,0 UV-I 204 W/m 5,1 C 7,5 C 8,0 km/h (2 Bft) 100,00 %
10.01.2018 14:32 7,5 C 5,0 C 86 % 1011,3 hPa 0,0 l/m 4,4 km/h (1 Bft) NO 48 2 min 0,000 mm 0,0 UV-I 202 W/m 5,3 C 7,5 C 8,0 km/h (2 Bft) 100,00 %
10.01.2018 14:34 7,5 C 5,0 C 85 % 1011,3 hPa 0,0 l/m 6,2 km/h (2 Bft) NO 45 2 min 0,000 mm 0,0 UV-I 196 W/m 5,1 C 7,5 C 9,7 km/h (2 Bft) 97,56 %
10.01.2018 14:36 7,4 C 5,0 C 85 % 1011,3 hPa 0,0 l/m 5,3 km/h (1 Bft) N-NO 13 2 min 0,000 mm 0,0 UV-I 192 W/m 5,0 C 7,4 C 8,0 km/h (2 Bft) 98,11 %
10.01.2018 14:38 7,4 C 5,0 C 87 % 1011,3 hPa 0,0 l/m 9,0 km/h (2 Bft) NO 53 2 min 0,000 mm 0,0 UV-I 188 W/m 5,4 C 5,4 C 14,5 km/h (3 Bft) 100,00 %
10.01.2018 14:40 7,3 C 5,0 C 87 % 1011,3 hPa 0,0 l/m 7,5 km/h (2 Bft) N-NO 19 2 min 0,000 mm 0,0 UV-I 181 W/m 5,3 C 6,4 C 14,5 km/h (3 Bft) 100,00 %
10.01.2018 14:42 7,3 C 5,0 C 88 % 1011,3 hPa 0,0 l/m 8,4 km/h (2 Bft) N-NO 25 2 min 0,000 mm 0,0 UV-I 175 W/m 5,4 C 5,7 C 12,9 km/h (3 Bft) 100,00 %
10.01.2018 14:44 7,3 C 5,0 C 87 % 1011,4 hPa 0,0 l/m 8,8 km/h (2 Bft) NO 38 2 min 0,000 mm 0,0 UV-I 171 W/m 5,3 C 5,4 C 12,9 km/h (3 Bft) 100,00 %
10.01.2018 14:46 7,3 C 5,0 C 87 % 1011,4 hPa 0,0 l/m 9,6 km/h (2 Bft) O-NO 69 2 min 0,000 mm 0,0 UV-I 165 W/m 5,3 C 4,9 C 19,3 km/h (3 Bft) 100,00 %
10.01.2018 14:48 7,2 C 5,0 C 87 % 1011,4 hPa 0,0 l/m 11,9 km/h (2 Bft) O-NO 74 2 min 0,000 mm 0,0 UV-I 118 W/m 5,2 C 3,3 C 17,7 km/h (3 Bft) 100,00 %
10.01.2018 14:50 6,9 C 5,0 C 88 % 1011,4 hPa 0,0 l/m 12,1 km/h (2 Bft) O-NO 62 0 min 0,000 mm 0,0 UV-I 92 W/m 5,1 C 2,9 C 17,7 km/h (3 Bft) 97,87 %
10.01.2018 14:53 6,8 C 5,0 C 89 % 1011,4 hPa 0,0 l/m 10,1 km/h (2 Bft) O-NO 72 0 min 0,000 mm 0,0 UV-I 84 W/m 5,1 C 4,0 C 17,7 km/h (3 Bft) 100,00 %
10.01.2018 14:54 6,7 C 5,0 C 88 % 1011,4 hPa 0,0 l/m 8,5 km/h (2 Bft) NO 49 0 min 0,000 mm 0,0 UV-I 68 W/m 4,9 C 5,0 C 12,9 km/h (3 Bft) 100,00 %
10.01.2018 14:56 6,6 C 5,0 C 89 % 1011,4 hPa 0,0 l/m 8,7 km/h (2 Bft) O-NO 74 0 min 0,000 mm 0,0 UV-I 80 W/m 4,9 C 4,8 C 12,9 km/h (3 Bft) 100,00 %
10.01.2018 14:58 6,6 C 5,0 C 89 % 1011,4 hPa 0,0 l/m 9,7 km/h (2 Bft) O 81 0 min 0,000 mm 0,0 UV-I 97 W/m 4,9 C 4,0 C 14,5 km/h (3 Bft) 94,74 %
10.01.2018 15:00 6,5 C 5,0 C 89 % 1011,5 hPa 0,0 l/m 6,9 km/h (2 Bft) O-NO 61 2 min 0,076 mm 0,0 UV-I 118 W/m 4,8 C 6,1 C 12,9 km/h (3 Bft) 98,00 %
10.01.2018 15:03 6,6 C 5,0 C 89 % 1011,5 hPa 0,0 l/m 7,9 km/h (2 Bft) O-NO 74 3 min 0,000 mm 0,0 UV-I 121 W/m 4,9 C 5,4 C 11,3 km/h (2 Bft) 95,95 %
10.01.2018 15:04 6,6 C 5,0 C 89 % 1011,5 hPa 0,0 l/m 7,2 km/h (2 Bft) O-NO 77 1 min 0,000 mm 0,0 UV-I 118 W/m 4,9 C 5,9 C 11,3 km/h (2 Bft) 100,00 %
10.01.2018 15:06 6,6 C 5,0 C 89 % 1011,5 hPa 0,0 l/m 7,6 km/h (2 Bft) O-NO 73 2 min 0,000 mm 0,0 UV-I 118 W/m 4,9 C 5,6 C 12,9 km/h (3 Bft) 97,87 %
10.01.2018 15:08 6,5 C 5,0 C 89 % 1011,5 hPa 0,0 l/m 7,7 km/h (2 Bft) O-NO 78 2 min 0,000 mm 0,0 UV-I 115 W/m 4,8 C 5,4 C 11,3 km/h (2 Bft) 95,74 %
10.01.2018 15:10 6,5 C 5,0 C 89 % 1011,5 hPa 0,0 l/m 6,3 km/h (2 Bft) O 80 2 min 0,000 mm 0,0 UV-I 111 W/m 4,8 C 6,5 C 8,0 km/h (2 Bft) 100,00 %
10.01.2018 15:12 6,6 C 5,0 C 89 % 1011,5 hPa 0,0 l/m 6,2 km/h (2 Bft) O-NO 64 2 min 0,000 mm 0,0 UV-I 106 W/m 4,9 C 6,6 C 8,0 km/h (2 Bft) 96,43 %
10.01.2018 15:14 6,6 C 5,0 C 89 % 1011,5 hPa 0,0 l/m 4,7 km/h (1 Bft) O-NO 66 2 min 0,000 mm 0,0 UV-I 105 W/m 4,9 C 6,6 C 9,7 km/h (2 Bft) 96,15 %
10.01.2018 15:16 6,5 C 5,0 C 89 % 1011,5 hPa 0,0 l/m 6,7 km/h (2 Bft) O-NO 71 2 min 0,000 mm 0,0 UV-I 105 W/m 4,8 C 6,3 C 8,0 km/h (2 Bft) 94,87 %
10.01.2018 15:18 6,5 C 5,0 C 89 % 1011,5 hPa 0,0 l/m 7,1 km/h (2 Bft) O-NO 67 2 min 0,000 mm 0,0 UV-I 100 W/m 4,8 C 5,9 C 9,7 km/h (2 Bft) 98,21 %
10.01.2018 15:20 6,4 C 5,0 C 89 % 1011,4 hPa 0,0 l/m 7,9 km/h (2 Bft) NO 53 2 min 0,000 mm 0,0 UV-I 98 W/m 4,7 C 5,2 C 11,3 km/h (2 Bft) 97,37 %
10.01.2018 15:22 6,4 C 5,0 C 90 % 1011,5 hPa 0,0 l/m 6,7 km/h (2 Bft) O-NO 76 2 min 0,000 mm 0,0 UV-I 96 W/m 4,9 C 6,2 C 9,7 km/h (2 Bft) 98,11 %
10.01.2018 15:24 6,4 C 5,0 C 90 % 1011,4 hPa 0,0 l/m 7,2 km/h (2 Bft) O-NO 64 2 min 0,000 mm 0,0 UV-I 91 W/m 4,9 C 5,7 C 11,3 km/h (2 Bft) 97,73 %
10.01.2018 15:26 6,4 C 5,0 C 90 % 1011,4 hPa 0,0 l/m 6,2 km/h (2 Bft) O-NO 67 2 min 0,000 mm 0,0 UV-I 89 W/m 4,9 C 6,4 C 11,3 km/h (2 Bft) 96,23 %
10.01.2018 15:28 6,4 C 5,0 C 90 % 1011,5 hPa 0,0 l/m 6,4 km/h (2 Bft) NO 51 2 min 0,000 mm 0,0 UV-I 85 W/m 4,9 C 6,4 C 9,7 km/h (2 Bft) 94,29 %
10.01.2018 15:30 6,4 C 5,0 C 90 % 1011,5 hPa 0,0 l/m 7,3 km/h (2 Bft) O-NO 58 2 min 0,000 mm 0,0 UV-I 83 W/m 4,9 C 5,6 C 9,7 km/h (2 Bft) 94,00 %
10.01.2018 15:32 6,4 C 5,0 C 90 % 1011,5 hPa 0,0 l/m 8,3 km/h (2 Bft) NO 54 2 min 0,000 mm 0,0 UV-I 82 W/m 4,9 C 4,8 C 11,3 km/h (2 Bft) 94,44 %
10.01.2018 15:34 6,3 C 5,0 C 90 % 1011,4 hPa 0,0 l/m 6,9 km/h (2 Bft) O-NO 78 2 min 0,000 mm 0,0 UV-I 79 W/m 4,8 C 5,9 C 9,7 km/h (2 Bft) 96,88 %
10.01.2018 15:36 6,3 C 5,0 C 90 % 1011,4 hPa 0,0 l/m 6,9 km/h (2 Bft) O-NO 67 2 min 0,000 mm 0,0 UV-I 76 W/m 4,8 C 5,9 C 9,7 km/h (2 Bft) 97,44 %
10.01.2018 15:38 6,3 C 5,0 C 90 % 1011,4 hPa 0,0 l/m 6,9 km/h (2 Bft) NO 51 2 min 0,000 mm 0,0 UV-I 72 W/m 4,8 C 5,9 C 9,7 km/h (2 Bft) 98,21 %
10.01.2018 15:40 6,2 C 5,0 C 91 % 1011,4 hPa 0,0 l/m 7,6 km/h (2 Bft) O-NO 65 2 min 0,000 mm 0,0 UV-I 68 W/m 4,8 C 5,2 C 9,7 km/h (2 Bft) 97,44 %
10.01.2018 15:42 6,2 C 5,0 C 91 % 1011,4 hPa 0,0 l/m 7,4 km/h (2 Bft) O-NO 65 2 min 0,000 mm 0,0 UV-I 63 W/m 4,8 C 5,4 C 9,7 km/h (2 Bft) 97,87 %
10.01.2018 15:44 6,2 C 5,0 C 91 % 1011,4 hPa 0,0 l/m 8,1 km/h (2 Bft) NO 49 2 min 0,000 mm 0,0 UV-I 61 W/m 4,8 C 4,8 C 12,9 km/h (3 Bft) 92,00 %
10.01.2018 15:46 6,1 C 5,0 C 91 % 1011,4 hPa 0,0 l/m 8,4 km/h (2 Bft) O-NO 58 2 min 0,000 mm 0,0 UV-I 57 W/m 4,7 C 4,4 C 9,7 km/h (2 Bft) 97,56 %
10.01.2018 15:48 6,1 C 5,0 C 91 % 1011,4 hPa 0,0 l/m 9,2 km/h (2 Bft) O-NO 73 2 min 0,000 mm 0,0 UV-I 53 W/m 4,7 C 3,8 C 12,9 km/h (3 Bft) 96,23 %
10.01.2018 15:50 6,1 C 5,0 C 91 % 1011,5 hPa 0,0 l/m 9,0 km/h (2 Bft) O-NO 67 2 min 0,000 mm 0,0 UV-I 49 W/m 4,7 C 4,0 C 12,9 km/h (3 Bft) 96,00 %
10.01.2018 15:52 6,0 C 5,0 C 91 % 1011,5 hPa 0,0 l/m 7,8 km/h (2 Bft) NO 53 2 min 0,000 mm 0,0 UV-I 45 W/m 4,6 C 4,8 C 12,9 km/h (3 Bft) 97,37 %
10.01.2018 15:54 5,9 C 5,0 C 91 % 1011,5 hPa 0,0 l/m 6,7 km/h (2 Bft) O-NO 64 2 min 0,000 mm 0,0 UV-I 41 W/m 4,5 C 5,7 C 9,7 km/h (2 Bft) 98,00 %
10.01.2018 15:56 5,8 C 5,0 C 92 % 1011,6 hPa 0,0 l/m 5,6 km/h (1 Bft) NO 55 2 min 0,000 mm 0,0 UV-I 38 W/m 4,6 C 5,8 C 6,4 km/h (2 Bft) 96,23 %
10.01.2018 15:58 5,8 C 5,0 C 92 % 1011,6 hPa 0,0 l/m 5,4 km/h (1 Bft) NO 55 0 min 0,000 mm 0,0 UV-I 35 W/m 4,6 C 5,8 C 8,0 km/h (2 Bft) 97,37 %
10.01.2018 16:00 5,7 C 5,0 C 92 % 1011,6 hPa 0,0 l/m 4,8 km/h (1 Bft) NO 55 0 min 0,051 mm 0,0 UV-I 31 W/m 4,5 C 5,7 C 6,4 km/h (2 Bft) 94,34 %
10.01.2018 16:02 5,7 C 5,0 C 92 % 1011,6 hPa 0,0 l/m 4,8 km/h (1 Bft) NO 49 0 min 0,000 mm 0,0 UV-I 26 W/m 4,5 C 5,7 C 8,0 km/h (2 Bft) 97,87 %
10.01.2018 16:04 5,6 C 5,0 C 92 % 1011,5 hPa 0,0 l/m 5,9 km/h (2 Bft) O-NO 57 0 min 0,000 mm 0,0 UV-I 25 W/m 4,4 C 5,6 C 8,0 km/h (2 Bft) 97,22 %
10.01.2018 16:06 5,6 C 5,0 C 92 % 1011,5 hPa 0,0 l/m 5,2 km/h (1 Bft) NO 55 0 min 0,000 mm 0,0 UV-I 21 W/m 4,4 C 5,6 C 6,4 km/h (2 Bft) 98,21 %
10.01.2018 16:08 5,4 C 5,0 C 92 % 1011,6 hPa 0,0 l/m 5,5 km/h (1 Bft) O-NO 71 0 min 0,000 mm 0,0 UV-I 20 W/m 4,2 C 5,4 C 8,0 km/h (2 Bft) 98,00 %
10.01.2018 16:10 5,3 C 5,0 C 93 % 1011,6 hPa 0,0 l/m 5,7 km/h (1 Bft) O-NO 65 2 min 0,000 mm 0,0 UV-I 21 W/m 4,3 C 5,3 C 9,7 km/h (2 Bft) 97,14 %
10.01.2018 16:12 5,3 C 5,0 C 93 % 1011,6 hPa 0,0 l/m 5,9 km/h (2 Bft) NO 51 2 min 0,000 mm 0,0 UV-I 19 W/m 4,3 C 5,3 C 8,0 km/h (2 Bft) 96,00 %
10.01.2018 16:14 5,2 C 5,0 C 93 % 1011,7 hPa 0,0 l/m 5,4 km/h (1 Bft) NO 50 2 min 0,000 mm 0,0 UV-I 19 W/m 4,2 C 5,2 C 8,0 km/h (2 Bft) 97,87 %
10.01.2018 16:16 5,2 C 5,0 C 93 % 1011,6 hPa 0,0 l/m 4,8 km/h (1 Bft) O-NO 68 2 min 0,000 mm 0,0 UV-I 16 W/m 4,2 C 5,2 C 6,4 km/h (2 Bft) 97,87 %
10.01.2018 16:18 5,2 C 5,0 C 93 % 1011,7 hPa 0,0 l/m 4,5 km/h (1 Bft) O 82 2 min 0,000 mm 0,0 UV-I 14 W/m 4,2 C 5,2 C 6,4 km/h (2 Bft) 97,87 %
10.01.2018 16:20 5,1 C 5,0 C 93 % 1011,8 hPa 0,0 l/m 4,2 km/h (1 Bft) O 81 0 min 0,000 mm 0,0 UV-I 12 W/m 4,1 C 5,1 C 6,4 km/h (2 Bft) 97,87 %
10.01.2018 16:22 5,1 C 5,0 C 93 % 1011,8 hPa 0,0 l/m 4,4 km/h (1 Bft) O 81 0 min 0,000 mm 0,0 UV-I 11 W/m 4,1 C 5,1 C 6,4 km/h (2 Bft) 93,62 %
10.01.2018 16:24 5,1 C 5,0 C 94 % 1011,7 hPa 0,0 l/m 3,7 km/h (1 Bft) O 81 0 min 0,000 mm 0,0 UV-I 11 W/m 4,2 C 5,1 C 4,8 km/h (1 Bft) 96,00 %
10.01.2018 16:26 5,0 C 5,0 C 94 % 1011,8 hPa 0,0 l/m 2,9 km/h (1 Bft) O 81 0 min 0,000 mm 0,0 UV-I 9 W/m 4,1 C 5,0 C 4,8 km/h (1 Bft) 96,00 %
10.01.2018 16:28 4,9 C 5,0 C 94 % 1011,7 hPa 0,0 l/m 2,5 km/h (1 Bft) O 81 0 min 0,000 mm 0,0 UV-I 9 W/m 4,0 C 4,9 C 4,8 km/h (1 Bft) 98,00 %
10.01.2018 16:30 4,9 C 5,0 C 94 % 1011,8 hPa 0,0 l/m 2,7 km/h (1 Bft) O 81 0 min 0,000 mm 0,0 UV-I 8 W/m 4,0 C 4,9 C 4,8 km/h (1 Bft) 94,74 %
10.01.2018 16:32 4,9 C 5,0 C 94 % 1011,7 hPa 0,0 l/m 3,1 km/h (1 Bft) O 81 0 min 0,000 mm 0,0 UV-I 7 W/m 4,0 C 4,9 C 4,8 km/h (1 Bft) 98,11 %
10.01.2018 16:34 4,8 C 5,0 C 93 % 1011,8 hPa 0,0 l/m 2,4 km/h (1 Bft) O 81 0 min 0,000 mm 0,0 UV-I 7 W/m 3,8 C 4,8 C 3,2 km/h (1 Bft) 100,00 %
10.01.2018 16:36 4,8 C 5,0 C 94 % 1011,8 hPa 0,0 l/m 2,5 km/h (1 Bft) O 81 0 min 0,000 mm 0,0 UV-I 7 W/m 3,9 C 4,8 C 3,2 km/h (1 Bft) 92,00 %
10.01.2018 16:38 4,7 C 5,0 C 94 % 1011,8 hPa 0,0 l/m 2,8 km/h (1 Bft) O 81 0 min 0,000 mm 0,0 UV-I 6 W/m 3,8 C 4,7 C 3,2 km/h (1 Bft) 100,00 %
10.01.2018 16:40 4,7 C 5,0 C 94 % 1011,8 hPa 0,0 l/m 2,7 km/h (1 Bft) O 81 0 min 0,000 mm 0,0 UV-I 5 W/m 3,8 C 4,7 C 3,2 km/h (1 Bft) 100,00 %
10.01.2018 16:42 4,6 C 5,0 C 94 % 1011,8 hPa 0,0 l/m 3,2 km/h (1 Bft) O 81 0 min 0,000 mm 0,0 UV-I 5 W/m 3,7 C 4,6 C 4,8 km/h (1 Bft) 100,00 %
10.01.2018 16:44 4,5 C 5,0 C 94 % 1011,8 hPa 0,0 l/m 3,6 km/h (1 Bft) O 81 0 min 0,000 mm 0,0 UV-I 5 W/m 3,6 C 4,5 C 4,8 km/h (1 Bft) 100,00 %
10.01.2018 16:46 4,4 C 5,0 C 94 % 1011,8 hPa 0,0 l/m 4,0 km/h (1 Bft) O 81 0 min 0,000 mm 0,0 UV-I 2 W/m 3,5 C 4,4 C 4,8 km/h (1 Bft) 100,00 %
10.01.2018 16:48 4,5 C 5,0 C 95 % 1011,8 hPa 0,0 l/m 3,4 km/h (1 Bft) O 81 0 min 0,000 mm 0,0 UV-I 0 W/m 3,8 C 4,5 C 4,8 km/h (1 Bft) 100,00 %
10.01.2018 16:50 4,5 C 5,0 C 95 % 1011,8 hPa 0,0 l/m 3,6 km/h (1 Bft) O 81 0 min 0,000 mm 0,0 UV-I 0 W/m 3,8 C 4,5 C 4,8 km/h (1 Bft) 100,00 %
10.01.2018 16:52 4,5 C 5,0 C 95 % 1011,8 hPa 0,0 l/m 4,2 km/h (1 Bft) NO 51 0 min 0,000 mm 0,0 UV-I 0 W/m 3,8 C 4,5 C 4,8 km/h (1 Bft) 100,00 %
10.01.2018 16:54 4,4 C 5,0 C 95 % 1011,8 hPa 0,0 l/m 5,0 km/h (1 Bft) NO 38 0 min 0,000 mm 0,0 UV-I 0 W/m 3,7 C 4,4 C 6,4 km/h (2 Bft) 98,31 %
10.01.2018 16:56 4,4 C 5,0 C 95 % 1011,8 hPa 0,0 l/m 3,5 km/h (1 Bft) NO 38 0 min 0,000 mm 0,0 UV-I 0 W/m 3,7 C 4,4 C 4,8 km/h (1 Bft) 100,00 %
10.01.2018 16:58 4,5 C 5,0 C 95 % 1011,8 hPa 0,0 l/m 3,5 km/h (1 Bft) NO 38 0 min 0,000 mm 0,0 UV-I 0 W/m 3,8 C 4,5 C 4,8 km/h (1 Bft) 97,87 %
10.01.2018 17:00 4,5 C 5,0 C 95 % 1011,8 hPa 0,0 l/m 3,6 km/h (1 Bft) NO 38 0 min 0,000 mm 0,0 UV-I 0 W/m 3,8 C 4,5 C 4,8 km/h (1 Bft) 98,00 %
10.01.2018 17:02 4,5 C 5,0 C 95 % 1011,8 hPa 0,0 l/m 3,5 km/h (1 Bft) NO 38 0 min 0,000 mm 0,0 UV-I 0 W/m 3,8 C 4,5 C 4,8 km/h (1 Bft) 95,74 %
10.01.2018 17:04 4,4 C 5,0 C 95 % 1011,8 hPa 0,0 l/m 3,1 km/h (1 Bft) NO 38 0 min 0,000 mm 0,0 UV-I 0 W/m 3,7 C 4,4 C 4,8 km/h (1 Bft) 97,87 %
10.01.2018 17:06 4,4 C 5,0 C 95 % 1011,8 hPa 0,0 l/m 3,5 km/h (1 Bft) O-NO 63 0 min 0,000 mm 0,0 UV-I 0 W/m 3,7 C 4,4 C 4,8 km/h (1 Bft) 100,00 %
10.01.2018 17:08 4,4 C 5,0 C 95 % 1011,8 hPa 0,0 l/m 3,8 km/h (1 Bft) O-NO 62 0 min 0,000 mm 0,0 UV-I 0 W/m 3,7 C 4,4 C 4,8 km/h (1 Bft) 97,87 %
10.01.2018 17:10 4,3 C 5,0 C 95 % 1011,8 hPa 0,0 l/m 3,1 km/h (1 Bft) O-NO 62 0 min 0,000 mm 0,0 UV-I 0 W/m 3,6 C 4,3 C 4,8 km/h (1 Bft) 100,00 %
10.01.2018 17:12 4,3 C 5,0 C 95 % 1011,8 hPa 0,0 l/m 3,4 km/h (1 Bft) O-NO 62 0 min 0,000 mm 0,0 UV-I 0 W/m 3,6 C 4,3 C 4,8 km/h (1 Bft) 100,00 %
10.01.2018 17:14 4,3 C 5,0 C 95 % 1011,8 hPa 0,0 l/m 4,1 km/h (1 Bft) O-NO 62 0 min 0,000 mm 0,0 UV-I 0 W/m 3,6 C 4,3 C 6,4 km/h (2 Bft) 95,74 %
10.01.2018 17:16 4,3 C 5,0 C 95 % 1011,8 hPa 0,0 l/m 3,4 km/h (1 Bft) O-NO 62 0 min 0,000 mm 0,0 UV-I 0 W/m 3,6 C 4,3 C 4,8 km/h (1 Bft) 96,00 %
10.01.2018 17:18 4,2 C 5,0 C 95 % 1011,8 hPa 0,0 l/m 2,8 km/h (1 Bft) O-NO 62 0 min 0,000 mm 0,0 UV-I 0 W/m 3,5 C 4,2 C 4,8 km/h (1 Bft) 97,37 %
10.01.2018 17:20 4,2 C 5,0 C 95 % 1011,8 hPa 0,0 l/m 4,1 km/h (1 Bft) O-NO 62 0 min 0,000 mm 0,0 UV-I 0 W/m 3,5 C 4,2 C 6,4 km/h (2 Bft) 93,62 %
10.01.2018 17:22 4,2 C 5,0 C 95 % 1011,8 hPa 0,0 l/m 4,0 km/h (1 Bft) O-NO 62 0 min 0,000 mm 0,0 UV-I 0 W/m 3,5 C 4,2 C 4,8 km/h (1 Bft) 98,11 %
10.01.2018 17:24 4,2 C 5,0 C 95 % 1011,8 hPa 0,0 l/m 3,7 km/h (1 Bft) O-NO 62 0 min 0,000 mm 0,0 UV-I 0 W/m 3,5 C 4,2 C 4,8 km/h (1 Bft) 97,87 %
10.01.2018 17:26 4,1 C 5,0 C 95 % 1011,8 hPa 0,0 l/m 2,7 km/h (1 Bft) O-NO 62 0 min 0,000 mm 0,0 UV-I 0 W/m 3,4 C 4,1 C 4,8 km/h (1 Bft) 96,00 %
10.01.2018 17:28 4,1 C 5,0 C 95 % 1011,8 hPa 0,0 l/m 3,3 km/h (1 Bft) O-NO 62 0 min 0,000 mm 0,0 UV-I 0 W/m 3,4 C 4,1 C 4,8 km/h (1 Bft) 97,37 %
10.01.2018 17:30 3,9 C 5,0 C 95 % 1011,8 hPa 0,0 l/m 4,0 km/h (1 Bft) O-NO 62 0 min 0,000 mm 0,0 UV-I 0 W/m 3,2 C 3,9 C 4,8 km/h (1 Bft) 98,00 %
10.01.2018 17:32 3,9 C 5,0 C 95 % 1011,8 hPa 0,0 l/m 4,0 km/h (1 Bft) O-NO 62 0 min 0,000 mm 0,0 UV-I 0 W/m 3,2 C 3,9 C 4,8 km/h (1 Bft) 97,87 %
10.01.2018 17:34 4,0 C 5,0 C 96 % 1011,8 hPa 0,0 l/m 5,0 km/h (1 Bft) O-NO 61 0 min 0,000 mm 0,0 UV-I 0 W/m 3,4 C 4,0 C 6,4 km/h (2 Bft) 97,87 %
10.01.2018 17:36 4,1 C 5,0 C 96 % 1011,8 hPa 0,0 l/m 5,4 km/h (1 Bft) O-NO 60 0 min 0,000 mm 0,0 UV-I 0 W/m 3,5 C 4,1 C 6,4 km/h (2 Bft) 98,00 %
10.01.2018 17:38 4,1 C 5,0 C 95 % 1011,7 hPa 0,0 l/m 5,9 km/h (2 Bft) O-NO 57 0 min 0,000 mm 0,0 UV-I 0 W/m 3,4 C 4,1 C 8,0 km/h (2 Bft) 97,56 %
10.01.2018 17:40 4,1 C 5,0 C 95 % 1011,7 hPa 0,0 l/m 6,2 km/h (2 Bft) NO 55 0 min 0,000 mm 0,0 UV-I 0 W/m 3,4 C 4,1 C 8,0 km/h (2 Bft) 98,00 %
10.01.2018 17:42 4,1 C 5,0 C 96 % 1011,7 hPa 0,0 l/m 5,4 km/h (1 Bft) NO 55 0 min 0,000 mm 0,0 UV-I 0 W/m 3,5 C 4,1 C 8,0 km/h (2 Bft) 96,23 %
10.01.2018 17:44 4,1 C 5,0 C 95 % 1011,7 hPa 0,0 l/m 6,0 km/h (2 Bft) NO 55 0 min 0,000 mm 0,0 UV-I 0 W/m 3,4 C 4,1 C 6,4 km/h (2 Bft) 95,45 %
10.01.2018 17:46 4,0 C 5,0 C 95 % 1011,7 hPa 0,0 l/m 4,9 km/h (1 Bft) NO 55 0 min 0,000 mm 0,0 UV-I 0 W/m 3,3 C 4,0 C 6,4 km/h (2 Bft) 100,00 %
10.01.2018 17:48 3,9 C 5,0 C 95 % 1011,7 hPa 0,0 l/m 3,5 km/h (1 Bft) NO 55 0 min 0,000 mm 0,0 UV-I 0 W/m 3,2 C 3,9 C 6,4 km/h (2 Bft) 94,00 %
10.01.2018 17:50 3,7 C 5,0 C 95 % 1011,8 hPa 0,0 l/m 4,5 km/h (1 Bft) O-NO 70 0 min 0,000 mm 0,0 UV-I 0 W/m 3,0 C 3,7 C 6,4 km/h (2 Bft) 100,00 %
10.01.2018 17:52 3,7 C 5,0 C 95 % 1011,8 hPa 0,0 l/m 4,0 km/h (1 Bft) O-NO 69 0 min 0,000 mm 0,0 UV-I 0 W/m 3,0 C 3,7 C 6,4 km/h (2 Bft) 98,00 %
10.01.2018 17:54 3,7 C 5,0 C 96 % 1011,7 hPa 0,0 l/m 5,0 km/h (1 Bft) O 90 0 min 0,000 mm 0,0 UV-I 0 W/m 3,1 C 3,7 C 6,4 km/h (2 Bft) 100,00 %
10.01.2018 17:56 3,8 C 5,0 C 96 % 1011,7 hPa 0,0 l/m 4,9 km/h (1 Bft) O 80 0 min 0,000 mm 0,0 UV-I 0 W/m 3,2 C 3,8 C 8,0 km/h (2 Bft) 97,87 %
10.01.2018 17:58 3,8 C 5,0 C 96 % 1011,7 hPa 0,0 l/m 5,4 km/h (1 Bft) O-NO 75 0 min 0,000 mm 0,0 UV-I 0 W/m 3,2 C 3,8 C 11,3 km/h (2 Bft) 100,00 %
10.01.2018 18:00 3,7 C 5,0 C 96 % 1011,8 hPa 0,0 l/m 4,0 km/h (1 Bft) SO 127 0 min 0,000 mm 0,0 UV-I 0 W/m 3,1 C 3,7 C 6,4 km/h (2 Bft) 100,00 %
10.01.2018 18:02 3,8 C 5,0 C 96 % 1011,8 hPa 0,0 l/m 5,8 km/h (2 Bft) O 87 0 min 0,000 mm 0,0 UV-I 0 W/m 3,2 C 3,8 C 8,0 km/h (2 Bft) 100,00 %
10.01.2018 18:04 3,7 C 5,0 C 96 % 1011,8 hPa 0,0 l/m 4,5 km/h (1 Bft) O-NO 71 0 min 0,000 mm 0,0 UV-I 0 W/m 3,1 C 3,7 C 9,7 km/h (2 Bft) 98,00 %
10.01.2018 18:06 3,6 C 5,0 C 95 % 1011,8 hPa 0,0 l/m 3,3 km/h (1 Bft) O 91 0 min 0,000 mm 0,0 UV-I 0 W/m 2,9 C 3,6 C 6,4 km/h (2 Bft) 100,00 %
10.01.2018 18:08 3,6 C 5,0 C 96 % 1011,9 hPa 0,0 l/m 2,3 km/h (1 Bft) O-SO 113 0 min 0,000 mm 0,0 UV-I 0 W/m 3,0 C 3,6 C 4,8 km/h (1 Bft) 100,00 %
10.01.2018 18:10 3,3 C 5,0 C 95 % 1011,8 hPa 0,0 l/m 3,1 km/h (1 Bft) O-SO 112 0 min 0,000 mm 0,0 UV-I 0 W/m 2,6 C 3,3 C 4,8 km/h (1 Bft) 100,00 %
10.01.2018 18:12 3,4 C 5,0 C 96 % 1011,9 hPa 0,0 l/m 4,5 km/h (1 Bft) O-NO 75 0 min 0,000 mm 0,0 UV-I 0 W/m 2,8 C 3,4 C 6,4 km/h (2 Bft) 100,00 %
10.01.2018 18:14 3,6 C 5,0 C 96 % 1011,8 hPa 0,0 l/m 5,2 km/h (1 Bft) O 86 0 min 0,000 mm 0,0 UV-I 0 W/m 3,0 C 3,6 C 8,0 km/h (2 Bft) 100,00 %
10.01.2018 18:16 3,7 C 5,0 C 96 % 1011,9 hPa 0,0 l/m 6,3 km/h (2 Bft) O-NO 76 0 min 0,000 mm 0,0 UV-I 0 W/m 3,1 C 3,7 C 11,3 km/h (2 Bft) 100,00 %
10.01.2018 18:18 3,6 C 5,0 C 96 % 1011,9 hPa 0,0 l/m 5,0 km/h (1 Bft) O-NO 78 0 min 0,000 mm 0,0 UV-I 0 W/m 3,0 C 3,6 C 11,3 km/h (2 Bft) 100,00 %
10.01.2018 18:20 3,6 C 5,0 C 96 % 1011,8 hPa 0,0 l/m 5,3 km/h (1 Bft) O-SO 107 0 min 0,000 mm 0,0 UV-I 0 W/m 3,0 C 3,6 C 6,4 km/h (2 Bft) 100,00 %
10.01.2018 18:22 3,6 C 5,0 C 96 % 1011,9 hPa 0,0 l/m 5,8 km/h (2 Bft) O 97 0 min 0,000 mm 0,0 UV-I 0 W/m 3,0 C 3,6 C 9,7 km/h (2 Bft) 100,00 %
10.01.2018 18:24 3,5 C 5,0 C 96 % 1011,9 hPa 0,0 l/m 5,4 km/h (1 Bft) O-SO 115 0 min 0,000 mm 0,0 UV-I 0 W/m 2,9 C 3,5 C 9,7 km/h (2 Bft) 100,00 %
10.01.2018 18:26 3,3 C 5,0 C 96 % 1011,9 hPa 0,0 l/m 1,2 km/h (1 Bft) O-SO 123 0 min 0,000 mm 0,0 UV-I 0 W/m 2,7 C 3,3 C 3,2 km/h (1 Bft) 100,00 %
10.01.2018 18:28 3,1 C 5,0 C 96 % 1012,0 hPa 0,0 l/m 1,8 km/h (1 Bft) O-SO 123 0 min 0,000 mm 0,0 UV-I 0 W/m 2,5 C 3,1 C 3,2 km/h (1 Bft) 100,00 %
10.01.2018 18:30 2,9 C 5,0 C 95 % 1011,9 hPa 0,0 l/m 1,1 km/h (1 Bft) O-SO 123 0 min 0,000 mm 0,0 UV-I 0 W/m 2,2 C 2,9 C 3,2 km/h (1 Bft) 100,00 %
10.01.2018 18:32 2,9 C 5,0 C 96 % 1012,0 hPa 0,0 l/m 0,6 km/h (0 Bft) O-SO 123 0 min 0,000 mm 0,0 UV-I 0 W/m 2,3 C 2,9 C 1,6 km/h (1 Bft) 100,00 %
10.01.2018 18:34 2,9 C 5,0 C 96 % 1012,0 hPa 0,0 l/m 0,1 km/h (0 Bft) O-SO 123 0 min 0,000 mm 0,0 UV-I 0 W/m 2,3 C 2,9 C 1,6 km/h (1 Bft) 100,00 %
10.01.2018 18:36 2,9 C 5,0 C 96 % 1011,9 hPa 0,0 l/m 0,0 km/h (0 Bft) O 100 0 min 0,000 mm 0,0 UV-I 0 W/m 2,3 C 2,9 C 1,6 km/h (1 Bft) 100,00 %
10.01.2018 18:38 3,2 C 5,0 C 96 % 1011,9 hPa 0,0 l/m 4,7 km/h (1 Bft) O 82 0 min 0,000 mm 0,0 UV-I 0 W/m 2,6 C 3,2 C 6,4 km/h (2 Bft) 100,00 %
10.01.2018 18:40 3,3 C 5,0 C 97 % 1011,9 hPa 0,0 l/m 5,5 km/h (1 Bft) O 84 0 min 0,000 mm 0,0 UV-I 0 W/m 2,9 C 3,3 C 8,0 km/h (2 Bft) 100,00 %
10.01.2018 18:42 3,4 C 5,0 C 97 % 1012,0 hPa 0,0 l/m 5,0 km/h (1 Bft) O 100 0 min 0,000 mm 0,0 UV-I 0 W/m 3,0 C 3,4 C 8,0 km/h (2 Bft) 100,00 %
10.01.2018 18:44 3,6 C 5,0 C 97 % 1012,0 hPa 0,0 l/m 5,4 km/h (1 Bft) O-NO 77 0 min 0,000 mm 0,0 UV-I 0 W/m 3,2 C 3,6 C 9,7 km/h (2 Bft) 100,00 %
10.01.2018 18:46 3,6 C 5,0 C 97 % 1012,0 hPa 0,0 l/m 4,5 km/h (1 Bft) O 84 0 min 0,000 mm 0,0 UV-I 0 W/m 3,2 C 3,6 C 8,0 km/h (2 Bft) 100,00 %
10.01.2018 18:48 3,5 C 5,0 C 97 % 1012,0 hPa 0,0 l/m 1,4 km/h (1 Bft) O 84 0 min 0,000 mm 0,0 UV-I 0 W/m 3,1 C 3,5 C 3,2 km/h (1 Bft) 100,00 %
10.01.2018 18:50 3,4 C 5,0 C 96 % 1012,1 hPa 0,0 l/m 2,4 km/h (1 Bft) O 84 0 min 0,000 mm 0,0 UV-I 0 W/m 2,8 C 3,4 C 3,2 km/h (1 Bft) 93,62 %
10.01.2018 18:52 3,4 C 5,0 C 96 % 1012,1 hPa 0,0 l/m 1,9 km/h (1 Bft) O 84 0 min 0,000 mm 0,0 UV-I 0 W/m 2,8 C 3,4 C 4,8 km/h (1 Bft) 100,00 %
10.01.2018 18:54 3,2 C 5,0 C 96 % 1012,1 hPa 0,0 l/m 2,5 km/h (1 Bft) O 84 0 min 0,000 mm 0,0 UV-I 0 W/m 2,6 C 3,2 C 3,2 km/h (1 Bft) 98,00 %
10.01.2018 18:56 3,1 C 5,0 C 96 % 1012,2 hPa 0,0 l/m 3,1 km/h (1 Bft) O 84 0 min 0,000 mm 0,0 UV-I 0 W/m 2,5 C 3,1 C 4,8 km/h (1 Bft) 97,87 %
10.01.2018 18:58 2,9 C 5,0 C 96 % 1012,1 hPa 0,0 l/m 2,7 km/h (1 Bft) O 84 0 min 0,000 mm 0,0 UV-I 0 W/m 2,3 C 2,9 C 4,8 km/h (1 Bft) 98,00 %
10.01.2018 19:00 2,6 C 5,0 C 96 % 1012,1 hPa 0,0 l/m 0,3 km/h (0 Bft) O 84 0 min 0,000 mm 0,0 UV-I 0 W/m 2,0 C 2,6 C 3,2 km/h (1 Bft) 100,00 %
10.01.2018 19:02 2,6 C 5,0 C 96 % 1012,2 hPa 0,0 l/m 2,8 km/h (1 Bft) O 84 0 min 0,000 mm 0,0 UV-I 0 W/m 2,0 C 2,6 C 4,8 km/h (1 Bft) 98,00 %
10.01.2018 19:04 2,6 C 5,0 C 96 % 1012,2 hPa 0,0 l/m 3,8 km/h (1 Bft) O 84 0 min 0,000 mm 0,0 UV-I 0 W/m 2,0 C 2,6 C 4,8 km/h (1 Bft) 98,00 %
10.01.2018 19:06 2,6 C 5,0 C 96 % 1012,2 hPa 0,0 l/m 3,2 km/h (1 Bft) O 84 0 min 0,000 mm 0,0 UV-I 0 W/m 2,0 C 2,6 C 4,8 km/h (1 Bft) 100,00 %
10.01.2018 19:08 2,7 C 5,0 C 97 % 1012,2 hPa 0,0 l/m 3,3 km/h (1 Bft) O 84 0 min 0,000 mm 0,0 UV-I 0 W/m 2,3 C 2,7 C 4,8 km/h (1 Bft) 100,00 %
10.01.2018 19:10 2,7 C 5,0 C 97 % 1012,2 hPa 0,0 l/m 4,3 km/h (1 Bft) NO 38 0 min 0,000 mm 0,0 UV-I 0 W/m 2,3 C 2,7 C 6,4 km/h (2 Bft) 100,00 %
10.01.2018 19:12 2,6 C 5,0 C 96 % 1012,2 hPa 0,0 l/m 5,3 km/h (1 Bft) NO 36 0 min 0,000 mm 0,0 UV-I 0 W/m 2,0 C 2,6 C 6,4 km/h (2 Bft) 97,87 %
10.01.2018 19:14 2,6 C 5,0 C 97 % 1012,2 hPa 0,0 l/m 5,0 km/h (1 Bft) NO 36 0 min 0,000 mm 0,0 UV-I 0 W/m 2,2 C 2,6 C 6,4 km/h (2 Bft) 100,00 %
10.01.2018 19:16 2,6 C 5,0 C 97 % 1012,2 hPa 0,0 l/m 5,6 km/h (1 Bft) NO 41 0 min 0,000 mm 0,0 UV-I 0 W/m 2,2 C 2,6 C 8,0 km/h (2 Bft) 98,00 %
10.01.2018 19:18 2,6 C 5,0 C 97 % 1012,3 hPa 0,0 l/m 5,1 km/h (1 Bft) NO 41 0 min 0,000 mm 0,0 UV-I 0 W/m 2,2 C 2,6 C 6,4 km/h (2 Bft) 97,87 %
10.01.2018 19:20 2,7 C 5,0 C 97 % 1012,3 hPa 0,0 l/m 4,5 km/h (1 Bft) O-NO 57 0 min 0,000 mm 0,0 UV-I 0 W/m 2,3 C 2,7 C 6,4 km/h (2 Bft) 97,22 %
10.01.2018 19:22 2,4 C 5,0 C 97 % 1012,3 hPa 0,0 l/m 3,6 km/h (1 Bft) O-NO 57 0 min 0,000 mm 0,0 UV-I 0 W/m 2,0 C 2,4 C 4,8 km/h (1 Bft) 95,74 %
10.01.2018 19:24 2,4 C 5,0 C 97 % 1012,3 hPa 0,0 l/m 3,7 km/h (1 Bft) O-NO 57 0 min 0,000 mm 0,0 UV-I 0 W/m 2,0 C 2,4 C 4,8 km/h (1 Bft) 97,92 %
10.01.2018 19:26 2,6 C 5,0 C 97 % 1012,3 hPa 0,0 l/m 4,9 km/h (1 Bft) O-NO 58 0 min 0,000 mm 0,0 UV-I 0 W/m 2,2 C 2,6 C 6,4 km/h (2 Bft) 95,74 %
10.01.2018 19:28 2,7 C 5,0 C 97 % 1012,3 hPa 0,0 l/m 5,2 km/h (1 Bft) NO 55 0 min 0,000 mm 0,0 UV-I 0 W/m 2,3 C 2,7 C 6,4 km/h (2 Bft) 94,23 %
10.01.2018 19:30 2,9 C 5,0 C 97 % 1012,3 hPa 0,0 l/m 5,3 km/h (1 Bft) O-NO 62 0 min 0,000 mm 0,0 UV-I 0 W/m 2,5 C 2,9 C 8,0 km/h (2 Bft) 97,22 %
10.01.2018 19:32 2,9 C 5,0 C 97 % 1012,3 hPa 0,0 l/m 6,9 km/h (2 Bft) NO 49 0 min 0,000 mm 0,0 UV-I 0 W/m 2,5 C 2,4 C 8,0 km/h (2 Bft) 93,33 %
10.01.2018 19:34 2,9 C 5,0 C 97 % 1012,4 hPa 0,0 l/m 6,8 km/h (2 Bft) NO 53 0 min 0,000 mm 0,0 UV-I 0 W/m 2,5 C 2,5 C 8,0 km/h (2 Bft) 93,18 %
10.01.2018 19:36 2,9 C 5,0 C 97 % 1012,4 hPa 0,0 l/m 7,3 km/h (2 Bft) O-NO 57 0 min 0,000 mm 0,0 UV-I 0 W/m 2,5 C 2,0 C 12,9 km/h (3 Bft) 96,00 %
10.01.2018 19:38 3,0 C 5,0 C 97 % 1012,5 hPa 0,0 l/m 8,3 km/h (2 Bft) O 92 0 min 0,000 mm 0,0 UV-I 0 W/m 2,6 C 1,2 C 11,3 km/h (2 Bft) 95,00 %
10.01.2018 19:40 3,0 C 5,0 C 97 % 1012,5 hPa 0,0 l/m 7,1 km/h (2 Bft) O-NO 67 0 min 0,000 mm 0,0 UV-I 0 W/m 2,6 C 2,3 C 11,3 km/h (2 Bft) 94,34 %
10.01.2018 19:42 3,1 C 5,0 C 97 % 1012,4 hPa 0,0 l/m 7,5 km/h (2 Bft) O-NO 67 0 min 0,000 mm 0,0 UV-I 0 W/m 2,7 C 2,1 C 11,3 km/h (2 Bft) 92,68 %
10.01.2018 19:44 3,1 C 5,0 C 97 % 1012,5 hPa 0,0 l/m 9,2 km/h (2 Bft) O 86 0 min 0,000 mm 0,0 UV-I 0 W/m 2,7 C 0,6 C 12,9 km/h (3 Bft) 96,00 %
10.01.2018 19:46 3,1 C 5,0 C 97 % 1012,5 hPa 0,0 l/m 7,8 km/h (2 Bft) O-NO 59 0 min 0,000 mm 0,0 UV-I 0 W/m 2,7 C 1,8 C 11,3 km/h (2 Bft) 95,12 %
10.01.2018 19:48 3,1 C 5,0 C 97 % 1012,5 hPa 0,0 l/m 10,5 km/h (2 Bft) NO 53 0 min 0,000 mm 0,0 UV-I 0 W/m 2,7 C -0,4 C 16,1 km/h (3 Bft) 92,00 %
10.01.2018 19:50 3,1 C 5,0 C 97 % 1012,4 hPa 0,0 l/m 10,1 km/h (2 Bft) O-NO 78 0 min 0,000 mm 0,0 UV-I 0 W/m 2,7 C -0,1 C 16,1 km/h (3 Bft) 96,00 %
10.01.2018 19:52 3,1 C 5,0 C 97 % 1012,4 hPa 0,0 l/m 10,2 km/h (2 Bft) O-NO 71 0 min 0,000 mm 0,0 UV-I 0 W/m 2,7 C -0,2 C 14,5 km/h (3 Bft) 95,12 %
10.01.2018 19:54 3,1 C 5,0 C 97 % 1012,4 hPa 0,0 l/m 11,2 km/h (2 Bft) O 82 0 min 0,000 mm 0,0 UV-I 0 W/m 2,7 C -0,9 C 16,1 km/h (3 Bft) 94,34 %
10.01.2018 19:56 3,1 C 5,0 C 97 % 1012,4 hPa 0,0 l/m 10,4 km/h (2 Bft) O 94 0 min 0,000 mm 0,0 UV-I 0 W/m 2,7 C -0,3 C 14,5 km/h (3 Bft) 93,18 %
10.01.2018 19:58 3,1 C 5,0 C 97 % 1012,4 hPa 0,0 l/m 9,9 km/h (2 Bft) O 81 0 min 0,000 mm 0,0 UV-I 0 W/m 2,7 C 0,0 C 14,5 km/h (3 Bft) 95,45 %
10.01.2018 20:00 3,1 C 5,0 C 97 % 1012,4 hPa 0,0 l/m 9,1 km/h (2 Bft) O-NO 74 0 min 0,000 mm 0,0 UV-I 0 W/m 2,7 C 0,7 C 14,5 km/h (3 Bft) 94,64 %
10.01.2018 20:02 3,1 C 5,0 C 97 % 1012,4 hPa 0,0 l/m 10,2 km/h (2 Bft) O 90 0 min 0,000 mm 0,0 UV-I 0 W/m 2,7 C -0,2 C 14,5 km/h (3 Bft) 97,87 %
10.01.2018 20:04 3,1 C 5,0 C 97 % 1012,4 hPa 0,0 l/m 6,8 km/h (2 Bft) O-NO 76 0 min 0,000 mm 0,0 UV-I 0 W/m 2,7 C 2,7 C 11,3 km/h (2 Bft) 95,24 %
10.01.2018 20:06 3,1 C 5,0 C 97 % 1012,4 hPa 0,0 l/m 5,0 km/h (1 Bft) O-SO 105 0 min 0,000 mm 0,0 UV-I 0 W/m 2,7 C 3,1 C 9,7 km/h (2 Bft) 96,23 %
10.01.2018 20:08 3,1 C 5,0 C 97 % 1012,5 hPa 0,0 l/m 5,7 km/h (1 Bft) O 98 0 min 0,000 mm 0,0 UV-I 0 W/m 2,7 C 3,1 C 11,3 km/h (2 Bft) 97,37 %
10.01.2018 20:10 3,1 C 5,0 C 97 % 1012,4 hPa 0,0 l/m 6,0 km/h (2 Bft) O-SO 111 0 min 0,000 mm 0,0 UV-I 0 W/m 2,7 C 3,1 C 9,7 km/h (2 Bft) 98,00 %
10.01.2018 20:12 3,1 C 5,0 C 97 % 1012,4 hPa 0,0 l/m 8,8 km/h (2 Bft) O-SO 121 0 min 0,000 mm 0,0 UV-I 0 W/m 2,7 C 0,9 C 11,3 km/h (2 Bft) 93,62 %
10.01.2018 20:14 3,1 C 5,0 C 98 % 1012,4 hPa 0,0 l/m 8,2 km/h (2 Bft) O-SO 105 0 min 0,000 mm 0,0 UV-I 0 W/m 2,8 C 1,4 C 12,9 km/h (3 Bft) 97,37 %
10.01.2018 20:16 3,1 C 5,0 C 98 % 1012,4 hPa 0,0 l/m 7,1 km/h (2 Bft) O-SO 109 0 min 0,000 mm 0,0 UV-I 0 W/m 2,8 C 2,4 C 9,7 km/h (2 Bft) 94,64 %
10.01.2018 20:18 3,1 C 5,0 C 98 % 1012,4 hPa 0,0 l/m 7,2 km/h (2 Bft) O 98 0 min 0,000 mm 0,0 UV-I 0 W/m 2,8 C 2,3 C 11,3 km/h (2 Bft) 98,00 %
10.01.2018 20:20 3,2 C 5,0 C 98 % 1012,4 hPa 0,0 l/m 6,1 km/h (2 Bft) O 101 0 min 0,000 mm 0,0 UV-I 0 W/m 2,9 C 3,2 C 9,7 km/h (2 Bft) 97,37 %
10.01.2018 20:22 3,2 C 5,0 C 98 % 1012,3 hPa 0,0 l/m 4,3 km/h (1 Bft) O 84 0 min 0,000 mm 0,0 UV-I 0 W/m 2,9 C 3,2 C 6,4 km/h (2 Bft) 98,00 %
10.01.2018 20:24 3,2 C 5,0 C 98 % 1012,4 hPa 0,0 l/m 4,5 km/h (1 Bft) O 86 0 min 0,000 mm 0,0 UV-I 0 W/m 2,9 C 3,2 C 6,4 km/h (2 Bft) 100,00 %
10.01.2018 20:26 3,2 C 5,0 C 98 % 1012,4 hPa 0,0 l/m 6,9 km/h (2 Bft) O-SO 104 0 min 0,000 mm 0,0 UV-I 0 W/m 2,9 C 2,7 C 12,9 km/h (3 Bft) 97,87 %
10.01.2018 20:28 3,2 C 5,0 C 98 % 1012,4 hPa 0,0 l/m 6,1 km/h (2 Bft) O 88 0 min 0,000 mm 0,0 UV-I 0 W/m 2,9 C 3,2 C 11,3 km/h (2 Bft) 100,00 %
10.01.2018 20:30 3,2 C 5,0 C 98 % 1012,4 hPa 0,0 l/m 2,5 km/h (1 Bft) O 88 0 min 0,000 mm 0,0 UV-I 0 W/m 2,9 C 3,2 C 4,8 km/h (1 Bft) 97,62 %
10.01.2018 20:32 3,2 C 5,0 C 98 % 1012,5 hPa 0,0 l/m 2,9 km/h (1 Bft) O 88 0 min 0,000 mm 0,0 UV-I 0 W/m 2,9 C 3,2 C 4,8 km/h (1 Bft) 98,11 %
10.01.2018 20:34 3,2 C 5,0 C 98 % 1012,4 hPa 0,0 l/m 3,6 km/h (1 Bft) O-NO 65 0 min 0,000 mm 0,0 UV-I 0 W/m 2,9 C 3,2 C 6,4 km/h (2 Bft) 100,00 %
10.01.2018 20:36 3,2 C 5,0 C 98 % 1012,4 hPa 0,0 l/m 2,6 km/h (1 Bft) O-NO 78 0 min 0,000 mm 0,0 UV-I 0 W/m 2,9 C 3,2 C 4,8 km/h (1 Bft) 100,00 %
10.01.2018 20:38 3,2 C 5,0 C 98 % 1012,4 hPa 0,0 l/m 3,3 km/h (1 Bft) O 101 0 min 0,000 mm 0,0 UV-I 0 W/m 2,9 C 3,2 C 4,8 km/h (1 Bft) 97,96 %
10.01.2018 20:40 3,3 C 5,0 C 98 % 1012,4 hPa 0,0 l/m 3,8 km/h (1 Bft) O 92 0 min 0,000 mm 0,0 UV-I 0 W/m 3,0 C 3,3 C 6,4 km/h (2 Bft) 98,00 %
10.01.2018 20:42 3,3 C 5,0 C 98 % 1012,5 hPa 0,0 l/m 5,5 km/h (1 Bft) O 83 0 min 0,000 mm 0,0 UV-I 0 W/m 3,0 C 3,3 C 12,9 km/h (3 Bft) 100,00 %
10.01.2018 20:44 3,3 C 5,0 C 98 % 1012,5 hPa 0,0 l/m 4,8 km/h (1 Bft) O-SO 109 0 min 0,000 mm 0,0 UV-I 0 W/m 3,0 C 3,3 C 6,4 km/h (2 Bft) 100,00 %
10.01.2018 20:46 3,3 C 5,0 C 98 % 1012,5 hPa 0,0 l/m 2,4 km/h (1 Bft) O-SO 109 0 min 0,000 mm 0,0 UV-I 0 W/m 3,0 C 3,3 C 3,2 km/h (1 Bft) 98,11 %
10.01.2018 20:48 3,3 C 5,0 C 98 % 1012,5 hPa 0,0 l/m 3,3 km/h (1 Bft) O-SO 109 0 min 0,000 mm 0,0 UV-I 0 W/m 3,0 C 3,3 C 6,4 km/h (2 Bft) 100,00 %
10.01.2018 20:50 3,3 C 5,0 C 98 % 1012,4 hPa 0,0 l/m 3,7 km/h (1 Bft) O 88 0 min 0,000 mm 0,0 UV-I 0 W/m 3,0 C 3,3 C 6,4 km/h (2 Bft) 100,00 %
10.01.2018 20:52 3,4 C 5,0 C 98 % 1012,4 hPa 0,0 l/m 4,3 km/h (1 Bft) O 91 0 min 0,000 mm 0,0 UV-I 0 W/m 3,1 C 3,4 C 6,4 km/h (2 Bft) 100,00 %
10.01.2018 20:54 3,4 C 5,0 C 98 % 1012,4 hPa 0,0 l/m 4,5 km/h (1 Bft) O-SO 120 0 min 0,000 mm 0,0 UV-I 0 W/m 3,1 C 3,4 C 8,0 km/h (2 Bft) 100,00 %
10.01.2018 20:56 3,4 C 5,0 C 98 % 1012,4 hPa 0,0 l/m 4,3 km/h (1 Bft) O 94 0 min 0,000 mm 0,0 UV-I 0 W/m 3,1 C 3,4 C 6,4 km/h (2 Bft) 98,11 %
10.01.2018 20:58 3,4 C 5,0 C 98 % 1012,4 hPa 0,0 l/m 4,0 km/h (1 Bft) O-SO 104 0 min 0,000 mm 0,0 UV-I 0 W/m 3,1 C 3,4 C 6,4 km/h (2 Bft) 97,37 %
10.01.2018 21:00 3,4 C 5,0 C 98 % 1012,4 hPa 0,0 l/m 5,4 km/h (1 Bft) O-SO 105 0 min 0,000 mm 0,0 UV-I 0 W/m 3,1 C 3,4 C 9,7 km/h (2 Bft) 100,00 %
10.01.2018 21:02 3,4 C 5,0 C 98 % 1012,4 hPa 0,0 l/m 3,8 km/h (1 Bft) SO 126 0 min 0,000 mm 0,0 UV-I 0 W/m 3,1 C 3,4 C 6,4 km/h (2 Bft) 97,56 %
10.01.2018 21:04 3,4 C 5,0 C 98 % 1012,5 hPa 0,0 l/m 3,7 km/h (1 Bft) O-SO 109 0 min 0,000 mm 0,0 UV-I 0 W/m 3,1 C 3,4 C 4,8 km/h (1 Bft) 98,00 %
10.01.2018 21:06 3,4 C 5,0 C 98 % 1012,5 hPa 0,0 l/m 4,8 km/h (1 Bft) O 98 0 min 0,000 mm 0,0 UV-I 0 W/m 3,1 C 3,4 C 9,7 km/h (2 Bft) 100,00 %
10.01.2018 21:08 3,4 C 5,0 C 98 % 1012,5 hPa 0,0 l/m 3,9 km/h (1 Bft) SO 130 0 min 0,000 mm 0,0 UV-I 0 W/m 3,1 C 3,4 C 6,4 km/h (2 Bft) 100,00 %
10.01.2018 21:10 3,4 C 5,0 C 98 % 1012,5 hPa 0,0 l/m 3,2 km/h (1 Bft) SO 130 0 min 0,000 mm 0,0 UV-I 0 W/m 3,1 C 3,4 C 4,8 km/h (1 Bft) 100,00 %
10.01.2018 21:12 3,4 C 5,0 C 98 % 1012,6 hPa 0,0 l/m 2,9 km/h (1 Bft) SO 137 0 min 0,000 mm 0,0 UV-I 0 W/m 3,1 C 3,4 C 4,8 km/h (1 Bft) 100,00 %
10.01.2018 21:14 3,4 C 5,0 C 98 % 1012,5 hPa 0,0 l/m 4,3 km/h (1 Bft) SO 132 0 min 0,000 mm 0,0 UV-I 0 W/m 3,1 C 3,4 C 6,4 km/h (2 Bft) 100,00 %
10.01.2018 21:16 3,4 C 5,0 C 98 % 1012,5 hPa 0,0 l/m 6,3 km/h (2 Bft) O-SO 117 0 min 0,000 mm 0,0 UV-I 0 W/m 3,1 C 3,4 C 9,7 km/h (2 Bft) 97,87 %
10.01.2018 21:18 3,4 C 5,0 C 98 % 1012,5 hPa 0,0 l/m 6,1 km/h (2 Bft) O-SO 110 0 min 0,000 mm 0,0 UV-I 0 W/m 3,1 C 3,4 C 9,7 km/h (2 Bft) 100,00 %
10.01.2018 21:20 3,4 C 5,0 C 98 % 1012,5 hPa 0,0 l/m 4,9 km/h (1 Bft) SO 136 0 min 0,000 mm 0,0 UV-I 0 W/m 3,1 C 3,4 C 9,7 km/h (2 Bft) 100,00 %
10.01.2018 21:22 3,4 C 5,0 C 98 % 1012,5 hPa 0,0 l/m 5,1 km/h (1 Bft) SO 129 0 min 0,000 mm 0,0 UV-I 0 W/m 3,1 C 3,4 C 8,0 km/h (2 Bft) 100,00 %
10.01.2018 21:24 3,5 C 5,0 C 98 % 1012,5 hPa 0,0 l/m 5,3 km/h (1 Bft) SO 128 0 min 0,000 mm 0,0 UV-I 0 W/m 3,2 C 3,5 C 8,0 km/h (2 Bft) 100,00 %
10.01.2018 21:26 3,5 C 5,0 C 98 % 1012,5 hPa 0,0 l/m 5,2 km/h (1 Bft) O-SO 118 0 min 0,000 mm 0,0 UV-I 0 W/m 3,2 C 3,5 C 8,0 km/h (2 Bft) 100,00 %
10.01.2018 21:28 3,5 C 5,0 C 98 % 1012,6 hPa 0,0 l/m 5,7 km/h (1 Bft) SO 139 0 min 0,000 mm 0,0 UV-I 0 W/m 3,2 C 3,5 C 9,7 km/h (2 Bft) 100,00 %
10.01.2018 21:30 3,5 C 5,0 C 98 % 1012,6 hPa 0,0 l/m 5,6 km/h (1 Bft) O-SO 120 0 min 0,000 mm 0,0 UV-I 0 W/m 3,2 C 3,5 C 9,7 km/h (2 Bft) 96,00 %
10.01.2018 21:32 3,5 C 5,0 C 98 % 1012,7 hPa 0,0 l/m 5,5 km/h (1 Bft) O-SO 118 0 min 0,000 mm 0,0 UV-I 0 W/m 3,2 C 3,5 C 11,3 km/h (2 Bft) 97,37 %
10.01.2018 21:34 3,5 C 5,0 C 98 % 1012,7 hPa 0,0 l/m 3,8 km/h (1 Bft) SO 135 0 min 0,000 mm 0,0 UV-I 0 W/m 3,2 C 3,5 C 9,7 km/h (2 Bft) 94,00 %
10.01.2018 21:36 3,5 C 5,0 C 98 % 1012,7 hPa 0,0 l/m 3,0 km/h (1 Bft) O-SO 113 0 min 0,000 mm 0,0 UV-I 0 W/m 3,2 C 3,5 C 4,8 km/h (1 Bft) 98,00 %
10.01.2018 21:38 3,5 C 5,0 C 98 % 1012,7 hPa 0,0 l/m 3,5 km/h (1 Bft) SO 134 0 min 0,000 mm 0,0 UV-I 0 W/m 3,2 C 3,5 C 6,4 km/h (2 Bft) 97,87 %
10.01.2018 21:40 3,5 C 5,0 C 98 % 1012,7 hPa 0,0 l/m 3,0 km/h (1 Bft) SO 139 0 min 0,000 mm 0,0 UV-I 0 W/m 3,2 C 3,5 C 8,0 km/h (2 Bft) 98,00 %
10.01.2018 21:42 3,6 C 5,0 C 98 % 1012,7 hPa 0,0 l/m 3,3 km/h (1 Bft) S-SO 167 0 min 0,000 mm 0,0 UV-I 0 W/m 3,3 C 3,6 C 6,4 km/h (2 Bft) 97,56 %
10.01.2018 21:44 3,5 C 5,0 C 98 % 1012,7 hPa 0,0 l/m 2,8 km/h (1 Bft) SO 140 0 min 0,000 mm 0,0 UV-I 0 W/m 3,2 C 3,5 C 6,4 km/h (2 Bft) 98,11 %
10.01.2018 21:46 3,6 C 5,0 C 98 % 1012,7 hPa 0,0 l/m 1,6 km/h (1 Bft) SO 146 0 min 0,000 mm 0,0 UV-I 0 W/m 3,3 C 3,6 C 3,2 km/h (1 Bft) 96,30 %
10.01.2018 21:48 3,6 C 5,0 C 98 % 1012,7 hPa 0,0 l/m 1,9 km/h (1 Bft) SO 146 0 min 0,000 mm 0,0 UV-I 0 W/m 3,3 C 3,6 C 3,2 km/h (1 Bft) 96,88 %
10.01.2018 21:50 3,6 C 5,0 C 97 % 1012,7 hPa 0,0 l/m 0,6 km/h (0 Bft) SO 146 0 min 0,000 mm 0,0 UV-I 0 W/m 3,2 C 3,6 C 4,8 km/h (1 Bft) 97,87 %
10.01.2018 21:52 3,6 C 5,0 C 97 % 1012,6 hPa 0,0 l/m 0,7 km/h (0 Bft) SO 146 0 min 0,000 mm 0,0 UV-I 0 W/m 3,2 C 3,6 C 4,8 km/h (1 Bft) 97,92 %
10.01.2018 21:54 3,6 C 5,0 C 97 % 1012,7 hPa 0,0 l/m 0,1 km/h (0 Bft) SO 146 0 min 0,000 mm 0,0 UV-I 0 W/m 3,2 C 3,6 C 1,6 km/h (1 Bft) 98,00 %
10.01.2018 21:56 3,6 C 5,0 C 97 % 1012,6 hPa 0,0 l/m 0,0 km/h (0 Bft) SO 146 0 min 0,000 mm 0,0 UV-I 0 W/m 3,2 C 3,6 C 0,0 km/h (0 Bft) 97,56 %
10.01.2018 21:58 3,6 C 5,0 C 97 % 1012,7 hPa 0,0 l/m 0,4 km/h (0 Bft) SO 146 0 min 0,000 mm 0,0 UV-I 0 W/m 3,2 C 3,6 C 3,2 km/h (1 Bft) 98,11 %
10.01.2018 22:00 3,6 C 5,0 C 97 % 1012,7 hPa 0,0 l/m 1,2 km/h (1 Bft) SO 146 0 min 0,000 mm 0,0 UV-I 0 W/m 3,2 C 3,6 C 3,2 km/h (1 Bft) 97,87 %
10.01.2018 22:02 3,6 C 5,0 C 97 % 1012,7 hPa 0,0 l/m 1,6 km/h (1 Bft) SO 146 0 min 0,000 mm 0,0 UV-I 0 W/m 3,2 C 3,6 C 3,2 km/h (1 Bft) 97,37 %
10.01.2018 22:04 3,6 C 5,0 C 97 % 1012,7 hPa 0,0 l/m 2,1 km/h (1 Bft) SO 146 0 min 0,000 mm 0,0 UV-I 0 W/m 3,2 C 3,6 C 3,2 km/h (1 Bft) 96,23 %
10.01.2018 22:06 3,6 C 5,0 C 97 % 1012,7 hPa 0,0 l/m 0,0 km/h (0 Bft) SO 146 0 min 0,000 mm 0,0 UV-I 0 W/m 3,2 C 3,6 C 1,6 km/h (1 Bft) 100,00 %
10.01.2018 22:08 3,6 C 5,0 C 97 % 1012,7 hPa 0,0 l/m 0,1 km/h (0 Bft) SO 146 0 min 0,000 mm 0,0 UV-I 0 W/m 3,2 C 3,6 C 1,6 km/h (1 Bft) 100,00 %
10.01.2018 22:10 3,6 C 5,0 C 97 % 1012,7 hPa 0,0 l/m 1,3 km/h (1 Bft) SO 146 0 min 0,000 mm 0,0 UV-I 0 W/m 3,2 C 3,6 C 3,2 km/h (1 Bft) 97,87 %
10.01.2018 22:12 3,6 C 5,0 C 97 % 1012,7 hPa 0,0 l/m 1,2 km/h (1 Bft) SO 146 0 min 0,000 mm 0,0 UV-I 0 W/m 3,2 C 3,6 C 3,2 km/h (1 Bft) 97,37 %
10.01.2018 22:14 3,7 C 5,0 C 97 % 1012,7 hPa 0,0 l/m 0,8 km/h (0 Bft) SO 146 0 min 0,000 mm 0,0 UV-I 0 W/m 3,3 C 3,7 C 3,2 km/h (1 Bft) 100,00 %
10.01.2018 22:16 3,7 C 5,0 C 97 % 1012,7 hPa 0,0 l/m 3,5 km/h (1 Bft) SO 146 0 min 0,000 mm 0,0 UV-I 0 W/m 3,3 C 3,7 C 4,8 km/h (1 Bft) 98,00 %
10.01.2018 22:18 3,7 C 5,0 C 97 % 1012,8 hPa 0,0 l/m 3,1 km/h (1 Bft) SO 146 0 min 0,000 mm 0,0 UV-I 0 W/m 3,3 C 3,7 C 4,8 km/h (1 Bft) 98,11 %
10.01.2018 22:20 3,7 C 5,0 C 97 % 1012,8 hPa 0,0 l/m 3,7 km/h (1 Bft) SO 146 0 min 0,000 mm 0,0 UV-I 0 W/m 3,3 C 3,7 C 4,8 km/h (1 Bft) 100,00 %
10.01.2018 22:22 3,7 C 5,0 C 97 % 1012,8 hPa 0,0 l/m 3,6 km/h (1 Bft) SO 146 0 min 0,000 mm 0,0 UV-I 0 W/m 3,3 C 3,7 C 4,8 km/h (1 Bft) 100,00 %
10.01.2018 22:24 3,7 C 5,0 C 97 % 1012,8 hPa 0,0 l/m 2,5 km/h (1 Bft) SO 146 0 min 0,000 mm 0,0 UV-I 0 W/m 3,3 C 3,7 C 4,8 km/h (1 Bft) 100,00 %
10.01.2018 22:26 3,7 C 5,0 C 97 % 1012,8 hPa 0,0 l/m 3,9 km/h (1 Bft) SO 145 0 min 0,000 mm 0,0 UV-I 0 W/m 3,3 C 3,7 C 4,8 km/h (1 Bft) 100,00 %
10.01.2018 22:28 3,7 C 5,0 C 98 % 1012,9 hPa 0,0 l/m 1,9 km/h (1 Bft) SO 146 0 min 0,000 mm 0,0 UV-I 0 W/m 3,4 C 3,7 C 4,8 km/h (1 Bft) 98,11 %
10.01.2018 22:30 3,7 C 5,0 C 98 % 1012,9 hPa 0,0 l/m 0,3 km/h (0 Bft) SO 145 0 min 0,000 mm 0,0 UV-I 0 W/m 3,4 C 3,7 C 1,6 km/h (1 Bft) 100,00 %
10.01.2018 22:32 3,7 C 5,0 C 98 % 1012,9 hPa 0,0 l/m 0,5 km/h (0 Bft) SO 145 0 min 0,000 mm 0,0 UV-I 0 W/m 3,4 C 3,7 C 1,6 km/h (1 Bft) 100,00 %
10.01.2018 22:34 3,7 C 5,0 C 97 % 1012,9 hPa 0,0 l/m 0,1 km/h (0 Bft) SO 145 0 min 0,000 mm 0,0 UV-I 0 W/m 3,3 C 3,7 C 1,6 km/h (1 Bft) 100,00 %
10.01.2018 22:36 3,7 C 5,0 C 97 % 1012,9 hPa 0,0 l/m 1,1 km/h (1 Bft) SO 145 0 min 0,000 mm 0,0 UV-I 0 W/m 3,3 C 3,7 C 3,2 km/h (1 Bft) 97,87 %
10.01.2018 22:38 3,7 C 5,0 C 97 % 1012,9 hPa 0,0 l/m 3,0 km/h (1 Bft) SO 145 0 min 0,000 mm 0,0 UV-I 0 W/m 3,3 C 3,7 C 4,8 km/h (1 Bft) 100,00 %
10.01.2018 22:40 3,7 C 5,0 C 97 % 1012,9 hPa 0,0 l/m 5,2 km/h (1 Bft) O 96 0 min 0,000 mm 0,0 UV-I 0 W/m 3,3 C 3,7 C 6,4 km/h (2 Bft) 100,00 %
10.01.2018 22:42 3,7 C 5,0 C 97 % 1012,8 hPa 0,0 l/m 5,4 km/h (1 Bft) O-SO 111 0 min 0,000 mm 0,0 UV-I 0 W/m 3,3 C 3,7 C 9,7 km/h (2 Bft) 100,00 %
10.01.2018 22:44 3,7 C 5,0 C 97 % 1012,9 hPa 0,0 l/m 3,4 km/h (1 Bft) O-SO 111 0 min 0,000 mm 0,0 UV-I 0 W/m 3,3 C 3,7 C 4,8 km/h (1 Bft) 100,00 %
10.01.2018 22:46 3,7 C 5,0 C 97 % 1012,9 hPa 0,0 l/m 0,2 km/h (0 Bft) O-SO 111 0 min 0,000 mm 0,0 UV-I 0 W/m 3,3 C 3,7 C 1,6 km/h (1 Bft) 100,00 %
10.01.2018 22:48 3,7 C 5,0 C 97 % 1012,9 hPa 0,0 l/m 0,0 km/h (0 Bft) O-SO 111 0 min 0,000 mm 0,0 UV-I 0 W/m 3,3 C 3,7 C 1,6 km/h (1 Bft) 100,00 %
10.01.2018 22:50 3,7 C 5,0 C 97 % 1012,9 hPa 0,0 l/m 0,0 km/h (0 Bft) O-SO 111 0 min 0,000 mm 0,0 UV-I 0 W/m 3,3 C 3,7 C 0,0 km/h (0 Bft) 98,00 %
10.01.2018 22:52 3,8 C 5,0 C 97 % 1013,0 hPa 0,0 l/m 0,0 km/h (0 Bft) O-SO 111 0 min 0,000 mm 0,0 UV-I 0 W/m 3,4 C 3,8 C 0,0 km/h (0 Bft) 100,00 %
10.01.2018 22:54 3,8 C 5,0 C 97 % 1012,9 hPa 0,0 l/m 0,1 km/h (0 Bft) O-SO 111 0 min 0,000 mm 0,0 UV-I 0 W/m 3,4 C 3,8 C 1,6 km/h (1 Bft) 100,00 %
10.01.2018 22:56 3,7 C 5,0 C 97 % 1013,0 hPa 0,0 l/m 1,4 km/h (1 Bft) O-SO 111 0 min 0,000 mm 0,0 UV-I 0 W/m 3,3 C 3,7 C 4,8 km/h (1 Bft) 97,22 %
10.01.2018 22:58 3,7 C 5,0 C 97 % 1012,9 hPa 0,0 l/m 2,8 km/h (1 Bft) O-SO 111 0 min 0,000 mm 0,0 UV-I 0 W/m 3,3 C 3,7 C 3,2 km/h (1 Bft) 100,00 %
10.01.2018 23:00 3,7 C 5,0 C 97 % 1012,9 hPa 0,0 l/m 1,9 km/h (1 Bft) O-SO 111 0 min 0,000 mm 0,0 UV-I 0 W/m 3,3 C 3,7 C 3,2 km/h (1 Bft) 94,74 %
10.01.2018 23:02 3,7 C 5,0 C 97 % 1012,9 hPa 0,0 l/m 1,7 km/h (1 Bft) O-SO 114 0 min 0,000 mm 0,0 UV-I 0 W/m 3,3 C 3,7 C 4,8 km/h (1 Bft) 100,00 %
10.01.2018 23:04 3,7 C 5,0 C 97 % 1012,9 hPa 0,0 l/m 1,4 km/h (1 Bft) O-SO 115 0 min 0,000 mm 0,0 UV-I 0 W/m 3,3 C 3,7 C 3,2 km/h (1 Bft) 100,00 %
10.01.2018 23:06 3,7 C 5,0 C 97 % 1012,9 hPa 0,0 l/m 2,5 km/h (1 Bft) O-SO 115 0 min 0,000 mm 0,0 UV-I 0 W/m 3,3 C 3,7 C 4,8 km/h (1 Bft) 98,00 %
10.01.2018 23:08 3,7 C 5,0 C 97 % 1012,9 hPa 0,0 l/m 3,0 km/h (1 Bft) O-SO 115 0 min 0,000 mm 0,0 UV-I 0 W/m 3,3 C 3,7 C 4,8 km/h (1 Bft) 100,00 %
10.01.2018 23:10 3,7 C 5,0 C 97 % 1012,9 hPa 0,0 l/m 3,4 km/h (1 Bft) O-SO 115 0 min 0,000 mm 0,0 UV-I 0 W/m 3,3 C 3,7 C 4,8 km/h (1 Bft) 95,74 %
10.01.2018 23:12 3,7 C 5,0 C 97 % 1012,9 hPa 0,0 l/m 2,5 km/h (1 Bft) O-SO 115 0 min 0,000 mm 0,0 UV-I 0 W/m 3,3 C 3,7 C 4,8 km/h (1 Bft) 96,00 %
10.01.2018 23:14 3,7 C 5,0 C 97 % 1012,9 hPa 0,0 l/m 3,6 km/h (1 Bft) O-SO 117 0 min 0,000 mm 0,0 UV-I 0 W/m 3,3 C 3,7 C 6,4 km/h (2 Bft) 97,87 %
10.01.2018 23:16 3,8 C 5,0 C 97 % 1012,9 hPa 0,0 l/m 2,5 km/h (1 Bft) O-SO 117 0 min 0,000 mm 0,0 UV-I 0 W/m 3,4 C 3,8 C 4,8 km/h (1 Bft) 100,00 %
10.01.2018 23:18 3,8 C 5,0 C 97 % 1012,9 hPa 0,0 l/m 1,4 km/h (1 Bft) O-SO 117 0 min 0,000 mm 0,0 UV-I 0 W/m 3,4 C 3,8 C 4,8 km/h (1 Bft) 100,00 %
10.01.2018 23:20 3,8 C 5,0 C 97 % 1012,9 hPa 0,0 l/m 0,0 km/h (0 Bft) O-SO 117 0 min 0,000 mm 0,0 UV-I 0 W/m 3,4 C 3,8 C 1,6 km/h (1 Bft) 97,56 %
10.01.2018 23:22 3,7 C 5,0 C 97 % 1012,9 hPa 0,0 l/m 0,0 km/h (0 Bft) O-SO 117 0 min 0,000 mm 0,0 UV-I 0 W/m 3,3 C 3,7 C 0,0 km/h (0 Bft) 96,08 %
10.01.2018 23:24 3,8 C 5,0 C 97 % 1012,9 hPa 0,0 l/m 0,0 km/h (0 Bft) O-SO 117 0 min 0,000 mm 0,0 UV-I 0 W/m 3,4 C 3,8 C 0,0 km/h (0 Bft) 97,62 %
10.01.2018 23:26 3,7 C 5,0 C 97 % 1013,0 hPa 0,0 l/m 0,0 km/h (0 Bft) O-SO 117 0 min 0,000 mm 0,0 UV-I 0 W/m 3,3 C 3,7 C 0,0 km/h (0 Bft) 98,00 %
10.01.2018 23:28 3,8 C 5,0 C 97 % 1012,9 hPa 0,0 l/m 0,3 km/h (0 Bft) O-SO 117 0 min 0,000 mm 0,0 UV-I 0 W/m 3,4 C 3,8 C 1,6 km/h (1 Bft) 96,00 %
10.01.2018 23:30 3,8 C 5,0 C 97 % 1012,8 hPa 0,0 l/m 0,3 km/h (0 Bft) O-SO 117 0 min 0,000 mm 0,0 UV-I 0 W/m 3,4 C 3,8 C 3,2 km/h (1 Bft) 98,00 %
10.01.2018 23:32 3,7 C 5,0 C 97 % 1012,8 hPa 0,0 l/m 0,4 km/h (0 Bft) O-SO 117 0 min 0,000 mm 0,0 UV-I 0 W/m 3,3 C 3,7 C 1,6 km/h (1 Bft) 96,00 %
10.01.2018 23:34 3,8 C 5,0 C 97 % 1012,8 hPa 0,0 l/m 0,4 km/h (0 Bft) O-SO 117 0 min 0,000 mm 0,0 UV-I 0 W/m 3,4 C 3,8 C 1,6 km/h (1 Bft) 96,55 %
10.01.2018 23:35 3,7 C 5,0 C 97 % 1012,8 hPa 0,0 l/m 0,0 km/h (0 Bft) O-SO 112 0 min 0,000 mm 0,0 UV-I 0 W/m 3,3 C 3,7 C 4,8 km/h (1 Bft) 99,12 %
10.01.2018 23:36 3,7 C 5,0 C 97 % 1012,9 hPa 0,0 l/m 1,6 km/h (1 Bft) O-SO 117 0 min 0,000 mm 0,0 UV-I 0 W/m 3,3 C 3,7 C 3,2 km/h (1 Bft) 94,34 %
10.01.2018 23:38 3,8 C 5,0 C 97 % 1012,8 hPa 0,0 l/m 0,7 km/h (0 Bft) O-SO 117 0 min 0,000 mm 0,0 UV-I 0 W/m 3,4 C 3,8 C 3,2 km/h (1 Bft) 94,34 %
10.01.2018 23:40 3,7 C 5,0 C 97 % 1012,8 hPa 0,0 l/m 1,4 km/h (1 Bft) O-SO 117 0 min 0,000 mm 0,0 UV-I 0 W/m 3,3 C 3,7 C 3,2 km/h (1 Bft) 93,62 %
10.01.2018 23:42 3,7 C 5,0 C 97 % 1012,8 hPa 0,0 l/m 1,8 km/h (1 Bft) O-SO 117 0 min 0,000 mm 0,0 UV-I 0 W/m 3,3 C 3,7 C 3,2 km/h (1 Bft) 95,74 %
10.01.2018 23:44 3,7 C 5,0 C 97 % 1012,8 hPa 0,0 l/m 2,4 km/h (1 Bft) O-SO 117 0 min 0,000 mm 0,0 UV-I 0 W/m 3,3 C 3,7 C 3,2 km/h (1 Bft) 97,37 %
10.01.2018 23:46 3,7 C 5,0 C 97 % 1012,7 hPa 0,0 l/m 3,3 km/h (1 Bft) O-SO 117 0 min 0,000 mm 0,0 UV-I 0 W/m 3,3 C 3,7 C 4,8 km/h (1 Bft) 94,34 %
10.01.2018 23:48 3,7 C 5,0 C 97 % 1012,7 hPa 0,0 l/m 3,2 km/h (1 Bft) O-SO 117 0 min 0,000 mm 0,0 UV-I 0 W/m 3,3 C 3,7 C 4,8 km/h (1 Bft) 92,45 %
10.01.2018 23:50 3,7 C 5,0 C 97 % 1012,7 hPa 0,0 l/m 2,2 km/h (1 Bft) O-SO 117 0 min 0,000 mm 0,0 UV-I 0 W/m 3,3 C 3,7 C 4,8 km/h (1 Bft) 95,74 %
10.01.2018 23:52 3,7 C 5,0 C 97 % 1012,7 hPa 0,0 l/m 1,5 km/h (1 Bft) O-SO 117 0 min 0,000 mm 0,0 UV-I 0 W/m 3,3 C 3,7 C 3,2 km/h (1 Bft) 95,74 %
10.01.2018 23:54 3,7 C 5,0 C 97 % 1012,8 hPa 0,0 l/m 0,3 km/h (0 Bft) O-SO 117 0 min 0,000 mm 0,0 UV-I 0 W/m 3,3 C 3,7 C 1,6 km/h (1 Bft) 96,30 %
10.01.2018 23:56 3,8 C 5,0 C 97 % 1012,8 hPa 0,0 l/m 0,0 km/h (0 Bft) O-SO 117 0 min 0,000 mm 0,0 UV-I 0 W/m 3,4 C 3,8 C 0,0 km/h (0 Bft) 94,64 %
10.01.2018 23:58 3,8 C 5,0 C 97 % 1012,7 hPa 0,0 l/m 1,1 km/h (1 Bft) O-SO 117 0 min 0,000 mm 0,0 UV-I 0 W/m 3,4 C 3,8 C 3,2 km/h (1 Bft) 96,00 %
_ Min-Zeit 19:22 00:00 13:26 14:10 - 00:00 - - - - - - 19:22 19:54 00:00 01:04
Minimum _ 2,4 C 4,4 C 82 % 1011,3 hPa - 0,0 km/h (0 Bft) - - - - - - 2,0 C -0,9 C 0,0 km/h (0 Bft) 86,67 %
_ Max-Zeit 13:06 10:24 20:14 03:08 00:00 14:50 - - 12:23 13:00 12:24 12:00 12:06 13:08 14:46 00:02
Maximum _ 7,8 C 5,0 C 98 % 1013,6 hPa 0,0 l/m 12,1 km/h
O-NO (2 Bft)
- - 3 min 0,152 mm 0,6 UV-I 380 W/m 5,6 C 7,8 C 19,3 km/h
O-NO (3 Bft)
100,00 %
Durchschnitt _ 4,4 C 4,7 C 94 % 1012,4 hPa #0,0 l/m 2,8 km/h (1 Bft) NO - #4:12 h #0,508 mm 0,5 UV-I 134 W/m 3,6 C 4,3 C 4,8 km/h (1 Bft) 97,93 %